Date StartTime U_cm/s V_cm/s W_cm/s Ustd_cm/s Vstd_cm/s Wstd_cm/s Uvar_(cm/s)^2 Vvar_(cm/s)^2 Wvar_(cm/s)^2 KE_(m/s)^2 TurbulentKE_(m/s)^2 HorizWindSpeed_cm/s FrictionSpeec_cm/s DragCoef SpeedOfSound_m/s SonicTemperature_C Pressure_mb 
04/30/2014  00:00:00      -49.555       -1.374      -11.876       13.627       36.012       13.173      185.687     1296.889      173.521        0.213        0.083       49.574       15.808        0.102      339.863       13.489      871.415
04/30/2014  00:01:00      -58.591      -41.684       -7.446       31.976       13.407       15.054     1022.449      179.756      226.622        0.333        0.071       71.906       14.327        0.040      339.423       12.745      871.413
04/30/2014  00:02:00      -20.592      -25.926       -6.193       27.431       26.748       18.635      752.439      715.470      347.263        0.147        0.091       33.109       10.046        0.092      339.374       12.663      871.430
04/30/2014  00:03:00      -97.484      -11.430      -16.809       27.985       18.874       13.087      783.139      356.229      171.258        0.561        0.066       98.152       15.016        0.023      339.166       12.313      871.424
04/30/2014  00:04:00     -136.229       21.411      -24.019       19.270       24.871       18.056      371.352      618.557      326.020        1.045        0.066      137.902       15.203        0.012      339.400       12.706      871.417
04/30/2014  00:05:00      -47.863      -11.753       -1.292       40.986       28.317       18.438     1679.853      801.863      339.944        0.263        0.141       49.285       18.344        0.139      339.335       12.599      871.435
04/30/2014  00:06:00      -33.228      -13.855       -6.917       17.033       14.384       10.502      290.129      206.887      110.284        0.098        0.030       36.000        3.742        0.011      339.150       12.285      871.446
04/30/2014  00:07:00        6.418        1.791       -7.608        9.712       11.637        6.682       94.322      135.417       44.653        0.019        0.014        6.663        5.203        0.610      339.288       12.518      871.462
04/30/2014  00:08:00      -59.706      -13.926      -10.475       31.685       23.609        8.968     1003.958      557.383       80.428        0.275        0.082       61.309        6.740        0.012      339.345       12.615      871.455
04/30/2014  00:09:00      -53.460      -40.508       -4.626       20.363       20.130       13.395      414.657      405.215      179.439        0.276        0.050       67.074        8.043        0.014      339.118       12.232      871.450
04/30/2014  00:10:00      -22.688      -26.767      -13.000       25.600       22.088       14.691      655.362      487.881      215.825        0.138        0.068       35.088       12.435        0.126      338.992       12.020      871.456
04/30/2014  00:11:00      -23.428      -19.308       -1.006       17.382       20.022       17.325      302.127      400.888      300.169        0.096        0.050       30.359       12.033        0.157      338.913       11.888      871.459
04/30/2014  00:12:00      -75.773      -30.179      -16.644       29.925       19.449       16.389      895.490      378.268      268.592        0.424        0.077       81.562       10.430        0.016      338.889       11.846      871.460
04/30/2014  00:13:00     -100.694      -27.705      -17.060       34.571       25.293       18.622     1195.174      639.730      346.773        0.669        0.109      104.436       11.666        0.012      338.787       11.677      871.455
04/30/2014  00:14:00      -92.685      -18.740       -8.447       24.568       34.887       22.671      603.603     1217.119      513.952        0.567        0.117       94.561       20.763        0.048      338.791       11.682      871.479
04/30/2014  00:15:00      -79.019        6.900      -14.515       27.754       31.598       21.354      770.276      998.454      455.974        0.436        0.111       79.320       17.356        0.048      338.914       11.889      871.488
04/30/2014  00:16:00      -94.379      -24.632      -16.642       21.339       18.682       16.358      455.366      349.033      267.598        0.543        0.054       97.541       12.021        0.015      338.772       11.650      871.484
04/30/2014  00:17:00     -111.118      -29.384      -18.246       33.807       27.648       14.583     1142.897      764.424      212.655        0.783        0.106      114.937       12.899        0.013      338.589       11.343      871.476
04/30/2014  00:18:00      -90.149      -44.219      -16.687       36.163       29.759       24.877     1307.736      885.582      618.842        0.659        0.141      100.410       21.320        0.045      338.642       11.433      871.474
04/30/2014  00:19:00      -22.235      -15.827       -0.915       46.975       29.521       27.956     2206.617      871.487      781.516        0.230        0.193       27.293       22.846        0.701      338.568       11.307      871.480
04/30/2014  00:20:00      -37.658      -50.431        0.015       32.356       43.088       26.855     1046.934     1856.537      721.196        0.379        0.181       62.940       26.972        0.184      338.536       11.254      871.489
04/30/2014  00:21:00     -116.914      -45.092      -15.532       22.769       21.419       21.252      518.423      458.778      451.639        0.869        0.071      125.308       12.838        0.010      338.528       11.240      871.487
04/30/2014  00:22:00     -104.938      -38.435      -19.345       38.418       26.964       21.261     1475.928      727.069      452.049        0.776        0.133      111.755       23.545        0.044      338.581       11.330      871.493
04/30/2014  00:23:00      -94.618       -7.402      -12.949       39.600       28.408       21.252     1568.144      807.040      451.656        0.600        0.141       94.907       19.835        0.044      338.687       11.507      871.496
04/30/2014  00:24:00      -67.538      -55.585       -6.863       30.189       41.126       23.070      911.363     1691.370      532.206        0.542        0.157       87.470       14.447        0.027      338.596       11.353      871.509
04/30/2014  00:25:00      -94.259      -64.363       -6.187       26.826       31.072       21.164      719.610      965.465      447.918        0.760        0.107      114.138       13.839        0.015      338.523       11.232      871.507
04/30/2014  00:26:00     -146.299      -19.731      -24.054       30.334       24.238       18.524      920.147      587.490      343.132        1.211        0.093      147.623       16.909        0.013      338.537       11.256      871.499
04/30/2014  00:27:00     -118.977      -44.703      -19.962       36.284       28.067       16.817     1316.529      787.738      282.807        0.947        0.119      127.098       13.071        0.011      338.504       11.201      871.490
04/30/2014  00:28:00     -111.176      -14.816      -10.260       38.942       34.358       19.069     1516.464     1180.463      363.627        0.787        0.153      112.159       16.388        0.021      338.372       10.979      871.516
04/30/2014  00:29:00     -113.242       14.911      -15.052       36.507       24.923       18.894     1332.796      621.152      356.969        0.779        0.116      114.219       11.720        0.011      338.588       11.341      871.539
04/30/2014  00:30:00     -117.663        4.444      -21.377       23.716       22.110       19.182      562.467      488.838      367.933        0.787        0.071      117.747        8.391        0.005      338.693       11.518      871.531
04/30/2014  00:31:00      -96.591      -25.322      -17.180       24.975       22.687       18.457      623.765      514.718      340.679        0.587        0.074       99.855       15.171        0.023      338.364       10.964      871.538
04/30/2014  00:32:00      -77.451      -45.373      -15.428       20.396       13.373       13.815      415.987      178.830      190.867        0.454        0.039       89.763        8.710        0.009      338.373       10.980      871.559
04/30/2014  00:33:00      -90.540      -49.253       -5.301       45.747       27.682       17.496     2092.811      766.298      306.107        0.691        0.158      103.069       11.243        0.012      338.448       11.108      871.570
04/30/2014  00:34:00     -173.097      -53.344      -19.876       20.356       24.416       11.978      414.378      596.164      143.466        1.718        0.058      181.131        8.483        0.002      338.328       10.906      871.566
04/30/2014  00:35:00     -163.683      -20.332      -22.158       25.881       26.889       22.828      669.833      723.025      521.097        1.480        0.096      164.941       17.339        0.011      338.324       10.899      871.546
04/30/2014  00:36:00     -142.264      -16.911      -17.368       37.448       37.386       24.249     1402.356     1397.750      588.011        1.211        0.169      143.266       22.179        0.024      338.346       10.934      871.542
04/30/2014  00:37:00      -69.332        2.021       -7.969       39.653       20.378       15.897     1572.397      415.264      252.727        0.356        0.112       69.362       11.696        0.028      338.329       10.908      871.546
04/30/2014  00:38:00      -35.679      -39.188       -6.480       15.204       24.403       10.632      231.152      595.530      113.043        0.190        0.047       52.997        3.745        0.005      338.455       11.119      871.545
04/30/2014  00:39:00      -67.071      -45.346      -10.492       35.171       17.307       17.063     1237.014      299.534      291.160        0.425        0.091       80.961       13.922        0.030      338.361       10.958      871.557
04/30/2014  00:40:00      -72.290      -42.128       -6.320       32.585       17.484       13.149     1061.788      305.698      172.887        0.429        0.077       83.670       14.396        0.030      338.266       10.799      871.569
04/30/2014  00:41:00      -99.821      -23.147      -14.203       15.774       12.493        9.625      248.808      156.084       92.636        0.560        0.025      102.469        8.789        0.007      338.226       10.734      871.588
04/30/2014  00:42:00     -109.009      -11.533      -18.437       13.526       11.192        9.562      182.949      125.253       91.425        0.638        0.020      109.617        6.654        0.004      338.193       10.677      871.576
04/30/2014  00:43:00      -99.314      -12.897      -22.529       20.749       17.801       15.410      430.539      316.863      237.469        0.576        0.049      100.148       13.937        0.019      338.298       10.854      871.557
04/30/2014  00:44:00      -98.169      -20.293      -16.581       13.213       13.266       10.116      174.586      175.976      102.325        0.539        0.023      100.245        5.618        0.003      338.500       11.195      871.548
04/30/2014  00:45:00     -136.357      -21.081      -19.384       28.977       27.162       19.143      839.652      737.777      366.472        1.068        0.097      137.977       15.743        0.013      338.084       10.495      871.524
04/30/2014  00:46:00      -44.499      -36.326       -0.471       59.747       28.337       21.014     3569.682      802.980      441.592        0.406        0.241       57.443       23.459        0.167      338.033       10.409      871.538
04/30/2014  00:47:00       -1.652        9.762       -4.969       18.684       28.564       10.989      349.099      815.894      120.769        0.070        0.064        9.901       11.974        1.463      338.444       11.099      871.559
04/30/2014  00:48:00      -57.316      -37.171      -19.450       29.178       37.196       13.708      851.329     1383.532      187.918        0.373        0.121       68.314       11.775        0.030      338.501       11.196      871.544
04/30/2014  00:49:00       -4.791      -63.575      -20.382       14.262       12.594       10.002      203.398      158.619      100.034        0.247        0.023       63.755        8.351        0.017      338.271       10.810      871.566
04/30/2014  00:50:00      -47.468      -27.150      -11.486       18.072       13.561       10.236      326.584      183.913      104.769        0.187        0.031       54.683       10.897        0.040      338.534       11.250      871.557
04/30/2014  00:51:00      -50.078       26.083      -13.904       24.150       17.054       16.251      583.206      290.855      264.090        0.226        0.057       56.464       14.484        0.066      338.620       11.396      871.549
04/30/2014  00:52:00      -42.462       29.251      -14.834       24.352       23.134       10.863      593.012      535.197      118.012        0.206        0.062       51.562       12.650        0.060      339.267       12.483      871.542
04/30/2014  00:53:00      -25.564       -7.187       -4.140       16.885       17.920       12.209      285.093      321.135      149.048        0.074        0.038       26.555        9.020        0.115      339.077       12.162      871.540
04/30/2014  00:54:00      -50.158      -37.442       -9.119       14.397       13.106       10.020      207.270      171.761      100.406        0.224        0.024       62.592        4.958        0.006      338.501       11.195      871.561
04/30/2014  00:55:00        8.245       -5.282       -1.595       33.540       28.130       26.090     1124.906      791.313      680.668        0.135        0.130        9.792       22.405        5.236      339.622       13.082      871.561
04/30/2014  00:56:00      -47.191      -13.539       13.104       71.099       37.895       28.950     5055.078     1435.997      838.081        0.495        0.366       49.095       32.009        0.425      338.764       11.638      871.525
04/30/2014  00:57:00      -63.425        3.860      -15.006       22.075       37.109       10.029      487.297     1377.103      100.571        0.311        0.098       63.543       13.210        0.043      338.541       11.263      871.520
04/30/2014  00:58:00      -31.548       31.472       -4.462       25.254       16.737       10.121      637.748      280.123      102.442        0.151        0.051       44.562        9.120        0.042      339.310       12.557      871.526
04/30/2014  00:59:00      -23.762       59.087      -10.142       21.383       36.033       16.924      457.221     1298.369      286.421        0.310        0.102       63.686       17.310        0.074      339.290       12.521      871.532
04/30/2014  01:00:00      -45.327       57.768      -19.228       21.827       29.907       13.413      476.410      894.403      179.899        0.366        0.078       73.428       13.610        0.034      339.594       13.034      871.524
04/30/2014  01:01:00       -3.052       67.558      -23.696       44.930       21.315       15.055     2018.706      454.341      226.660        0.392        0.135       67.627       16.343        0.058      339.665       13.156      871.508
04/30/2014  01:02:00        9.803       34.591        0.140       34.660       24.163       16.083     1201.298      583.865      258.660        0.167        0.102       35.954       12.580        0.122      339.659       13.145      871.498
04/30/2014  01:03:00       16.436       13.206        6.383       20.602       21.591       14.165      424.431      466.163      200.653        0.079        0.055       21.084       10.820        0.263      339.388       12.687      871.509
04/30/2014  01:04:00       21.349       21.088        3.416       40.683       21.281       17.807     1655.090      452.882      317.086        0.167        0.121       30.008        8.179        0.074      339.474       12.833      871.507
04/30/2014  01:05:00      -47.738      -53.573       -5.667       21.418       21.071       14.571      458.752      443.971      212.314        0.315        0.056       71.757        9.168        0.016      338.822       11.736      871.476
04/30/2014  01:06:00      -93.852      -16.682      -21.639       25.179       18.810       10.110      633.961      353.800      102.209        0.532        0.054       95.323        7.258        0.006      338.704       11.538      871.458
04/30/2014  01:07:00      -67.459      -15.637      -15.815       55.755       19.274        7.490     3108.596      371.494       56.102        0.429        0.177       69.248       11.544        0.028      338.845       11.774      871.470
04/30/2014  01:08:00       20.021      -21.288       12.922       85.836       79.152       42.190     7367.869     6265.077     1780.010        0.821        0.771       29.224       32.500        1.237      339.519       12.909      871.446
04/30/2014  01:09:00       -4.129      107.216      -11.458       21.844       48.574       26.822      477.158     2359.418      719.443        0.760        0.178      107.295       25.382        0.056      339.184       12.344      871.487
04/30/2014  01:10:00      -42.671      108.533      -26.756       29.006       52.475       18.270      841.357     2753.578      333.791        0.912        0.196      116.621       21.258        0.033      339.195       12.362      871.486
04/30/2014  01:11:00      -56.828      -14.031       -6.518       26.883       41.048       15.145      722.693     1684.904      229.372        0.305        0.132       58.535       15.915        0.074      338.791       11.683      871.483
04/30/2014  01:12:00      -78.748      -31.819      -13.440       28.444       32.727       12.405      809.072     1071.028      153.875        0.471        0.102       84.933       10.953        0.017      338.461       11.129      871.487
04/30/2014  01:13:00      -87.992      -36.774      -16.069       21.816       20.618       11.142      475.937      425.108      124.150        0.519        0.051       95.367        7.968        0.007      338.624       11.402      871.501
04/30/2014  01:14:00      -32.972      -23.509        3.805       29.457       22.134       22.995      867.710      489.904      528.754        0.177        0.094       40.495       14.653        0.131      338.493       11.182      871.503
04/30/2014  01:15:00      -90.035      -27.098      -17.161       38.573       27.315       15.602     1487.855      746.119      243.415        0.581        0.124       94.024       19.934        0.045      338.654       11.454      871.495
04/30/2014  01:16:00        4.750       26.744       -5.301       24.913       30.946       14.485      620.639      957.664      209.822        0.128        0.089       27.163       17.216        0.402      339.468       12.821      871.504
04/30/2014  01:17:00       25.974        3.377        9.521       21.017       22.017       11.647      441.735      484.743      135.652        0.092        0.053       26.193        6.457        0.061      339.681       13.181      871.494
04/30/2014  01:18:00      -15.806      -19.375        5.573       27.984       16.456       16.557      783.130      270.792      274.128        0.099        0.066       25.004       17.042        0.465      339.244       12.446      871.486
04/30/2014  01:19:00      -46.785        9.573      -10.118       11.399       12.455        7.925      129.935      155.116       62.813        0.137        0.017       47.754        5.039        0.011      339.516       12.903      871.467
04/30/2014  01:20:00      -19.582       12.622       -6.093       28.752       13.965       10.579      826.702      195.021      111.910        0.086        0.057       23.297       14.452        0.385      339.490       12.861      871.460
04/30/2014  01:21:00       48.815       39.021       26.039       18.440       15.755       19.761      340.039      248.205      390.499        0.278        0.049       62.495       10.310        0.027      339.243       12.442      871.494
04/30/2014  01:22:00       26.544       58.786       -1.848       22.995       19.334       14.847      528.760      373.784      220.421        0.264        0.056       64.501       13.424        0.043      339.207       12.383      871.508
04/30/2014  01:23:00       13.012      109.679      -23.799       20.982       42.115       14.158      440.225     1773.690      200.462        0.759        0.121      110.449       20.189        0.033      339.441       12.776      871.493
04/30/2014  01:24:00      -56.027       42.455      -19.846       39.742       90.686       28.996     1579.404     8223.931      840.751        0.799        0.532       70.296       38.609        0.302      339.131       12.256      871.426
04/30/2014  01:25:00       -7.181      -93.967       -6.031       31.878       38.068       21.098     1016.229     1449.139      445.135        0.591        0.146       94.241       11.854        0.016      338.756       11.623      871.441
04/30/2014  01:26:00       19.006      -65.174       -7.243       41.683       59.209       25.465     1737.493     3505.742      648.462        0.528        0.295       67.889       26.688        0.155      339.144       12.276      871.481
04/30/2014  01:27:00      -26.179       13.839        9.159       30.741       16.545       14.863      944.999      273.740      220.921        0.120        0.072       29.612       17.096        0.333      339.382       12.677      871.479
04/30/2014  01:28:00        8.181       72.618      -11.437       28.097       16.334       15.164      789.431      266.797      229.943        0.338        0.064       73.077       11.706        0.026      339.012       12.054      871.454
04/30/2014  01:29:00       44.763       73.537      -13.469       26.377       34.049       19.948      695.746     1159.347      397.908        0.492        0.113       86.089       18.108        0.044      339.142       12.273      871.455
04/30/2014  01:30:00       22.883       56.399      -13.836       24.294       31.283       15.609      590.218      978.608      243.633        0.285        0.091       60.864       13.819        0.052      339.467       12.819      871.466
04/30/2014  01:31:00       53.941        4.940        1.516       38.481       34.781       19.393     1480.799     1209.747      376.089        0.300        0.153       54.166       10.895        0.040      339.352       12.628      871.462
04/30/2014  01:32:00       45.110       25.153        6.502       26.725       66.098       26.867      714.200     4368.998      721.843        0.426        0.290       51.648       21.120        0.167      339.826       13.424      871.444
04/30/2014  01:33:00       18.541       77.438      -15.499       15.346       38.157       15.043      235.499     1455.946      226.304        0.425        0.096       79.626       13.551        0.029      339.339       12.606      871.458
04/30/2014  01:34:00       45.166       70.393       -6.812       37.487       52.893       18.759     1405.275     2797.651      351.901        0.580        0.228       83.637       23.174        0.077      339.438       12.772      871.440
04/30/2014  01:35:00       51.633      -19.501       10.691       47.514       95.051       35.624     2257.617     9034.695     1269.089        0.786        0.628       55.192       24.801        0.202      339.646       13.123      871.432
04/30/2014  01:36:00      112.086       -0.636       16.642       76.110       79.627       38.644     5792.692     6340.488     1493.322        1.323        0.681      112.088       31.644        0.080      340.052       13.806      871.411
04/30/2014  01:37:00       35.058        3.112       18.780       40.551       36.918       31.392     1644.373     1362.903      985.465        0.279        0.200       35.196       24.819        0.497      339.493       12.864      871.412
04/30/2014  01:38:00       58.485       35.432       60.151       64.091       48.828       33.307     4107.623     2384.198     1109.344        0.795        0.380       68.381       27.792        0.165      340.018       13.750      871.398
04/30/2014  01:39:00       58.284       40.542       27.349       45.442       27.104       24.481     2064.937      734.630      599.328        0.459        0.170       70.998       22.077        0.097      339.678       13.177      871.393
04/30/2014  01:40:00       69.072       30.027       12.274       46.456       23.019       20.359     2158.181      529.890      414.482        0.446        0.155       75.317       16.375        0.047      339.397       12.703      871.390
04/30/2014  01:41:00       94.365       29.656        5.811       37.894       30.245       22.423     1435.973      914.757      502.801        0.634        0.143       98.915       18.663        0.036      339.618       13.075      871.369
04/30/2014  01:42:00      131.925       91.978       11.057       34.500       32.538       28.025     1190.262     1058.751      785.378        1.451        0.152      160.823       15.336        0.009      339.460       12.807      871.377
04/30/2014  01:43:00      110.923       60.756       11.522       55.221       49.550       31.340     3049.369     2455.236      982.174        1.131        0.324      126.472       16.529        0.017      339.452       12.796      871.387
04/30/2014  01:44:00       79.508       54.266       29.719       31.948       28.576       27.383     1020.668      816.571      749.849        0.637        0.129       96.262       13.154        0.019      339.322       12.576      871.382
04/30/2014  01:45:00       83.689       53.612       12.186       21.313       14.867       15.537      454.255      221.014      241.411        0.547        0.046       99.388        5.231        0.003      339.462       12.811      871.370
04/30/2014  01:46:00       97.144       66.512       10.866       39.429       33.290       25.346     1554.631     1108.225      642.429        0.864        0.165      117.732       21.188        0.032      339.569       12.993      871.362
04/30/2014  01:47:00       59.305       26.012       21.634       29.030       24.609       21.261      842.728      605.590      452.034        0.328        0.095       64.759       16.414        0.064      339.324       12.581      871.363
04/30/2014  01:48:00       52.880       16.302       13.405       26.729       26.451       16.632      714.450      699.631      276.636        0.247        0.085       55.336       10.991        0.039      339.531       12.928      871.351
04/30/2014  01:49:00       19.796       -6.083       13.801       37.824       28.400       17.573     1430.623      806.586      308.800        0.158        0.127       20.709       10.797        0.272      339.746       13.292      871.332
04/30/2014  01:50:00       22.378       20.331       26.898       19.877       11.885       15.252      395.077      141.250      232.631        0.120        0.038       30.234        6.013        0.040      339.193       12.359      871.347
04/30/2014  01:51:00       45.525       10.229       21.789       34.416       25.472       21.785     1184.464      648.814      474.599        0.248        0.115       46.660       15.857        0.115      339.315       12.565      871.354
04/30/2014  01:52:00      128.890       -6.338       53.116       99.526      125.566       57.077     9905.347    15766.832     3257.815        2.420        1.446      129.046       49.402        0.147      340.011       13.737      871.338
04/30/2014  01:53:00      117.383       69.697       39.518       70.967       55.402       41.650     5036.277     3069.402     1734.750        1.502        0.492      136.515       25.278        0.034      340.187       14.033      871.303
04/30/2014  01:54:00       31.778       62.379       72.136       79.152       51.920       50.810     6265.094     2695.659     2581.636        1.082        0.577       70.007       47.487        0.460      339.872       13.503      871.325
04/30/2014  01:55:00       16.939       52.961       69.219       33.782       31.506       15.324     1141.226      992.649      234.824        0.513        0.118       55.604       16.436        0.087      339.502       12.878      871.352
04/30/2014  01:56:00       58.708       28.419       39.190       47.637       26.207       23.571     2269.243      686.802      555.597        0.465        0.176       65.225       20.068        0.095      339.520       12.911      871.355
04/30/2014  01:57:00       50.382       23.201        6.684       23.810       18.485       20.461      566.903      341.680      418.663        0.222        0.066       55.467       15.431        0.077      339.480       12.841      871.360
04/30/2014  01:58:00        6.312      -20.453       -0.060       20.432       18.889       13.035      417.467      356.779      169.922        0.070        0.047       21.405        6.641        0.096      339.466       12.818      871.357
04/30/2014  01:59:00       16.463      -13.551        7.020       22.368       21.224       15.863      500.336      450.459      251.638        0.085        0.060       21.323       16.838        0.624      339.300       12.539      871.360
04/30/2014  02:00:00       10.337        3.888       16.966       17.193        7.653        8.533      295.596       58.569       72.820        0.042        0.021       11.044        7.570        0.470      339.350       12.623      871.364
04/30/2014  02:01:00       37.507       10.816        8.145       20.562       24.174       11.567      422.809      584.402      133.794        0.137        0.057       39.035        7.348        0.035      339.457       12.802      871.356
04/30/2014  02:02:00       59.548       41.293       28.321       27.226       23.632       25.949      741.249      558.488      673.327        0.401        0.099       72.464       16.495        0.052      339.379       12.671      871.368
04/30/2014  02:03:00      103.537       38.503       12.530       40.718       29.777       22.012     1657.965      886.678      484.545        0.769        0.151      110.464       14.691        0.018      339.492       12.861      871.378
04/30/2014  02:04:00       93.128       20.991       29.787       41.771       32.803       28.666     1744.847     1076.061      821.741        0.682        0.182       95.465       19.145        0.040      339.561       12.977      871.354
04/30/2014  02:05:00       74.936       -9.263       15.809       47.290       36.656       24.797     2236.324     1343.637      614.904        0.507        0.210       75.506       11.355        0.023      339.624       13.086      871.334
04/30/2014  02:06:00       18.877       22.378       23.039       29.530       23.883       17.960      872.028      570.382      322.561        0.158        0.088       29.277       12.115        0.171      339.495       12.866      871.315
04/30/2014  02:07:00       61.862       26.065       26.816       33.473       34.445       21.417     1120.427     1186.439      458.668        0.399        0.138       67.129       20.057        0.089      339.470       12.825      871.312
04/30/2014  02:08:00       72.182       27.908       13.751       50.746       26.738       21.086     2575.154      714.914      444.633        0.496        0.187       77.390       14.258        0.034      339.376       12.667      871.319
04/30/2014  02:09:00       61.534       41.407        3.218       28.049       18.171       16.260      786.763      330.182      264.403        0.345        0.069       74.168       13.808        0.035      339.241       12.440      871.324
04/30/2014  02:10:00       80.868       44.021        9.976       16.670       19.174       13.161      277.900      367.647      173.204        0.470        0.041       92.073        5.087        0.003      339.304       12.545      871.327
04/30/2014  02:11:00       58.540       29.316       20.969       30.457       24.827       23.368      927.645      616.403      546.075        0.341        0.105       65.470       15.641        0.057      339.327       12.585      871.321
04/30/2014  02:12:00       81.352       24.837       18.406       44.402       28.786       24.708     1971.570      828.615      610.485        0.549        0.171       85.059       15.732        0.034      339.413       12.729      871.309
04/30/2014  02:13:00       64.105       27.036       17.532       38.592       17.844       18.721     1489.341      318.413      350.484        0.365        0.108       69.573       21.494        0.095      339.362       12.644      871.302
04/30/2014  02:14:00       45.834       19.975        4.083       21.687       13.005       15.039      470.321      169.126      226.175        0.169        0.043       49.998        5.130        0.011      339.289       12.521      871.303
04/30/2014  02:15:00       35.832        4.023        3.515       14.592        9.886        8.527      212.935       97.734       72.717        0.085        0.019       36.057        6.620        0.034      339.197       12.365      871.312
04/30/2014  02:16:00       21.556        0.717       -4.483        8.403        4.438        3.607       70.619       19.700       13.010        0.029        0.005       21.567        1.934        0.008      339.332       12.591      871.321
04/30/2014  02:17:00      -16.868      -11.215        5.619       12.828        9.117       14.604      164.548       83.119      213.262        0.045        0.023       20.256       10.604        0.274      339.079       12.169      871.340
04/30/2014  02:18:00      -43.374      -35.980      -14.900       15.001       11.453        6.684      225.039      131.174       44.682        0.190        0.020       56.355        6.533        0.013      338.303       10.863      871.350
04/30/2014  02:19:00       -7.714       17.916       -5.522       21.248       20.109       10.832      451.477      404.368      117.323        0.069        0.049       19.506       12.326        0.399      339.273       12.493      871.351
04/30/2014  02:20:00       -9.447       21.391        0.806       22.083       20.798       10.725      487.645      432.566      115.029        0.079        0.052       23.385        9.895        0.179      339.347       12.619      871.338
04/30/2014  02:21:00      -30.542       15.898       -9.750       18.137       19.124       14.892      328.952      365.734      221.777        0.110        0.046       34.432       12.075        0.123      338.889       11.848      871.312
04/30/2014  02:22:00      -20.781       34.638      -10.142       25.673       19.815       15.431      659.104      392.646      238.104        0.151        0.064       40.394        8.593        0.045      339.403       12.713      871.316
04/30/2014  02:23:00      -22.696       27.227       -2.207       15.967       33.161       11.107      254.951     1099.622      123.374        0.137        0.074       35.446        9.841        0.077      339.177       12.331      871.307
04/30/2014  02:24:00        1.381       31.290        0.009       19.173       20.664       12.437      367.612      426.981      154.675        0.096        0.047       31.320        8.641        0.076      338.985       12.010      871.318
04/30/2014  02:25:00      -16.030       88.105      -18.145       18.888       22.136        9.004      356.740      489.981       81.073        0.464        0.046       89.551        9.404        0.011      339.250       12.454      871.324
04/30/2014  02:26:00      -23.005       35.787       -5.280       26.123       37.694       16.683      682.434     1420.858      278.337        0.211        0.119       42.544       20.326        0.228      338.901       11.868      871.295
04/30/2014  02:27:00       32.414       66.314      -12.837       28.393       37.876       20.059      806.175     1434.584      402.363        0.413        0.132       73.812       14.898        0.041      339.217       12.398      871.300
04/30/2014  02:28:00       24.060       61.192      -10.670       26.871       27.794       19.312      722.050      772.505      372.961        0.315        0.093       65.752       18.307        0.078      339.143       12.274      871.292
04/30/2014  02:29:00       14.548       46.068       -0.658       25.161       37.238       19.530      633.061     1386.650      381.415        0.237        0.120       48.311       21.593        0.200      339.106       12.211      871.288
04/30/2014  02:30:00        6.306       15.395       -4.336       19.585       32.697       19.096      383.565     1069.066      364.647        0.106        0.091       16.637       12.100        0.529      338.971       11.986      871.285
04/30/2014  02:31:00       31.975       27.244       -0.900       21.421       20.291       16.171      458.870      411.732      261.507        0.145        0.057       42.008        9.406        0.050      338.779       11.662      871.294
04/30/2014  02:32:00        6.095       21.026       -8.501       26.763       31.417       16.443      716.275      987.054      270.373        0.126        0.099       21.891       13.943        0.406      338.831       11.750      871.290
04/30/2014  02:33:00       -6.975       54.238       -4.360       25.196       24.204       10.406      634.836      585.821      108.295        0.217        0.066       54.685       12.499        0.052      339.221       12.404      871.260
04/30/2014  02:34:00      -32.217       51.862      -21.761       46.784       32.882       18.774     2188.754     1081.219      352.451        0.391        0.181       61.054       15.280        0.063      338.975       11.992      871.222
04/30/2014  02:35:00       -1.040       46.373       -5.202       34.182       44.957       19.607     1168.422     2021.088      384.451        0.288        0.179       46.385       22.658        0.239      339.197       12.366      871.211
04/30/2014  02:36:00       14.859      -25.119       10.839       17.758       34.438       22.785      315.342     1185.985      519.139        0.149        0.101       29.185       18.053        0.383      338.176       10.649      871.246
04/30/2014  02:37:00       39.741       -2.068        7.079       45.875       24.360       13.547     2104.551      593.397      183.528        0.226        0.144       39.795       10.046        0.064      338.534       11.251      871.242
04/30/2014  02:38:00       79.127       38.387        6.974       28.659       21.296       19.033      821.322      453.503      362.240        0.471        0.082       87.947        9.472        0.012      339.070       12.152      871.237
04/30/2014  02:39:00       21.947        8.276        0.798       47.263       19.893       17.792     2233.782      395.728      316.560        0.175        0.147       23.455        9.567        0.166      338.943       11.939      871.228
04/30/2014  02:40:00       68.856       36.184        1.409       31.207       33.550       17.767      973.880     1125.587      315.656        0.423        0.121       77.785        7.523        0.009      339.010       12.051      871.228
04/30/2014  02:41:00       31.485       -4.298       15.773       20.055       15.533       13.300      402.221      241.284      176.887        0.104        0.041       31.777       11.136        0.123      338.605       11.370      871.249
04/30/2014  02:42:00       49.482       23.519       11.389       29.291       31.294       16.805      857.966      979.335      282.391        0.263        0.106       54.787       14.010        0.065      339.100       12.202      871.229
04/30/2014  02:43:00       92.949       64.854        5.225       49.832       40.454       34.271     2483.238     1636.507     1174.513        0.908        0.265      113.338       22.549        0.040      339.112       12.222      871.227
04/30/2014  02:44:00       30.227       -5.638       -9.272       37.899       28.149       22.093     1436.307      792.353      488.103        0.187        0.136       30.748       14.140        0.211      338.854       11.788      871.235
04/30/2014  02:45:00       73.516       18.803       27.820       46.309       32.557       25.615     2144.559     1059.943      656.141        0.520        0.193       75.883       20.105        0.070      339.004       12.038      871.239
04/30/2014  02:46:00       91.027       49.370       39.295       47.277       41.759       29.808     2235.076     1743.825      888.505        0.857        0.243      103.554       26.634        0.066      339.132       12.256      871.238
04/30/2014  02:47:00       78.348       56.540       18.189       31.922       29.143       21.221     1019.032      849.303      450.329        0.599        0.116       96.619        6.802        0.005      339.086       12.179      871.234
04/30/2014  02:48:00       59.922       42.110       -1.890       25.306       29.793       21.592      640.414      887.630      466.207        0.368        0.100       73.238       16.817        0.053      338.992       12.021      871.241
04/30/2014  02:49:00       86.293       55.907       10.794       21.275       21.302       24.626      452.646      453.785      606.422        0.610        0.076      102.821       11.994        0.014      338.746       11.607      871.245
04/30/2014  02:50:00       54.230       57.073       -2.010       38.024       33.923       29.632     1445.807     1150.797      878.033        0.484        0.174       78.728       18.234        0.054      338.958       11.964      871.225
04/30/2014  02:51:00       65.434       39.142       10.455       40.798       27.729       28.578     1664.489      768.876      816.713        0.459        0.163       76.248       14.732        0.037      338.916       11.893      871.223
04/30/2014  02:52:00       72.888       34.480        8.638       42.683       30.933       19.789     1821.846      956.876      391.605        0.487        0.159       80.632       18.874        0.055      338.781       11.665      871.229
04/30/2014  02:53:00       74.453      -16.915       14.314       44.460       43.596       32.250     1976.657     1900.628     1040.056        0.547        0.246       76.350       27.315        0.128      338.876       11.826      871.240
04/30/2014  02:54:00       32.405       31.506       47.314       31.668       28.069       19.190     1002.889      787.841      368.266        0.322        0.108       45.196       17.536        0.151      338.848       11.779      871.237
04/30/2014  02:55:00       38.918       20.335       13.409       22.556       25.033       24.021      508.769      626.636      576.993        0.191        0.086       43.910       17.961        0.167      338.912       11.884      871.225
04/30/2014  02:56:00       24.306       14.837       10.418       18.402       18.921        9.681      338.620      358.016       93.716        0.085        0.040       28.477        7.161        0.063      338.811       11.715      871.216
04/30/2014  02:57:00       24.777       60.474       -2.078       31.577       35.256       17.600      997.136     1243.011      309.754        0.341        0.127       65.353       24.219        0.137      338.947       11.946      871.230
04/30/2014  02:58:00       69.150       67.208        0.153       72.389       34.150       29.922     5240.103     1166.215      895.313        0.830        0.365       96.430       23.833        0.061      339.007       12.045      871.229
04/30/2014  02:59:00      102.243       58.160       10.358       53.745       39.695       30.594     2888.559     1575.660      935.982        0.967        0.270      117.628       18.935        0.026      338.859       11.796      871.232
04/30/2014  03:00:00      110.909       74.797       21.865       30.366       28.150       25.737      922.114      792.450      662.408        1.037        0.119      133.773       16.610        0.015      339.085       12.176      871.226
04/30/2014  03:01:00       53.662       19.476       18.795       40.381       25.306       20.938     1630.659      640.396      438.407        0.316        0.135       57.087        7.520        0.017      338.846       11.775      871.230
04/30/2014  03:02:00       67.673       46.427       19.361       47.308       34.289       25.863     2238.026     1175.763      668.906        0.560        0.204       82.068       16.568        0.041      339.140       12.269      871.227
04/30/2014  03:03:00       83.959       60.458       17.347       41.544       30.006       25.157     1725.896      900.362      632.900        0.713        0.163      103.461       20.039        0.038      339.052       12.121      871.222
04/30/2014  03:04:00       69.578       47.945       19.915       42.849       34.177       26.890     1835.996     1168.082      723.056        0.563        0.186       84.498       18.524        0.048      338.895       11.857      871.223
04/30/2014  03:05:00       49.919        7.639        7.434       24.148       21.267       23.604      583.115      452.281      557.129        0.210        0.080       50.500        7.681        0.023      338.719       11.561      871.222
04/30/2014  03:06:00       50.197       40.836        6.351       31.919       24.613       15.928     1018.803      605.809      253.695        0.305        0.094       64.709        8.953        0.019      338.901       11.868      871.226
04/30/2014  03:07:00       42.817       63.162       -4.553       35.208       32.303       21.599     1239.571     1043.512      466.507        0.430        0.137       76.307       22.457        0.087      338.899       11.864      871.252
04/30/2014  03:08:00       16.302      105.991      -19.470       30.360       37.803       15.501      921.757     1429.048      240.289        0.723        0.130      107.238       13.850        0.017      339.059       12.134      871.260
04/30/2014  03:09:00       64.418       59.387       -3.093       39.041       37.958       29.163     1524.182     1440.839      850.499        0.575        0.191       87.615       24.511        0.078      339.039       12.099      871.279
04/30/2014  03:10:00       44.514       99.892      -13.965       33.905       38.373       22.955     1149.560     1472.468      526.916        0.765        0.157      109.361       23.639        0.047      339.047       12.112      871.283
04/30/2014  03:11:00       26.675      106.423      -21.162       29.806       53.254       13.872      888.415     2836.012      192.440        0.820        0.196      109.716       16.815        0.023      339.053       12.123      871.263
04/30/2014  03:12:00       26.558      118.904      -18.390       64.539       55.500       33.564     4165.310     3080.237     1126.574        1.178        0.419      121.834       38.174        0.098      339.072       12.156      871.247
04/30/2014  03:13:00       81.348      101.924       -1.779       92.986       57.934       43.648     8646.359     3356.292     1905.172        1.546        0.695      130.407       43.337        0.110      339.146       12.277      871.232
04/30/2014  03:14:00       89.511       84.057       15.069       74.311       61.728       46.181     5522.168     3810.344     2132.687        1.338        0.573      122.792       26.607        0.047      339.160       12.302      871.245
04/30/2014  03:15:00       35.161       27.356       12.649       47.938       37.928       23.334     2298.082     1438.550      544.493        0.321        0.214       44.549       23.014        0.267      338.849       11.781      871.268
04/30/2014  03:16:00      109.941       51.324       18.903       71.201       38.657       32.277     5069.565     1494.352     1041.829        1.134        0.380      121.330       22.975        0.036      338.762       11.635      871.294
04/30/2014  03:17:00       38.338       53.058       -2.028       38.437       40.129       22.983     1477.435     1610.353      528.228        0.395        0.181       65.459       22.500        0.118      338.688       11.510      871.288
04/30/2014  03:18:00       56.274       89.531       -5.285       62.964       72.564       41.457     3964.431     5265.507     1718.712        1.108        0.547      105.747       35.122        0.110      338.865       11.807      871.281
04/30/2014  03:19:00       88.417       50.756        8.300       67.238       36.291       31.163     4520.996     1317.035      971.155        0.863        0.340      101.949       17.940        0.031      338.864       11.804      871.285
04/30/2014  03:20:00       54.865       48.982       -2.049       28.103       52.008       27.492      789.792     2704.832      755.806        0.483        0.213       73.549       29.796        0.164      338.863       11.803      871.281
04/30/2014  03:21:00       37.190       11.043        8.083       27.355       26.531       19.294      748.273      703.896      372.241        0.170        0.091       38.795       12.174        0.098      338.684       11.503      871.270
04/30/2014  03:22:00       77.601       52.388       14.502       29.689       18.356       22.326      881.459      336.953      498.453        0.535        0.086       93.629       14.216        0.023      338.707       11.541      871.265
04/30/2014  03:23:00       51.249       61.521        1.140       27.256       21.347       21.027      742.876      455.698      442.122        0.403        0.082       80.070       11.396        0.020      338.880       11.832      871.248
04/30/2014  03:24:00       22.134       95.325      -14.928       28.333       27.449       15.656      802.732      753.429      245.114        0.580        0.090       97.861       13.215        0.018      338.841       11.765      871.256
04/30/2014  03:25:00       90.010       90.998       10.556       64.190       38.556       37.019     4120.379     1486.577     1370.389        1.173        0.349      127.993       23.254        0.033      338.808       11.711      871.261
04/30/2014  03:26:00       89.145       37.439       16.246       41.007       30.130       32.214     1681.598      907.808     1037.743        0.662        0.181       96.687       12.139        0.016      338.721       11.565      871.273
04/30/2014  03:27:00       25.960        8.570        5.488       21.778       17.750       15.894      474.293      315.065      252.620        0.091        0.052       27.338        8.704        0.101      338.581       11.331      871.272
04/30/2014  03:28:00       77.234       17.487       10.109       24.056       33.272       19.988      578.685     1107.046      399.525        0.423        0.104       79.189       10.309        0.017      338.699       11.527      871.294
04/30/2014  03:29:00       19.774       48.391      -15.593       30.969       25.275       18.498      959.065      638.804      342.166        0.246        0.097       52.275       18.772        0.129      338.726       11.574      871.275
04/30/2014  03:30:00       58.431       62.760       -3.722       41.662       33.571       25.595     1735.681     1127.043      655.128        0.544        0.176       85.750       11.083        0.017      338.784       11.671      871.258
04/30/2014  03:31:00       63.818       44.220       -0.376       36.188       30.198       21.916     1309.588      911.913      480.310        0.436        0.135       77.641       13.025        0.028      338.705       11.538      871.288
04/30/2014  03:32:00       66.379       42.671       19.138       32.603       25.215       25.590     1062.978      635.777      654.849        0.447        0.118       78.911       20.105        0.065      338.691       11.516      871.300
04/30/2014  03:33:00       48.532       47.251       26.986       34.306       17.014       14.890     1176.894      289.473      221.709        0.350        0.084       67.735        9.610        0.020      338.679       11.495      871.295
04/30/2014  03:34:00       51.589        9.912       19.259       35.347       39.658       20.285     1249.421     1572.767      411.479        0.318        0.162       52.533       18.201        0.120      338.447       11.105      871.299
04/30/2014  03:35:00       76.305       28.350       20.513       36.246       28.939       19.821     1313.775      837.476      392.864        0.480        0.127       81.401       15.032        0.034      338.669       11.477      871.286
04/30/2014  03:36:00      129.898       44.180       12.230       55.656       48.019       26.207     3097.635     2305.780      686.791        1.253        0.305      137.206       10.666        0.006      338.918       11.897      871.305
04/30/2014  03:37:00      -16.324      -19.650       10.803       30.741       33.954       20.774      945.016     1152.887      431.576        0.165        0.126       25.546       10.505        0.169      338.918       11.896      871.281
04/30/2014  03:38:00       11.477      -34.627        9.016       21.711       48.779       18.907      471.376     2379.373      357.476        0.231        0.160       36.480       18.639        0.261      338.839       11.762      871.297
04/30/2014  03:39:00       78.908       -7.897       36.520       58.707       76.195       46.210     3446.544     5805.635     2135.333        0.950        0.569       79.302       46.948        0.350      338.967       11.978      871.306
04/30/2014  03:40:00       55.474       38.931       70.328       48.625       49.234       30.231     2364.379     2424.004      913.886        0.762        0.285       67.772       25.282        0.139      338.908       11.880      871.301
04/30/2014  03:41:00       77.675        0.332       36.933       49.399       53.181       33.678     2440.252     2828.229     1134.179        0.690        0.320       77.675       32.822        0.179      338.862       11.803      871.298
04/30/2014  03:42:00       63.553        7.240       23.871       50.276       44.233       30.022     2527.637     1956.599      901.326        0.502        0.269       63.964       26.403        0.170      338.901       11.868      871.305
04/30/2014  03:43:00       74.623       67.820       76.863       60.432       52.193       42.843     3651.968     2724.146     1835.491        1.214        0.411      100.837       35.401        0.123      338.760       11.630      871.348
04/30/2014  03:44:00       66.725        8.891       12.221       42.819       32.220       27.542     1833.501     1038.122      758.538        0.415        0.182       67.315       25.505        0.144      338.766       11.641      871.354
04/30/2014  03:45:00       96.798        4.349        9.994       55.422       58.100       30.457     3071.571     3375.569      927.639        0.843        0.369       96.896        9.271        0.009      338.695       11.520      871.351
04/30/2014  03:46:00      160.044       44.048       42.889       96.025       55.197       53.035     9220.809     3046.737     2812.706        2.223        0.754      165.995       51.143        0.095      338.772       11.648      871.358
04/30/2014  03:47:00       63.588       49.995       64.772       50.879       53.142       41.695     2588.715     2824.091     1738.502        0.894        0.358       80.888       33.657        0.173      338.874       11.823      871.364
04/30/2014  03:48:00       29.238       13.120       34.664       39.341       45.529       23.584     1547.676     2072.931      556.227        0.320        0.209       32.047       19.015        0.352      338.846       11.772      871.368
04/30/2014  03:49:00        1.033      -58.255        7.476       31.934       58.434       26.109     1019.797     3414.535      681.706        0.428        0.256       58.264       15.444        0.070      338.838       11.763      871.337
04/30/2014  03:50:00      129.086       48.211       23.882      111.334       52.824       46.778    12395.230     2790.400     2188.192        1.846        0.869      137.795       44.197        0.103      338.975       11.990      871.359
04/30/2014  03:51:00      138.506       65.783       35.894      100.423       83.091       68.130    10084.801     6904.143     4641.665        2.321        1.082      153.334       51.599        0.113      338.912       11.884      871.384
04/30/2014  03:52:00       28.320      -57.656        5.279       39.086       77.713       30.936     1527.698     6039.260      957.062        0.634        0.426       64.236       10.126        0.025      339.088       12.180      871.374
04/30/2014  03:53:00       16.028      -12.132        3.048       22.485       44.339       23.182      505.554     1965.974      537.400        0.171        0.150       20.102       20.901        1.081      339.043       12.107      871.364
04/30/2014  03:54:00        9.492       14.011       25.669       17.977       24.045       19.543      323.170      578.148      381.925        0.111        0.064       16.924       18.071        1.140      338.773       11.653      871.384
04/30/2014  03:55:00       56.150       33.500       33.769       51.558       43.325       23.071     2658.199     1877.076      532.267        0.524        0.253       65.384       27.857        0.182      338.883       11.838      871.381
04/30/2014  03:56:00       65.656       44.031       32.799       43.189       32.547       26.385     1865.291     1059.280      696.168        0.547        0.181       79.054       26.202        0.110      338.979       11.997      871.385
04/30/2014  03:57:00       77.496       36.951       41.878       39.724       38.733       35.456     1577.983     1500.236     1257.112        0.673        0.217       85.855       26.352        0.094      338.943       11.939      871.378
04/30/2014  03:58:00       16.572       45.861       31.304       33.283       32.641       23.034     1107.757     1065.414      530.554        0.303        0.135       48.764       13.278        0.074      338.982       12.003      871.361
04/30/2014  03:59:00       40.870       25.641       13.402       27.035       21.588       15.013      730.865      466.063      225.397        0.196        0.071       48.247       10.786        0.050      338.965       11.974      871.354
04/30/2014  04:00:00       83.702       34.488       26.815       29.173       21.842       19.935      851.067      477.059      397.410        0.532        0.086       90.529       15.085        0.028      338.937       11.927      871.366
04/30/2014  04:01:00       65.259       12.972        9.840       35.632       27.277       23.619     1269.666      744.048      557.843        0.355        0.129       66.535       20.268        0.093      339.117       12.232      871.365
04/30/2014  04:02:00       61.293        6.231       13.303       48.887       48.815       32.189     2389.927     2382.895     1036.130        0.489        0.290       61.609       26.071        0.179      339.128       12.249      871.363
04/30/2014  04:03:00      102.401       34.438       31.838       49.840       80.374       42.654     2483.988     6459.938     1819.349        1.172        0.538      108.037       23.605        0.048      339.246       12.449      871.359
04/30/2014  04:04:00       15.143       26.039       39.508       39.057       36.027       23.603     1525.474     1297.978      557.111        0.292        0.169       30.122       22.737        0.570      339.056       12.128      871.365
04/30/2014  04:05:00       -1.763       39.469       62.780       19.207       29.794       15.709      368.905      887.706      246.786        0.350        0.075       39.509       12.423        0.099      338.830       11.746      871.380
04/30/2014  04:06:00        5.059       30.728       50.173       28.178       45.735       30.414      793.982     2091.650      925.017        0.365        0.191       31.142       28.819        0.856      338.833       11.754      871.369
04/30/2014  04:07:00       52.679       -3.109       31.794       50.555       39.858       22.865     2555.810     1588.678      522.824        0.423        0.233       52.771       20.543        0.152      338.947       11.944      871.374
04/30/2014  04:08:00       62.977      -37.332       20.267       63.062       78.230       32.735     3976.808     6119.975     1071.563        0.847        0.558       73.211       43.792        0.358      339.096       12.195      871.373
04/30/2014  04:09:00       81.192       56.126       61.623       86.924       71.585       49.553     7555.810     5124.391     2455.543        1.433        0.757       98.703       54.232        0.302      339.178       12.331      871.351
04/30/2014  04:10:00       93.788        7.214       49.208       74.611       72.027       52.771     5566.829     5187.933     2784.823        1.240        0.677       94.065       55.036        0.342      339.131       12.252      871.367
04/30/2014  04:11:00       63.435      101.213      116.165       76.580       73.320       59.633     5864.564     5375.825     3556.119        2.128        0.740      119.449       57.345        0.230      339.036       12.094      871.383
04/30/2014  04:12:00       92.996       98.836      121.891       76.783       82.028       55.810     5895.699     6728.634     3114.783        2.450        0.787      135.708       54.955        0.164      339.322       12.574      871.340
04/30/2014  04:13:00      100.052      120.490      105.462       90.831       73.114       49.906     8250.253     5345.610     2490.658        2.587        0.804      156.615       39.778        0.065      339.202       12.373      871.332
04/30/2014  04:14:00       36.841       36.834       71.636       40.478       59.272       42.236     1638.501     3513.138     1783.906        0.739        0.347       52.096       41.908        0.647      339.159       12.302      871.331
04/30/2014  04:15:00       45.331       41.513       61.166       53.896       47.537       42.737     2904.797     2259.790     1826.456        0.725        0.350       61.467       32.577        0.281      339.046       12.111      871.313
04/30/2014  04:16:00       99.663       88.192       86.002       65.867       55.960       50.879     4338.419     3131.575     2588.712        1.758        0.503      133.081       36.160        0.074      339.094       12.190      871.308
04/30/2014  04:17:00      109.726      -23.613       33.330       72.601       70.184       55.676     5270.935     4925.746     3099.836        1.350        0.665      112.238       56.284        0.251      339.230       12.421      871.304
04/30/2014  04:18:00       73.318        5.363       64.719       63.212       79.296       40.513     3995.790     6287.920     1641.291        1.076        0.596       73.514       40.615        0.305      339.144       12.277      871.316
04/30/2014  04:19:00       64.222      -28.755       32.251       57.651       83.028       45.314     3323.689     6893.674     2053.360        0.913        0.614       70.366       49.752        0.500      339.152       12.289      871.333
04/30/2014  04:20:00       77.798      -63.039       13.747       43.493       86.698       39.108     1891.633     7516.513     1529.416        1.057        0.547      100.132       30.705        0.094      339.184       12.342      871.335
04/30/2014  04:21:00       28.704      -19.186       25.715       55.159       69.884       38.949     3042.507     4883.807     1517.060        0.565        0.472       34.526       23.865        0.478      339.078       12.167      871.349
04/30/2014  04:22:00       27.144       18.190       57.194       46.653       34.046       31.747     2176.495     1159.105     1007.888        0.434        0.217       32.675        9.654        0.087      339.080       12.168      871.350
04/30/2014  04:23:00       28.436      -26.658       15.281       32.136       24.064       17.862     1032.743      579.071      319.053        0.184        0.097       38.978       18.553        0.227      339.023       12.072      871.336
04/30/2014  04:24:00       26.972       28.732       44.644       25.054       28.035       18.283      627.698      785.982      334.265        0.265        0.087       39.408       15.913        0.163      338.976       11.994      871.338
04/30/2014  04:25:00       14.131      -25.345       15.150       43.973       38.284       28.216     1933.656     1465.639      796.127        0.263        0.210       29.018       28.545        0.968      338.952       11.951      871.332
04/30/2014  04:26:00       44.611      -22.294       29.070       51.744       58.373       38.974     2677.484     3407.444     1518.980        0.547        0.380       49.872       40.081        0.646      338.910       11.883      871.336
04/30/2014  04:27:00       37.279      -58.256       46.703       51.002      123.030       58.898     2601.243    15136.271     3468.923        1.408        1.060       69.163       78.425        1.286      339.173       12.324      871.338
04/30/2014  04:28:00       61.147       -5.533       52.673       63.900       74.805       54.659     4083.193     5595.761     2987.646        0.960        0.633       61.397       62.168        1.025      339.124       12.242      871.348
04/30/2014  04:29:00      121.735      -92.160       14.189       54.408       62.342       43.711     2960.283     3886.548     1910.615        1.613        0.438      152.686       36.598        0.057      339.171       12.320      871.331
04/30/2014  04:30:00       68.937      -44.359       43.500       57.893       84.751       47.645     3351.609     7182.696     2270.050        1.071        0.640       81.976       52.473        0.410      339.207       12.383      871.325
04/30/2014  04:31:00       42.917       -2.889       24.610       34.391       63.240       37.925     1182.754     3999.311     1438.341        0.454        0.331       43.014       38.531        0.802      339.082       12.172      871.336
04/30/2014  04:32:00       96.436       61.678       65.149       45.843       45.923       36.664     2101.540     2108.943     1344.266        1.145        0.278      114.473       25.737        0.051      339.037       12.095      871.351
04/30/2014  04:33:00       90.162       82.359       58.400       51.054       60.982       52.492     2606.500     3718.824     2755.448        1.370        0.454      122.116       45.830        0.141      339.018       12.065      871.364
04/30/2014  04:34:00       70.005       68.248       70.313       49.053       37.499       32.099     2406.215     1406.146     1030.330        0.967        0.242       97.767       22.037        0.051      339.071       12.153      871.374
04/30/2014  04:35:00       74.771       46.124       60.304       47.126       38.414       34.950     2220.901     1475.633     1221.503        0.814        0.246       87.853       31.336        0.127      339.093       12.188      871.371
04/30/2014  04:36:00       54.365       44.092       42.934       38.823       31.282       31.125     1507.197      978.582      968.764        0.510        0.173       69.997       23.372        0.111      339.031       12.085      871.382
04/30/2014  04:37:00       74.751       38.590       22.078       23.297       21.026       26.587      542.743      442.103      706.856        0.463        0.085       84.125       18.084        0.046      339.009       12.049      871.378
04/30/2014  04:38:00       13.973       40.298       46.554       23.308       23.340       15.138      543.254      544.738      229.157        0.265        0.066       42.652        1.380        0.001      338.891       11.851      871.376
04/30/2014  04:39:00        8.632       19.450       41.543       14.131       15.939        8.284      199.676      254.059       68.632        0.135        0.026       21.280        8.594        0.163      338.809       11.713      871.379
04/30/2014  04:40:00       36.258       24.679       18.645       20.992       19.133       17.620      440.643      366.058      310.453        0.169        0.056       43.861       12.971        0.087      338.838       11.762      871.383
04/30/2014  04:41:00       46.680       28.205        9.494       22.790       21.715       14.838      519.398      471.549      220.177        0.214        0.061       54.539       14.515        0.071      338.974       11.988      871.395
04/30/2014  04:42:00       27.696      -20.985        7.886       17.585       30.270       12.672      309.218      916.263      160.590        0.133        0.069       34.748       10.871        0.098      339.036       12.094      871.405
04/30/2014  04:43:00        2.463       24.257       39.289       13.044       28.896       20.848      170.145      834.984      434.631        0.179        0.072       24.382       17.955        0.542      338.812       11.718      871.419
04/30/2014  04:44:00        9.788       23.213       36.474       22.937       34.387       32.078      526.128     1182.486     1029.017        0.235        0.137       25.192       30.479        1.464      338.631       11.415      871.426
04/30/2014  04:45:00        0.624       21.523       49.214       23.825       29.159       23.782      567.623      850.249      565.568        0.243        0.099       21.532       25.132        1.362      338.783       11.668      871.441
04/30/2014  04:46:00       14.498       28.580       42.300       20.637       16.625       16.539      425.877      276.385      273.536        0.190        0.049       32.047       10.760        0.113      338.527       11.238      871.447
04/30/2014  04:47:00        0.977       -1.061        9.571        9.252       12.090        8.536       85.607      146.158       72.856        0.020        0.015        1.442        3.001        4.330      338.451       11.112      871.450
04/30/2014  04:48:00       52.268       22.193       12.697       16.882       15.851       15.650      285.014      251.243      244.912        0.208        0.039       56.785       12.650        0.050      338.444       11.099      871.449
04/30/2014  04:49:00       69.028       -0.891       23.501       58.995       35.232       33.023     3480.424     1241.281     1090.496        0.556        0.291       69.033       33.954        0.242      338.646       11.439      871.449
04/30/2014  04:50:00       44.665       39.462       43.498       32.666       26.326       29.405     1067.093      693.051      864.643        0.403        0.131       59.600       29.032        0.237      338.597       11.357      871.457
04/30/2014  04:51:00        4.722       52.750       78.280       25.015       33.831       23.987      625.762     1144.566      575.362        0.564        0.117       52.961       23.268        0.193      338.850       11.781      871.467
04/30/2014  04:52:00       55.417       -9.891       35.259       44.583       45.924       33.335     1987.668     2109.053     1111.208        0.481        0.260       56.293       32.044        0.324      338.802       11.701      871.469
04/30/2014  04:53:00       65.407      -54.964       20.366       42.715       66.745       39.484     1824.588     4454.852     1559.024        0.777        0.392       85.435       43.739        0.262      338.874       11.822      871.456
04/30/2014  04:54:00      101.754     -124.930       -2.708       49.681       61.753       37.363     2468.212     3813.383     1396.018        1.682        0.384      161.125       40.010        0.062      339.041       12.101      871.429
04/30/2014  04:55:00       28.024        6.157       64.119       35.268       74.016       40.669     1243.820     5478.314     1654.003        0.665        0.419       28.692       45.150        2.476      338.829       11.747      871.424
04/30/2014  04:56:00       45.933       77.438       90.681       47.431       31.710       25.778     2249.715     1005.543      664.483        1.012        0.196       90.036       21.770        0.058      338.781       11.667      871.406
04/30/2014  04:57:00       31.536       59.843       57.604       40.473       27.995       31.800     1638.027      783.706     1011.223        0.566        0.172       67.644       30.816        0.208      338.846       11.774      871.389
04/30/2014  04:58:00        7.153       72.245       85.942       25.400       33.875       22.238      645.171     1147.541      494.540        0.747        0.114       72.598       24.364        0.113      338.844       11.771      871.395
04/30/2014  04:59:00       44.923       61.269       68.819       47.715       47.968       34.225     2276.744     2300.964     1171.356        0.813        0.287       75.974       36.306        0.228      338.727       11.575      871.400
04/30/2014  05:00:00       57.559       58.355       54.596       41.051       36.761       28.428     1685.202     1351.336      808.127        0.677        0.192       81.965       24.495        0.089      338.777       11.660      871.405
04/30/2014  05:01:00       65.492       70.109       67.218       51.296       57.835       43.643     2631.291     3344.944     1904.676        1.080        0.394       95.940       41.532        0.187      338.716       11.556      871.415
04/30/2014  05:02:00       87.203       32.565       47.709       70.111       48.960       51.692     4915.513     2397.087     2672.096        1.046        0.499       93.085       48.377        0.270      338.597       11.356      871.419
04/30/2014  05:03:00       37.912       49.547       71.743       35.605       31.237       24.577     1267.703      975.754      604.012        0.594        0.142       62.388       17.503        0.079      338.566       11.304      871.418
04/30/2014  05:04:00       76.334       55.146       51.630       56.294       32.917       29.821     3168.971     1083.517      889.271        0.834        0.257       94.170       14.821        0.025      338.513       11.215      871.415
04/30/2014  05:05:00       79.265       49.724       41.360       40.174       33.407       34.130     1613.987     1116.053     1164.862        0.718        0.195       93.570       21.291        0.052      338.434       11.084      871.414
04/30/2014  05:06:00      118.305       57.123       57.822       69.391       57.985       45.573     4815.083     3362.252     2076.916        1.543        0.513      131.374       38.042        0.084      338.640       11.429      871.402
04/30/2014  05:07:00       88.356       12.285       64.678       66.984       54.567       46.180     4486.810     2977.606     2132.561        1.087        0.480       89.206       43.292        0.236      338.670       11.479      871.381
04/30/2014  05:08:00      105.798       83.593       51.956       37.797       28.857       36.755     1428.645      832.698     1350.908        1.225        0.181      134.837       18.878        0.020      338.571       11.313      871.370
04/30/2014  05:09:00       80.814       43.285       32.262       53.032       33.326       26.210     2812.407     1110.597      686.989        0.703        0.230       91.676       19.144        0.044      338.501       11.194      871.374
04/30/2014  05:10:00       18.052       21.123       23.982       27.744       23.447       16.851      769.735      549.785      283.957        0.148        0.080       27.786        6.953        0.063      338.382       10.994      871.380
04/30/2014  05:11:00       11.198       33.637       44.312       20.060       21.686       16.003      402.407      470.274      256.102        0.217        0.056       35.453       13.806        0.152      338.229       10.738      871.381
04/30/2014  05:12:00       24.310        6.168       26.260       16.781       23.793       15.834      281.597      566.108      250.729        0.121        0.055       25.080        6.151        0.060      338.160       10.623      871.391
04/30/2014  05:13:00        9.255       14.575       35.551       16.085       25.916       15.214      258.730      671.646      231.464        0.136        0.058       17.265        9.384        0.295      338.132       10.577      871.401
04/30/2014  05:14:00       40.560      -26.608        8.051       27.450       42.904       20.199      753.484     1840.716      407.987        0.271        0.150       48.509       26.736        0.304      338.320       10.892      871.399
04/30/2014  05:15:00       58.498       -3.291       26.784       25.313       40.212       21.748      640.749     1617.030      472.972        0.344        0.137       58.590       23.346        0.159      338.408       11.040      871.380
04/30/2014  05:16:00       80.877       42.884        7.310       20.430       13.855       16.944      417.375      191.950      287.093        0.466        0.045       91.544        6.358        0.005      338.266       10.800      871.393
04/30/2014  05:17:00       61.144       33.367        6.784       24.541       18.394       13.509      602.245      338.346      182.492        0.301        0.056       69.656        7.914        0.013      338.287       10.836      871.390
04/30/2014  05:18:00      100.775       40.805       19.672       41.404       34.850       26.826     1714.324     1214.504      719.626        0.793        0.182      108.723       12.411        0.013      338.398       11.022      871.382
04/30/2014  05:19:00       82.282       39.332       15.223       29.870       32.505       24.316      892.225     1056.596      591.253        0.554        0.127       91.200       13.698        0.023      338.540       11.260      871.376
04/30/2014  05:20:00      105.421       75.301       10.742       31.180       28.219       27.557      972.198      796.286      759.413        0.971        0.126      129.553       19.052        0.022      338.525       11.236      871.380
04/30/2014  05:21:00       52.498       57.371        4.140       32.405       27.564       25.492     1050.090      759.768      649.852        0.426        0.123       77.765       15.763        0.041      338.361       10.959      871.405
04/30/2014  05:22:00       81.323       65.218       14.320       45.762       35.699       34.469     2094.163     1274.434     1188.129        0.781        0.228      104.244       26.365        0.064      338.388       11.005      871.411
04/30/2014  05:23:00       73.833       67.122        2.074       48.293       38.144       35.418     2332.231     1454.997     1254.425        0.750        0.252       99.783       28.886        0.084      338.378       10.990      871.411
04/30/2014  05:24:00       82.512       74.461        3.561       53.088       40.927       34.394     2818.384     1675.005     1182.946        0.902        0.284      111.142       28.770        0.067      338.320       10.891      871.416
04/30/2014  05:25:00      127.977       95.901       14.887       59.377       33.978       28.752     3525.655     1154.523      826.703        1.565        0.275      159.922       22.653        0.020      338.357       10.952      871.422
04/30/2014  05:26:00       62.868       51.895        8.024       42.048       29.671       21.443     1768.014      880.372      459.818        0.491        0.155       81.520       13.120        0.026      338.192       10.677      871.423
04/30/2014  05:27:00       47.030       76.536       -4.993       30.337       33.519       21.543      920.357     1123.512      464.117        0.530        0.125       89.831       20.495        0.052      338.195       10.682      871.426
04/30/2014  05:28:00       72.210       66.328        9.919       42.649       27.175       28.257     1818.966      738.476      798.445        0.653        0.168       98.050       19.377        0.039      338.219       10.722      871.435
04/30/2014  05:29:00       58.675       51.108        6.778       42.185       40.804       27.316     1779.609     1664.945      746.189        0.514        0.210       77.813       21.334        0.075      338.106       10.532      871.444
04/30/2014  05:30:00       53.788       61.609        7.693       38.802       22.630       21.393     1505.619      512.133      457.673        0.461        0.124       81.785       23.139        0.080      338.118       10.552      871.464
04/30/2014  05:31:00       10.066      107.845      -16.997       27.514       24.931       13.731      757.002      621.561      188.550        0.679        0.078      108.313       13.231        0.015      338.206       10.700      871.468
04/30/2014  05:32:00       14.578       99.251      -14.721       31.215       37.647       17.980      974.391     1417.280      323.277        0.650        0.136      100.316       15.372        0.023      338.090       10.505      871.467
04/30/2014  05:33:00       13.926       66.524       -6.759       26.279       34.783       19.847      690.601     1209.872      393.919        0.348        0.115       67.966       17.879        0.069      338.037       10.416      871.469
04/30/2014  05:34:00       28.809       50.388       -2.717       28.951       36.353       20.605      838.186     1321.515      424.568        0.298        0.129       58.042       16.793        0.084      338.014       10.378      871.492
04/30/2014  05:35:00      -18.072       58.653      -10.773       19.611       26.834       13.304      384.577      720.089      176.985        0.258        0.064       61.374       13.763        0.050      338.072       10.474      871.506
04/30/2014  05:36:00       -9.891        7.511       -7.350       21.168       35.699       11.554      448.063     1274.400      133.496        0.103        0.093       12.419        8.978        0.523      338.024       10.393      871.524
04/30/2014  05:37:00      -43.565      -28.804       -9.478       12.290       12.258       10.254      151.039      150.269      105.136        0.161        0.020       52.227        9.575        0.034      337.895       10.179      871.533
04/30/2014  05:38:00      -33.928      -33.740       -6.884       20.054       19.963       17.776      402.167      398.505      315.985        0.173        0.056       47.848        9.583        0.040      338.093       10.510      871.540
04/30/2014  05:39:00      -47.265      -41.847       -4.209       17.555       19.936       14.951      308.188      397.431      223.536        0.247        0.046       63.128        8.766        0.019      338.118       10.553      871.542
04/30/2014  05:40:00      -67.108       -4.911       -8.982       13.047       15.443       11.357      170.219      238.482      128.988        0.257        0.027       67.287        4.488        0.004      338.119       10.554      871.557
04/30/2014  05:41:00     -107.920       17.604      -13.425       29.568       42.283       19.775      874.273     1787.852      391.035        0.759        0.153      109.347       11.764        0.012      338.087       10.502      871.557
04/30/2014  05:42:00      -16.318        2.658        4.934       29.534       28.475       14.849      872.280      810.824      220.493        0.110        0.095       16.533       17.413        1.109      337.918       10.218      871.577
04/30/2014  05:43:00       35.978       10.945        7.633       31.296       14.738       19.198      979.441      217.222      368.549        0.152        0.078       37.606       10.540        0.079      338.030       10.405      871.606
04/30/2014  05:44:00       15.989      -42.214       -4.566       19.371       44.946       12.325      375.225     2020.115      151.909        0.230        0.127       45.140        8.810        0.038      338.092       10.509      871.632
04/30/2014  05:45:00       58.284      -84.353      -19.667       21.592       31.439       16.570      466.199      988.428      274.574        0.631        0.086      102.530        9.766        0.009      338.255       10.784      871.642
04/30/2014  05:46:00       12.680      -17.069       33.616       23.732       48.986       22.084      563.211     2399.582      487.693        0.252        0.173       21.263       13.075        0.378      338.055       10.447      871.635
04/30/2014  05:47:00       36.803       42.220        3.480       18.619       14.540       21.924      346.661      211.405      480.676        0.209        0.052       56.009       13.025        0.054      337.791       10.004      871.632
04/30/2014  05:48:00       42.753        9.817        1.141        9.508       16.626       15.789       90.405      276.428      249.288        0.127        0.031       43.865        8.920        0.041      337.903       10.191      871.626
04/30/2014  05:49:00       76.652        7.125       10.632       35.550       26.338       15.009     1263.808      693.712      225.284        0.411        0.109       76.983       14.563        0.036      338.043       10.427      871.633
04/30/2014  05:50:00       74.184       34.897       50.337       40.322       41.236       36.057     1625.895     1700.391     1300.113        0.694        0.231       81.982       29.172        0.127      338.113       10.544      871.645
04/30/2014  05:51:00       51.561       68.279       76.869       38.480       40.051       32.429     1480.739     1604.056     1051.630        0.868        0.207       85.561       23.717        0.077      338.224       10.731      871.656
04/30/2014  05:52:00      102.873       45.049       21.170       36.370       28.685       31.599     1322.749      822.814      998.467        0.810        0.157      112.304       21.009        0.035      338.094       10.512      871.672
04/30/2014  05:53:00       95.161       40.774        3.379       40.642       25.382       18.349     1651.781      644.266      336.687        0.668        0.132      103.528        6.117        0.003      338.061       10.457      871.675
04/30/2014  05:54:00       61.172        6.928        7.876       24.237       20.147       15.614      587.419      405.898      243.784        0.254        0.062       61.564        7.711        0.016      338.121       10.558      871.667
04/30/2014  05:55:00       67.952       40.182       13.354       20.418       14.822       16.468      416.892      219.686      271.199        0.366        0.045       78.943        9.622        0.015      338.144       10.596      871.666
04/30/2014  05:56:00       72.150       28.695        9.649       19.415       17.345       16.179      376.961      300.834      261.762        0.353        0.047       77.647       12.554        0.026      337.978       10.316      871.676
04/30/2014  05:57:00       33.541       25.018        0.120       19.965       16.618       14.634      398.581      276.151      214.147        0.132        0.044       41.844       13.777        0.108      337.802       10.023      871.684
04/30/2014  05:58:00       75.982       49.982       13.639       32.785       24.379       18.604     1074.849      594.317      346.127        0.524        0.101       90.948        7.333        0.007      337.898       10.183      871.692
04/30/2014  05:59:00      106.400       57.831       20.617       33.026       23.968       31.552     1090.732      574.467      995.518        0.888        0.133      121.100       17.614        0.021      337.979       10.319      871.697
04/30/2014  06:00:00       69.881       62.288        0.774       33.639       23.807       23.310     1131.552      566.774      543.340        0.550        0.112       93.612       11.122        0.014      337.965       10.297      871.698
04/30/2014  06:01:00       96.549       61.200       27.292       23.346       16.957       13.716      545.039      287.556      188.126        0.742        0.051      114.312        7.534        0.004      337.961       10.289      871.701
04/30/2014  06:02:00       64.813       40.239       15.171       25.831       21.585       15.880      667.259      465.916      252.182        0.372        0.069       76.288       10.257        0.018      337.847       10.097      871.721
04/30/2014  06:03:00       79.862       39.756       13.119       26.827       20.934       14.529      719.706      438.217      211.100        0.475        0.068       89.211       13.128        0.022      337.783        9.989      871.737
04/30/2014  06:04:00       75.563       42.397        9.396       28.904       26.068       15.826      835.466      679.541      250.467        0.468        0.088       86.645       12.804        0.022      337.763        9.958      871.755
04/30/2014  06:05:00       37.169       31.274       10.440       24.058       19.848       13.950      578.810      393.949      194.607        0.182        0.058       48.575        9.871        0.041      337.679        9.815      871.755
04/30/2014  06:06:00       48.470       22.246        4.207       14.766       15.600       14.639      218.029      243.350      214.308        0.177        0.034       53.331        8.655        0.026      337.756        9.945      871.749
04/30/2014  06:07:00       46.486       18.199        8.999       16.713       13.195       11.296      279.313      174.112      127.593        0.158        0.029       49.922        7.338        0.022      337.800       10.020      871.747
04/30/2014  06:08:00       39.301       20.130        2.212       10.564        8.222        8.102      111.597       67.607       65.638        0.110        0.012       44.157        4.715        0.011      337.880       10.152      871.746
04/30/2014  06:09:00       40.137       37.110        3.029       16.380        9.922       11.362      268.292       98.447      129.087        0.175        0.025       54.664        8.740        0.026      337.882       10.157      871.746
04/30/2014  06:10:00       24.665       32.753       -5.230       12.908       15.606       10.418      166.626      243.539      108.533        0.111        0.026       41.001       10.013        0.060      337.865       10.127      871.747
04/30/2014  06:11:00       49.801       35.938        0.048       17.323       13.203       13.437      300.076      174.327      180.558        0.221        0.033       61.415        9.913        0.026      337.856       10.113      871.753
04/30/2014  06:12:00       32.999       42.318       -8.887       20.402       19.555       10.780      416.262      382.414      116.219        0.194        0.046       53.664        9.679        0.033      337.829       10.069      871.763
04/30/2014  06:13:00       17.948       60.955       -6.481       14.944       14.685       11.925      223.324      215.654      142.198        0.233        0.029       63.542        3.936        0.004      337.907       10.198      871.770
04/30/2014  06:14:00       35.651       38.783        7.146       26.272       16.081       17.733      690.233      258.585      314.460        0.204        0.063       52.680       12.907        0.060      337.926       10.229      871.775
04/30/2014  06:15:00       38.927       24.880        5.055       26.387       17.577       15.287      696.273      308.951      233.693        0.170        0.062       46.199       12.926        0.078      337.559        9.615      871.781
04/30/2014  06:16:00       37.024       34.285       -6.518       24.431       19.763       14.670      596.865      390.575      215.203        0.190        0.060       50.460       11.025        0.048      337.748        9.931      871.784
04/30/2014  06:17:00       15.324       19.436       10.579       11.644       13.363       12.607      135.593      178.565      158.935        0.060        0.024       24.751       10.279        0.172      338.075       10.481      871.785
04/30/2014  06:18:00        0.456       57.666       -3.928       14.073       31.629       12.738      198.051     1000.421      162.264        0.235        0.068       57.668       16.959        0.086      337.892       10.173      871.799
04/30/2014  06:19:00       -4.259       59.129       -8.390       15.136       15.689        7.111      229.084      246.136       50.565        0.206        0.026       59.282        5.787        0.010      337.844       10.092      871.799
04/30/2014  06:20:00        3.499       39.660       -5.444       13.261       12.876        7.882      175.849      165.797       62.129        0.101        0.020       39.814        4.882        0.015      337.845       10.094      871.813
04/30/2014  06:21:00      -15.547       13.662        0.192       16.842       14.116        8.085      283.662      199.265       65.363        0.049        0.027       20.696        8.313        0.161      337.634        9.742      871.813
04/30/2014  06:22:00      -33.848        3.935       -4.414        7.599        5.833        4.573       57.747       34.025       20.910        0.065        0.006       34.076        2.585        0.006      337.481        9.483      871.825
04/30/2014  06:23:00      -32.893      -12.035       -3.625       10.620        9.752        7.114      112.783       95.104       50.608        0.075        0.013       35.025        6.309        0.032      337.636        9.745      871.828
04/30/2014  06:24:00      -68.952       -9.170      -12.440       15.934        6.464        5.031      253.881       41.787       25.310        0.266        0.016       69.559        2.811        0.002      337.147        8.924      871.841
04/30/2014  06:25:00      -66.429      -24.472      -11.036       10.026       10.333        7.173      100.515      106.773       51.455        0.270        0.013       70.793        6.132        0.008      337.104        8.852      871.846
04/30/2014  06:26:00      -86.617       -1.517      -12.823       14.828       15.376       13.709      219.881      236.428      187.934        0.416        0.032       86.631       11.020        0.016      337.083        8.817      871.845
04/30/2014  06:27:00      -77.045      -14.726       -7.432       20.386       23.223       17.327      415.594      539.326      300.241        0.373        0.063       78.440       14.824        0.036      336.985        8.655      871.836
04/30/2014  06:28:00     -120.378        1.675      -14.114       31.230       17.705       15.952      975.317      313.477      254.470        0.812        0.077      120.389       14.150        0.014      336.726        8.223      871.834
04/30/2014  06:29:00      -91.761       -2.295      -17.980       42.487       22.619       16.851     1805.158      511.603      283.957        0.567        0.130       91.790       18.823        0.042      336.638        8.075      871.846
04/30/2014  06:30:00      -77.081      -31.178       -5.795       19.478       18.228       12.608      379.408      332.247      158.963        0.391        0.044       83.148       10.189        0.015      336.661        8.113      871.846
04/30/2014  06:31:00     -113.185      -17.612       -9.316       35.349       28.579       21.594     1249.538      816.745      466.309        0.787        0.127      114.547       21.944        0.037      336.623        8.051      871.850
04/30/2014  06:32:00      -62.536      -43.277        0.445       36.423       22.526       17.980     1326.623      507.409      323.271        0.397        0.108       76.050       19.113        0.063      336.701        8.180      871.864
04/30/2014  06:33:00      -37.751      -45.068       -6.299       30.907       27.927       16.743      955.270      779.899      280.314        0.276        0.101       58.790       16.279        0.077      336.789        8.328      871.900
04/30/2014  06:34:00     -125.152      -43.269      -24.113       21.979       19.393       11.364      483.060      376.087      129.151        0.955        0.049      132.420       10.204        0.006      337.066        8.790      871.907
04/30/2014  06:35:00     -119.385      -61.641      -13.783       30.521       19.986       21.478      931.552      399.444      461.316        1.002        0.090      134.359       20.891        0.024      337.253        9.103      871.912
04/30/2014  06:36:00      -23.812      -70.826       -4.528       28.608       18.689       13.743      818.431      349.260      188.864        0.348        0.068       74.722       13.281        0.032      337.239        9.079      871.933
04/30/2014  06:37:00      -47.982      -54.624       -8.066       29.296       31.904       12.862      858.284     1017.876      165.423        0.370        0.102       72.706       13.484        0.034      337.734        9.906      871.956
04/30/2014  06:38:00       -2.331      -43.807       -1.015       25.268       19.627       11.153      638.490      385.210      124.380        0.154        0.057       43.869       10.594        0.058      337.522        9.553      871.975
04/30/2014  06:39:00      -25.042      -32.900        4.017       17.097       13.797       11.545      292.311      190.352      133.295        0.117        0.031       41.346        7.428        0.032      337.687        9.829      871.988
04/30/2014  06:40:00      -29.859      -22.466        1.726       26.338       11.773        8.013      693.706      138.603       64.211        0.115        0.045       37.367        3.182        0.007      337.801       10.020      871.988
04/30/2014  06:41:00       54.143       -8.700        1.686       44.152       29.192       23.703     1949.378      852.175      561.847        0.319        0.168       54.837       19.735        0.130      338.076       10.482      871.997
04/30/2014  06:42:00       -0.310       34.736       45.571       20.950       25.252       17.273      438.893      637.672      298.358        0.233        0.069       34.737       12.787        0.136      337.860       10.120      872.005
04/30/2014  06:43:00       48.480       35.439        9.881       26.335       17.575       18.038      693.526      308.864      325.369        0.252        0.066       60.051       12.948        0.046      337.915       10.212      872.015
04/30/2014  06:44:00       43.767       -1.873       21.627       36.198       41.049       31.931     1310.273     1684.982     1019.569        0.320        0.201       43.807       32.298        0.544      337.903       10.193      872.013
04/30/2014  06:45:00       55.826       81.716       42.929       49.596       36.213       32.360     2459.782     1311.376     1047.191        0.823        0.241       98.965       24.777        0.063      337.712        9.872      872.009
04/30/2014  06:46:00       32.144       31.576       60.662       32.461       27.062       23.726     1053.695      732.353      562.914        0.403        0.117       45.059       24.803        0.303      337.829       10.068      872.015
04/30/2014  06:47:00      134.426       91.824       62.393       54.744       35.387       37.944     2996.951     1252.256     1439.771        1.804        0.284      162.795       30.280        0.035      337.949       10.268      872.027
04/30/2014  06:48:00      126.622       41.273       25.867       52.390       55.062       41.757     2744.747     3031.826     1743.635        1.296        0.376      133.179       33.716        0.064      338.043       10.427      872.021
04/30/2014  06:49:00      117.815       21.730       44.969      103.635       54.412       48.029    10740.266     2960.679     2306.742        1.619        0.800      119.802       38.858        0.105      338.054       10.443      872.029
04/30/2014  06:50:00      119.786      108.088       56.672       82.796       55.314       65.077     6855.234     3059.605     4235.062        2.169        0.707      161.343       43.746        0.074      338.248       10.768      872.045
04/30/2014  06:51:00      107.708       67.356       58.958       59.695       49.045       44.621     3563.538     2405.388     1991.023        1.379        0.398      127.035       36.433        0.082      338.368       10.971      872.048
04/30/2014  06:52:00       42.513       64.767       69.645       45.232       38.699       28.140     2045.923     1497.601      791.854        0.759        0.217       77.473       19.565        0.064      338.321       10.893      872.047
04/30/2014  06:53:00        2.125       -4.413       33.018       19.129       29.078       22.992      365.933      845.534      528.614        0.143        0.087        4.898       19.831       16.394      338.406       11.035      872.044
04/30/2014  06:54:00       12.500       21.906       49.723       25.248       28.754       19.655      637.452      826.769      386.322        0.248        0.093       25.222       14.126        0.314      338.435       11.084      872.034
04/30/2014  06:55:00       21.452       66.100       78.188       39.249       29.642       23.423     1540.498      878.642      548.639        0.695        0.148       69.494       18.487        0.071      338.282       10.828      872.037
04/30/2014  06:56:00       28.066       37.673       62.170       41.267       39.190       26.048     1702.990     1535.891      678.495        0.499        0.196       46.979       24.948        0.282      338.306       10.869      872.042
04/30/2014  06:57:00       32.135       30.947       51.621       29.961       33.588       20.188      897.673     1128.148      407.543        0.354        0.122       44.614       15.865        0.126      338.316       10.885      872.051
04/30/2014  06:58:00       23.075       38.138       69.793       39.557       48.583       36.972     1564.786     2360.289     1366.955        0.607        0.265       44.575       39.475        0.784      338.350       10.942      872.067
04/30/2014  06:59:00       43.301       17.393       56.729       65.981       56.334       43.362     4353.518     3173.572     1880.248        0.740        0.470       46.664       51.178        1.203      338.471       11.146      872.081
04/30/2014  07:00:00       29.694      -10.974       24.924       28.000       35.235       27.995      783.982     1241.482      783.701        0.222        0.140       31.657       17.222        0.296      338.539       11.259      872.093
04/30/2014  07:01:00       25.549       35.406       43.634       23.238       19.332       12.056      539.985      373.710      145.335        0.243        0.053       43.662        7.924        0.033      338.472       11.147      872.089
04/30/2014  07:02:00       19.942       55.674       52.933       17.086       20.051       12.796      291.940      402.030      163.741        0.358        0.043       59.138        5.059        0.007      338.314       10.880      872.099
04/30/2014  07:03:00       26.487       42.289       43.598       28.307       21.364       15.964      801.289      456.409      254.861        0.295        0.076       49.899        7.728        0.024      338.397       11.022      872.100
04/30/2014  07:04:00       27.287       13.615       38.106       37.154       30.879       26.696     1380.446      953.541      712.700        0.271        0.152       30.495       25.182        0.682      338.531       11.245      872.099
04/30/2014  07:05:00       46.761       25.593       42.019       36.249       25.001       21.871     1313.988      625.029      478.328        0.351        0.121       53.307       26.038        0.239      338.414       11.050      872.107
04/30/2014  07:06:00       40.335       67.280       45.582       34.723       19.757       29.381     1205.680      390.330      863.258        0.534        0.123       78.445       20.784        0.070      338.270       10.807      872.108
04/30/2014  07:07:00       32.684       50.202       41.161       37.106       27.536       24.664     1376.848      758.232      608.299        0.401        0.137       59.904       21.929        0.134      338.229       10.739      872.123
04/30/2014  07:08:00       51.760       42.197       30.405       39.950       30.266       27.106     1595.980      916.052      734.726        0.431        0.162       66.781       21.817        0.107      338.363       10.963      872.125
04/30/2014  07:09:00      106.273       69.737       41.728       43.303       36.575       40.467     1875.117     1337.714     1637.599        1.137        0.243      127.111       33.411        0.069      338.334       10.915      872.122
04/30/2014  07:10:00      104.473       77.317       74.065       61.611       57.174       44.230     3795.960     3268.821     1956.327        1.570        0.451      129.971       43.510        0.112      338.439       11.091      872.116
04/30/2014  07:11:00       90.205       61.748       56.548       61.175       51.790       37.814     3742.432     2682.193     1429.911        1.150        0.393      109.315       27.912        0.065      338.567       11.306      872.112
04/30/2014  07:12:00       74.075       58.788       46.506       47.236       35.652       31.100     2231.239     1271.071      967.187        0.779        0.223       94.568       21.252        0.051      338.582       11.331      872.108
04/30/2014  07:13:00      113.692       44.157       24.183       57.412       51.653       42.675     3296.148     2668.027     1821.184        1.162        0.389      121.966       26.629        0.048      338.546       11.271      872.108
04/30/2014  07:14:00      149.047       74.236       23.801       86.368       68.688       53.574     7459.345     4718.002     2870.187        2.167        0.752      166.511       47.380        0.081      338.508       11.204      872.115
04/30/2014  07:15:00      123.974       26.765       42.359       60.574       36.184       43.298     3669.255     1309.292     1874.752        1.237        0.343      126.830       25.469        0.040      338.558       11.290      872.132
04/30/2014  07:16:00       87.234       43.890       64.410       51.585       60.565       46.923     2660.971     3668.151     2201.748        1.111        0.427       97.653       38.892        0.159      338.568       11.308      872.149
04/30/2014  07:17:00       55.203       75.096       65.361       59.103       55.756       44.643     3493.162     3108.717     1993.005        1.078        0.430       93.203       44.858        0.232      338.615       11.387      872.150
04/30/2014  07:18:00       77.880       61.007       40.968       49.914       35.321       37.353     2491.429     1247.585     1395.263        0.830        0.257       98.930       31.486        0.101      338.552       11.281      872.166
04/30/2014  07:19:00       87.858       63.367       18.656       45.054       43.802       33.238     2029.884     1918.643     1104.796        0.857        0.253      108.325       24.946        0.053      338.645       11.437      872.165
04/30/2014  07:20:00       88.709       67.646       25.587       39.666       34.021       34.476     1573.353     1157.408     1188.579        0.851        0.196      111.558       24.152        0.047      338.564       11.302      872.169
04/30/2014  07:21:00       69.166       32.959       28.833       51.154       47.270       45.122     2616.778     2234.496     2036.005        0.679        0.344       76.617       43.053        0.316      338.666       11.472      872.175
04/30/2014  07:22:00       53.476       24.414       12.466       37.927       33.813       33.316     1438.442     1143.325     1109.929        0.365        0.185       58.785       23.466        0.159      338.706       11.540      872.178
04/30/2014  07:23:00       21.769       41.470       56.090       29.457       45.238       33.967      867.704     2046.473     1153.730        0.470        0.203       46.836       33.938        0.525      338.781       11.666      872.176
04/30/2014  07:24:00       31.269       21.590       52.296       35.264       32.111       27.652     1243.523     1031.104      764.631        0.361        0.152       37.998       22.321        0.345      338.844       11.770      872.175
04/30/2014  07:25:00       64.248       53.378       82.509       68.389       62.767       52.342     4676.989     3939.688     2739.709        1.257        0.568       83.528       48.804        0.341      338.707       11.542      872.185
04/30/2014  07:26:00       97.611       80.626       33.292       51.576       38.522       36.017     2660.122     1483.927     1297.248        1.129        0.272      126.603       22.233        0.031      338.503       11.198      872.176
04/30/2014  07:27:00       36.377       29.295       52.486       36.296       40.628       35.762     1317.418     1650.659     1278.885        0.459        0.212       46.706       34.140        0.534      338.758       11.628      872.180
04/30/2014  07:28:00       30.706       32.237       50.327       33.866       44.210       30.829     1146.929     1954.533      950.397        0.428        0.203       44.521       26.473        0.354      338.875       11.824      872.175
04/30/2014  07:29:00       73.218       54.039       47.314       31.151       24.434       22.922      970.360      597.038      525.433        0.631        0.105       91.001        7.792        0.007      338.688       11.509      872.188
04/30/2014  07:30:00       84.343       47.246       36.652       34.449       37.020       31.589     1186.716     1370.456      997.886        0.712        0.178       96.674       25.651        0.070      338.664       11.469      872.191
04/30/2014  07:31:00       52.975       50.582       42.880       41.435       21.469       26.295     1716.861      460.909      691.415        0.504        0.143       73.246       15.143        0.043      338.650       11.447      872.209
04/30/2014  07:32:00       35.947       -0.797       30.256       42.032       26.793       23.357     1766.690      717.867      545.527        0.262        0.152       35.956       26.232        0.532      338.848       11.778      872.203
04/30/2014  07:33:00        5.660       32.230       27.350       22.023       27.281       22.519      485.007      744.235      507.101        0.178        0.087       32.723       13.918        0.181      338.930       11.916      872.214
04/30/2014  07:34:00       45.901      -55.994        0.612       28.622       37.697       25.011      819.229     1421.045      625.571        0.405        0.143       72.403       21.260        0.086      338.883       11.838      872.224
04/30/2014  07:35:00       22.080       28.083       25.095       26.647       24.794       28.965      710.087      614.732      838.982        0.203        0.108       35.724       17.892        0.251      339.041       12.104      872.223
04/30/2014  07:36:00       28.599       33.606        8.759       25.163       35.558       24.481      633.178     1264.396      599.337        0.226        0.125       44.128       19.682        0.199      339.027       12.081      872.227
04/30/2014  07:37:00       35.456       16.434       14.656       19.353       25.807       19.515      374.545      666.014      380.848        0.158        0.071       39.079       12.567        0.103      338.931       11.917      872.232
04/30/2014  07:38:00       45.072       35.996       11.940       24.508       15.661       19.398      600.654      245.282      376.273        0.235        0.061       57.681       12.000        0.043      338.898       11.862      872.237
04/30/2014  07:39:00       60.179       46.761        2.953       20.693       15.107       13.172      428.191      228.227      173.507        0.332        0.041       76.211        6.061        0.006      338.877       11.828      872.247
04/30/2014  07:40:00       87.522       56.079       12.365       25.767       34.636       36.337      663.935     1199.668     1320.350        0.707        0.159      103.947       13.878        0.018      338.839       11.762      872.252
04/30/2014  07:41:00       35.152        6.319       17.091       26.088       20.840       18.806      680.596      434.309      353.660        0.152        0.073       35.716       10.920        0.093      339.038       12.100      872.234
04/30/2014  07:42:00       68.326       56.877        0.598       43.978       45.862       35.203     1934.037     2103.338     1239.277        0.659        0.264       88.901       22.574        0.064      339.035       12.094      872.218
04/30/2014  07:43:00      118.610       85.050       47.788       40.203       44.519       37.737     1616.318     1981.963     1424.080        1.430        0.251      145.952       18.275        0.016      338.915       11.892      872.213
04/30/2014  07:44:00       74.503       64.100       26.056       53.903       56.457       41.323     2905.519     3187.374     1707.586        0.907        0.390       98.282       25.972        0.070      339.056       12.127      872.223
04/30/2014  07:45:00      101.083       76.480       15.448       65.344       36.449       30.043     4269.889     1328.539      902.573        1.140        0.325      126.756       18.457        0.021      338.905       11.874      872.239
04/30/2014  07:46:00      150.404       95.166       32.257       68.610       58.769       49.976     4707.301     3453.853     2497.572        2.169        0.533      177.983       23.393        0.017      339.035       12.091      872.247
04/30/2014  07:47:00      159.302       63.909       19.179       65.485       66.713       46.509     4288.291     4450.650     2163.133        2.036        0.545      171.644       14.575        0.007      339.124       12.240      872.262
04/30/2014  07:48:00      131.552       56.860       33.644       79.062       48.942       37.755     6250.754     2395.286     1425.451        1.587        0.504      143.314       29.608        0.043      339.331       12.589      872.272
04/30/2014  07:49:00       59.685       28.724       29.444       59.383       42.966       33.973     3526.398     1846.083     1154.178        0.589        0.326       66.237       36.201        0.299      339.483       12.849      872.268
04/30/2014  07:50:00      198.045      143.655       32.710      125.304       79.743       48.937    15701.030     6358.991     2394.859        4.269        1.223      244.660       34.801        0.020      339.167       12.313      872.275
04/30/2014  07:51:00      150.958       91.108       51.445       77.372       61.519       55.339     5986.401     3784.642     3062.364        2.328        0.642      176.321       37.871        0.046      339.300       12.536      872.268
04/30/2014  07:52:00      158.991      110.517       88.069       97.591       91.304       90.076     9523.989     8336.492     8113.699        3.561        1.299      193.629       63.043        0.106      339.153       12.289      872.247
04/30/2014  07:53:00      154.462       94.858       39.646       83.293       79.692       54.701     6937.776     6350.849     2992.175        2.535        0.814      181.263       40.828        0.051      339.208       12.383      872.243
04/30/2014  07:54:00      158.761       86.849       47.004       68.133       79.303       54.431     4642.070     6288.988     2962.732        2.442        0.695      180.964       29.759        0.027      339.283       12.507      872.252
04/30/2014  07:55:00      140.669      142.628      103.903       81.500       63.586       57.567     6642.292     4043.153     3313.962        3.246        0.700      200.326       42.155        0.044      339.230       12.417      872.246
04/30/2014  07:56:00      109.266       41.845       26.103       66.221       80.958       45.657     4385.277     6554.182     2084.606        1.370        0.651      117.005       37.161        0.101      339.312       12.558      872.254
04/30/2014  07:57:00      113.612       47.885       29.051       86.449       58.166       49.307     7473.449     3383.329     2431.178        1.466        0.664      123.291       38.338        0.097      339.260       12.471      872.270
04/30/2014  07:58:00       96.700       24.890       73.771       99.978       61.166       53.986     9995.589     3741.301     2914.487        1.603        0.833       99.851       49.699        0.248      339.283       12.511      872.259
04/30/2014  07:59:00       81.651      114.021      121.789      103.100       65.984       60.304    10629.665     4353.867     3636.577        2.656        0.931      140.241       54.797        0.153      339.282       12.506      872.243
04/30/2014  08:00:00      149.710      115.015      120.898       88.555       74.647       52.994     7841.934     5572.152     2808.341        3.324        0.811      188.789       47.990        0.065      339.105       12.206      872.237
04/30/2014  08:01:00       87.930      103.836      130.174       72.346       64.733       48.278     5233.933     4190.410     2330.736        2.360        0.588      136.065       36.542        0.072      339.196       12.361      872.226
04/30/2014  08:02:00       40.843      106.416      141.447       75.341       75.533       68.406     5676.199     5705.179     4679.408        2.453        0.803      113.984       63.178        0.307      339.199       12.367      872.212
04/30/2014  08:03:00       64.000       56.784       53.841       62.234       46.179       43.300     3873.047     2132.501     1874.884        0.905        0.394       85.559       30.011        0.123      339.518       12.905      872.222
04/30/2014  08:04:00       96.606       51.031       14.198       61.606       50.988       36.103     3795.278     2599.770     1303.413        0.992        0.385      109.256        9.986        0.008      339.310       12.556      872.228
04/30/2014  08:05:00       87.538       59.500       74.514       64.989       58.654       46.674     4223.598     3440.345     2178.505        1.330        0.492      105.845       28.685        0.073      339.453       12.795      872.226
04/30/2014  08:06:00      173.464       51.018       51.628       70.516       57.785       54.509     4972.496     3339.123     2971.225        2.332        0.564      180.811       41.015        0.051      339.292       12.523      872.228
04/30/2014  08:07:00      163.601       25.635       26.865      107.035       62.736       56.066    11456.453     3935.819     3143.415        2.334        0.927      165.597       48.616        0.086      339.225       12.411      872.231
04/30/2014  08:08:00      127.222       84.001       53.821       84.647       53.374       54.266     7165.119     2848.777     2944.758        1.955        0.648      152.452       50.357        0.109      339.218       12.399      872.225
04/30/2014  08:09:00      245.161      128.823       45.021       95.962       91.537       69.369     9208.722     8379.016     4812.042        5.056        1.120      276.946       44.598        0.026      339.163       12.305      872.212
04/30/2014  08:10:00      104.470       83.193      115.060      130.023       76.345       55.966    16905.889     5828.585     3132.163        2.847        1.293      133.548       61.946        0.215      339.390       12.688      872.190
04/30/2014  08:11:00      141.581      105.394       91.506       88.725       62.436       72.652     7872.059     3898.246     5278.356        2.828        0.852      176.502       62.001        0.123      339.182       12.338      872.209
04/30/2014  08:12:00      130.158       95.491       88.447       80.828       57.724       60.710     6533.193     3332.020     3685.687        2.371        0.678      161.430       35.646        0.049      339.307       12.548      872.208
04/30/2014  08:13:00      209.192      139.313       49.380       94.724       94.150       65.561     8972.556     8864.178     4298.209        4.387        1.107      251.335       47.151        0.035      339.197       12.362      872.202
04/30/2014  08:14:00      136.459       51.539       51.879       91.080       59.554       54.236     8295.566     3546.621     2941.558        1.937        0.739      145.868       47.128        0.104      339.455       12.800      872.204
04/30/2014  08:15:00      125.332       79.268       68.815      113.262       56.336       49.532    12828.288     3173.699     2453.437        2.259        0.923      148.296       45.356        0.094      339.652       13.131      872.201
04/30/2014  08:16:00      237.577      108.232       27.202      123.887       80.250       65.066    15348.002     6439.997     4233.568        4.745        1.301      261.069       52.172        0.040      339.389       12.685      872.199
04/30/2014  08:17:00      102.801       67.066       56.087       98.658       69.488       69.444     9733.426     4828.556     4822.461        1.879        0.969      122.743       64.578        0.277      339.669       13.159      872.182
04/30/2014  08:18:00      159.298       75.162      118.331      147.601       89.712       84.496    21786.090     8048.269     7139.543        4.099        1.849      176.140       78.032        0.196      339.573       12.996      872.184
04/30/2014  08:19:00      240.765      147.356      116.996      145.301       90.946      107.800    21112.291     8271.103    11620.902        6.718        2.050      282.279       80.435        0.081      339.370       12.654      872.180
04/30/2014  08:20:00      220.383      116.778       67.554      137.032      113.755       99.157    18777.716    12940.232     9832.174        5.415        2.078      249.411       71.527        0.082      339.305       12.544      872.195
04/30/2014  08:21:00      143.317       25.569       58.977       86.784       69.216       62.344     7531.430     4790.797     3886.785        2.044        0.810      145.580       47.469        0.106      339.541       12.945      872.193
04/30/2014  08:22:00      122.844       47.383       75.043       93.435       90.198       74.411     8730.154     8135.701     5537.026        2.268        1.120      131.665       59.864        0.207      339.555       12.966      872.179
04/30/2014  08:23:00      161.089       65.398       58.238      142.960       86.590       86.160    20437.611     7497.787     7423.600        3.448        1.768      173.857       72.373        0.173      339.505       12.882      872.187
04/30/2014  08:24:00      145.357      106.284       91.372      115.066       81.676       84.383    13240.260     6670.942     7120.494        3.390        1.352      180.069       74.582        0.172      339.549       12.956      872.197
04/30/2014  08:25:00      169.215      118.645       43.656       87.074       63.942       66.901     7581.863     4088.569     4475.797        3.038        0.807      206.665       41.483        0.040      339.676       13.170      872.200
04/30/2014  08:26:00      161.316      110.410       51.179       99.422       63.331       65.748     9884.816     4010.810     4322.819        2.952        0.911      195.482       61.981        0.101      339.737       13.273      872.199
04/30/2014  08:27:00      178.574      123.533       49.297      124.837       85.854       78.070    15584.386     7370.982     6094.910        3.931        1.453      217.139       58.726        0.073      339.631       13.094      872.197
04/30/2014  08:28:00      136.161       64.845       47.986      100.044       70.289       65.246    10008.733     4940.527     4257.074        2.212        0.960      150.814       39.888        0.070      339.576       13.002      872.190
04/30/2014  08:29:00      147.768       90.337       62.336       88.050       63.612       59.459     7752.773     4046.455     3535.376        2.461        0.767      173.194       45.092        0.068      339.834       13.436      872.206
04/30/2014  08:30:00      136.490      141.016      112.675      129.513       85.591       85.516    16773.490     7325.853     7313.003        4.131        1.571      196.253       88.424        0.203      339.666       13.152      872.217
04/30/2014  08:31:00      134.759      157.393      128.812      137.650      110.937      102.708    18947.508    12307.058    10548.956        5.066        2.090      207.202      103.878        0.251      339.521       12.908      872.217
04/30/2014  08:32:00      144.580       91.318       81.617       90.300       67.852       67.530     8154.122     4603.905     4560.291        2.661        0.866      171.004       44.260        0.067      339.501       12.876      872.216
04/30/2014  08:33:00      244.858      103.920       75.332      180.584      128.022      102.952    32610.457    16389.681    10599.146        6.800        2.980      265.998       85.680        0.104      339.517       12.901      872.184
04/30/2014  08:34:00      207.568      138.709       99.196      124.541      105.219       96.437    15510.494    11071.016     9300.054        5.402        1.794      249.649       61.646        0.061      339.583       13.012      872.175
04/30/2014  08:35:00      150.378       96.533      137.098      111.387      117.783       84.830    12407.023    13872.910     7196.075        4.210        1.674      178.696       77.697        0.189      339.636       13.102      872.168
04/30/2014  08:36:00      190.373      125.925       87.801      121.166       95.213       93.925    14681.269     9065.551     8821.865        4.618        1.628      228.252       76.091        0.111      339.754       13.302      872.156
04/30/2014  08:37:00      183.047      134.418       91.908      145.092       97.291       77.573    21051.588     9465.513     6017.622        4.827        1.827      227.100       79.412        0.122      339.718       13.241      872.150
04/30/2014  08:38:00      180.132      110.667       72.934       92.131       81.467       83.572     8488.033     6636.891     6984.213        3.606        1.105      211.411       59.302        0.079      339.674       13.168      872.131
04/30/2014  08:39:00       75.050       14.015       52.322       69.171      108.954       64.731     4784.610    11870.933     4190.149        1.470        1.042       76.348       59.053        0.598      339.871       13.501      872.114
04/30/2014  08:40:00      180.865      -39.793       13.179      119.054      167.102       71.123    14173.926    27923.157     5058.534        4.080        2.358      185.191       71.914        0.151      339.858       13.477      872.108
04/30/2014  08:41:00      182.040     -111.249       28.763      128.868      223.234      109.489    16607.052    49833.551    11987.788        6.237        3.921      213.342      134.409        0.397      340.015       13.743      872.074
04/30/2014  08:42:00      205.300       56.140      118.868      160.640      161.763      111.255    25805.303    26167.228    12377.777        6.188        3.218      212.838      120.055        0.318      339.737       13.271      872.117
04/30/2014  08:43:00      184.989      110.199      103.609      149.970       95.351      102.426    22491.005     9091.767    10491.173        4.958        2.104      215.325       83.857        0.152      339.734       13.267      872.119
04/30/2014  08:44:00      194.216      165.929      124.717      118.666      121.497      100.623    14081.576    14761.533    10124.959        5.988        1.948      255.445       79.224        0.096      339.704       13.218      872.111
04/30/2014  08:45:00      195.440      145.027      103.888      143.952       98.988       81.302    20722.104     9798.632     6609.942        5.357        1.857      243.371       83.992        0.119      339.774       13.334      872.125
04/30/2014  08:46:00      144.407      124.293       63.444      134.547       88.502       67.982    18102.827     7832.624     4621.518        3.544        1.528      190.531       41.219        0.047      339.917       13.577      872.117
04/30/2014  08:47:00      201.249      103.117       60.364      104.552       94.765       51.854    10931.107     8980.335     2688.865        3.868        1.130      226.129       47.456        0.044      339.821       13.414      872.112
04/30/2014  08:48:00      176.824       88.567      128.543      143.922      132.873      109.479    20713.639    17655.299    11985.659        5.298        2.518      197.765       84.862        0.184      339.908       13.560      872.113
04/30/2014  08:49:00      113.320      128.682       93.482      148.307      104.145      105.576    21995.047    10846.103    11146.251        4.105        2.199      171.466       83.521        0.237      339.917       13.576      872.094
04/30/2014  08:50:00      234.006       95.826       50.346      133.504      114.792       86.288    17823.220    13177.169     7445.628        5.245        1.922      252.867       51.781        0.042      340.047       13.797      872.109
04/30/2014  08:51:00      213.096      110.477       64.289      107.691       81.553       79.065    11597.450     6650.820     6251.263        4.312        1.225      240.031       61.773        0.066      339.819       13.410      872.124
04/30/2014  08:52:00       70.151       72.428      110.631       89.059       83.662       61.583     7931.584     6999.354     3792.466        2.056        0.936      100.832       49.352        0.240      340.158       13.983      872.112
04/30/2014  08:53:00      193.373       88.849      107.494      145.899      121.810       84.847    21286.605    14837.559     7199.003        5.007        2.166      212.808       54.287        0.065      340.000       13.716      872.099
04/30/2014  08:54:00      312.991      178.112       83.706      138.494      130.893       90.011    19180.642    17133.105     8101.996        9.055        2.221      360.121       60.682        0.028      339.838       13.444      872.102
04/30/2014  08:55:00      184.511       88.814       50.094      134.332       99.307       84.233    18045.030     9861.845     7095.219        3.972        1.750      204.774       61.197        0.089      340.101       13.887      872.100
04/30/2014  08:56:00      253.987      151.134       39.168      183.420      130.567       74.295    33642.941    17047.729     5519.687        7.254        2.811      295.552       39.476        0.018      339.952       13.635      872.087
04/30/2014  08:57:00      228.858       91.982       43.687      162.012      118.894       99.213    26247.815    14135.666     9843.233        5.648        2.511      246.650       67.846        0.076      339.979       13.680      872.066
04/30/2014  08:58:00      177.112       97.586       57.450      102.232       99.472       88.913    10451.307     9894.699     7905.539        3.622        1.413      202.217       62.595        0.096      340.092       13.872      872.054
04/30/2014  08:59:00      233.761      163.424       70.166      166.408      136.521       93.930    27691.723    18638.033     8822.829        7.070        2.758      285.222       75.363        0.070      340.138       13.949      872.054
04/30/2014  09:00:00      279.223      160.623       98.730      125.151      130.255       92.979    15662.892    16966.458     8645.137        7.739        2.064      322.126       78.649        0.060      339.923       13.584      872.045
04/30/2014  09:01:00      304.794      195.407       27.672      141.702      118.740       93.011    20079.515    14099.088     8650.954        8.733        2.141      362.054       56.672        0.025      339.968       13.660      872.051
04/30/2014  09:02:00      229.617      184.315       38.168      132.716       84.152       70.421    17613.603     7081.575     4959.118        5.890        1.483      294.441       48.579        0.027      339.985       13.689      872.061
04/30/2014  09:03:00      232.996      119.642       32.751      150.332       87.393       69.104    22599.716     7637.488     4775.393        5.234        1.751      261.919       38.209        0.021      340.111       13.904      872.054
04/30/2014  09:04:00      173.396       80.303       41.158       90.826       71.138       63.297     8249.292     5060.647     4006.450        2.776        0.866      191.088       46.024        0.058      340.177       14.016      872.050
04/30/2014  09:05:00      142.649       67.829       38.856       97.153       86.893       74.078     9438.696     7550.402     5487.575        2.446        1.124      157.954       43.268        0.075      340.405       14.400      872.033
04/30/2014  09:06:00      200.502      130.424       46.221      171.075      131.133       72.382    29266.600    17195.877     5239.090        5.551        2.585      239.189       19.047        0.006      340.226       14.098      872.024
04/30/2014  09:07:00      257.591       95.195       50.216      187.323      128.089       91.055    35089.948    16406.843     8290.944        6.885        2.989      274.619       64.849        0.056      340.097       13.879      871.999
04/30/2014  09:08:00      203.034      153.692       60.491      109.828      107.880       93.039    12062.088    11638.089     8656.166        5.042        1.618      254.644       54.341        0.046      340.100       13.884      871.989
04/30/2014  09:09:00      360.569      195.522       52.394      187.355      132.722      110.816    35101.994    17615.001    12280.111       11.798        3.250      410.169        6.379        0.000      339.994       13.706      871.976
04/30/2014  09:10:00      187.855      118.255       83.138      164.612      111.031       97.662    27097.205    12327.828     9537.824        5.256        2.448      221.977       92.804        0.175      340.016       13.743      871.966
04/30/2014  09:11:00      244.509      138.523       72.721      150.418       97.579       80.087    22625.456     9521.626     6413.897        6.140        1.928      281.022       53.169        0.036      340.020       13.749      871.972
04/30/2014  09:12:00      189.190       99.476       63.199      149.170       99.790       74.528    22251.568     9958.130     5554.357        4.372        1.888      213.748       74.669        0.122      340.203       14.061      871.983
04/30/2014  09:13:00      176.094      142.429      119.685      139.696      115.225      110.554    19514.859    13276.725    12222.110        5.531        2.251      226.484      104.459        0.213      340.016       13.741      871.981
04/30/2014  09:14:00      230.347      165.959      129.704      193.864      131.433      105.879    37583.270    17274.601    11210.316        8.173        3.303      283.905       92.000        0.105      340.051       13.802      871.973
04/30/2014  09:15:00      111.618      113.305      109.020      106.326       88.038       81.922    11305.272     7750.747     6711.251        3.147        1.288      159.049       67.151        0.178      340.392       14.378      871.994
04/30/2014  09:16:00      132.222      122.371      117.827      100.142       85.977       79.316    10028.509     7392.084     6291.019        3.502        1.186      180.160       57.419        0.102      340.070       13.834      871.986
04/30/2014  09:17:00      157.998      108.213      109.147      121.885      113.271       83.317    14855.911    12830.293     6941.696        4.160        1.731      191.503       74.031        0.149      340.056       13.810      871.981
04/30/2014  09:18:00      216.593      166.200       91.753      156.136      110.379      103.890    24378.504    12183.507    10793.052        6.514        2.368      273.011       88.209        0.104      340.048       13.797      871.942
04/30/2014  09:19:00      272.317      183.157       32.460      162.363      118.848       95.620    26361.611    14124.947     9143.115        7.918        2.481      328.181       75.403        0.053      340.055       13.809      871.933
04/30/2014  09:20:00      358.285      205.303       51.639      131.506      108.698       78.845    17293.750    11815.171     6216.599       10.425        1.766      412.937       43.457        0.011      340.075       13.843      871.926
04/30/2014  09:21:00      188.251       58.374       76.101      138.221       86.260       75.641    19105.089     7440.716     5721.589        3.845        1.613      197.094       49.738        0.064      340.389       14.373      871.936
04/30/2014  09:22:00      120.706      114.832      126.314      119.027      112.613       80.700    14167.394    12681.758     6512.521        3.853        1.668      166.602       72.092        0.187      340.510       14.578      871.947
04/30/2014  09:23:00       63.746       65.290       32.937       67.311       64.059       63.395     4530.772     4103.548     4018.976        1.103        0.633       91.249       45.571        0.249      340.465       14.505      871.946
04/30/2014  09:24:00      124.420       85.732       12.096      126.056       82.482       43.586    15889.996     6803.288     1899.735        2.378        1.230      151.097       10.398        0.005      340.824       15.110      871.940
04/30/2014  09:25:00      246.858      201.594       61.178      135.602       67.622       59.967    18387.781     4572.727     3596.094        6.593        1.328      318.715       41.384        0.017      340.031       13.767      871.914
04/30/2014  09:26:00      199.579      100.155       94.551      127.972      114.866      103.114    16376.942    13194.151    10632.583        4.950        2.010      223.300       79.159        0.126      340.414       14.415      871.906
04/30/2014  09:27:00      154.452      116.356      103.940       89.695       81.840       75.349     8045.266     6697.788     5677.438        3.430        1.021      193.375       57.008        0.087      340.371       14.342      871.879
04/30/2014  09:28:00      213.161      143.228       50.077      129.427       84.182       73.007    16751.357     7086.618     5330.012        4.881        1.458      256.811       53.860        0.044      340.534       14.620      871.888
04/30/2014  09:29:00      283.717      166.236       36.639       97.886       93.384       81.430     9581.620     8720.624     6630.830        6.720        1.247      328.831       50.035        0.023      340.283       14.193      871.886
04/30/2014  09:30:00      169.680       45.652       25.185      108.600       89.212       64.612    11794.043     7958.716     4174.759        2.771        1.196      175.714       55.884        0.101      340.255       14.148      871.894
04/30/2014  09:31:00      137.455      118.081       95.932      102.032       92.549       95.013    10410.463     8565.235     9027.554        3.502        1.400      181.210       73.727        0.166      340.465       14.502      871.881
04/30/2014  09:32:00       74.407       40.542       90.679      101.592      119.357       77.245    10320.992    14246.073     5966.795        2.296        1.527       84.735       69.834        0.679      340.662       14.835      871.854
04/30/2014  09:33:00      147.184      100.022      127.622      114.272      100.430       71.141    13058.140    10086.271     5061.090        3.807        1.410      177.954       60.404        0.115      340.650       14.813      871.871
04/30/2014  09:34:00       90.305      102.141      116.754      105.699       70.115       59.940    11172.285     4916.090     3592.812        2.595        0.984      136.336       63.323        0.216      340.375       14.349      871.881
04/30/2014  09:35:00      178.953      167.870       93.809      175.295       82.005       91.599    30728.238     6724.750     8390.359        5.741        2.292      245.366       89.402        0.133      340.281       14.190      871.878
04/30/2014  09:36:00      260.030      144.490       64.418      160.831      120.851       91.223    25866.507    14605.024     8321.681        7.071        2.440      297.478       72.520        0.059      340.307       14.235      871.889
04/30/2014  09:37:00      206.397      126.560      101.695      134.297      123.542       94.770    18035.630    15262.592     8981.354        5.561        2.114      242.110       85.869        0.126      340.369       14.340      871.888
04/30/2014  09:38:00      262.433       97.824       67.344      152.289      116.495      100.121    23191.949    13571.106    10024.269        6.487        2.339      280.072       82.940        0.088      340.241       14.124      871.886
04/30/2014  09:39:00      213.810      102.649       36.854      142.884      112.116       93.077    20415.916    12569.892     8663.241        4.962        2.082      237.174       64.904        0.075      340.552       14.647      871.905
04/30/2014  09:40:00      214.113      143.834       56.789       79.788       78.702       71.797     6366.062     6194.040     5154.782        4.373        0.886      257.939       40.761        0.025      340.427       14.435      871.912
04/30/2014  09:41:00      249.344      164.303       37.113       79.136       66.540       67.653     6262.584     4427.554     4576.866        5.290        0.763      298.610       27.477        0.008      340.059       13.814      871.897
04/30/2014  09:42:00      189.371      146.641       74.812      132.343       89.626       76.223    17514.562     8032.840     5809.996        4.715        1.568      239.510       77.729        0.105      340.443       14.463      871.862
04/30/2014  09:43:00      298.408      102.660       59.982      153.139      120.226      104.746    23451.632    14454.356    10971.717        7.602        2.444      315.573       76.850        0.059      340.477       14.520      871.879
04/30/2014  09:44:00      266.713      189.359      117.136      140.610      113.572      110.097    19771.158    12898.497    12121.356        8.274        2.240      327.097       69.947        0.046      340.410       14.407      871.887
04/30/2014  09:45:00      290.065      101.035       38.015      140.222      108.881       61.563    19662.073    11855.180     3790.037        6.554        1.765      307.158       32.361        0.011      340.476       14.520      871.877
04/30/2014  09:46:00      108.984       70.445       77.620      110.911      109.986       79.626    12301.289    12096.812     6340.225        2.680        1.537      129.769       61.738        0.226      340.771       15.021      871.872
04/30/2014  09:47:00       56.836       38.054      118.253       78.167       89.465       63.429     6110.048     8003.982     4023.295        1.840        0.907       68.399       55.444        0.657      340.843       15.142      871.869
04/30/2014  09:48:00      175.205       75.145       57.445      155.811       99.349       98.545    24277.100     9870.212     9711.147        4.174        2.193      190.640       50.324        0.070      340.760       15.002      871.876
04/30/2014  09:49:00      274.151      181.366       47.928      109.870       91.736       75.143    12071.376     8415.429     5646.530        6.824        1.307      328.713       38.285        0.014      340.389       14.373      871.848
04/30/2014  09:50:00      205.649       91.157       31.754      122.864       96.291       93.471    15095.613     9272.042     8736.783        4.235        1.655      224.947       50.258        0.050      340.775       15.027      871.844
04/30/2014  09:51:00      214.662      150.482       65.104      133.423      100.664       80.641    17801.605    10133.170     6502.964        5.369        1.722      262.154       43.685        0.028      340.526       14.604      871.861
04/30/2014  09:52:00      113.078      144.010      124.641       89.926       85.929       65.818     8086.738     7383.831     4331.983        3.443        0.990      183.099       54.418        0.088      340.542       14.630      871.862
04/30/2014  09:53:00      118.116       52.880       50.851       77.735       78.768       58.275     6042.717     6204.331     3395.972        1.749        0.782      129.413       39.966        0.095      340.449       14.475      871.859
04/30/2014  09:54:00      157.846       50.091       41.076       91.082       89.797       45.127     8295.978     8063.550     2036.446        2.375        0.920      165.603       41.438        0.063      340.810       15.085      871.869
04/30/2014  09:55:00      132.518       92.215      129.236       94.686      116.123       75.822     8965.449    13484.567     5748.939        3.548        1.410      161.445       67.349        0.174      340.689       14.881      871.839
04/30/2014  09:56:00      100.942      122.325      108.401       99.505      114.302       73.141     9901.178    13064.936     5349.576        3.260        1.416      158.596       69.630        0.193      340.964       15.344      871.817
04/30/2014  09:57:00       90.797       91.938       85.595      135.041       88.251       89.102    18236.011     7788.160     7939.242        2.899        1.698      129.216       65.486        0.257      341.260       15.848      871.824
04/30/2014  09:58:00       97.913      108.160      103.005       97.068       76.224       80.812     9422.151     5810.069     6530.502        2.682        1.088      145.896       48.535        0.111      340.789       15.050      871.835
04/30/2014  09:59:00      266.225      165.594       28.006      121.218      107.071       94.116    14693.896    11464.210     8857.799        6.704        1.751      313.524       66.212        0.045      340.359       14.322      871.849
04/30/2014  10:00:00      259.958      154.980       37.898      140.213      107.237       96.564    19659.767    11499.783     9324.665        6.675        2.024      302.650       52.943        0.031      340.578       14.691      871.818
04/30/2014  10:01:00      273.850      127.312       62.460      122.535      104.435       79.328    15014.749    10906.648     6292.856        6.365        1.611      301.997       51.790        0.029      340.830       15.119      871.814
04/30/2014  10:02:00      150.954      -10.291       66.269      134.718      127.815       88.902    18148.974    16336.597     7903.526        3.483        2.119      151.304       74.030        0.239      340.907       15.249      871.820
04/30/2014  10:03:00       55.834       39.733       94.041       86.265      127.262       76.090     7441.607    16195.631     5789.680        2.148        1.471       68.528       85.088        1.542      340.869       15.187      871.783
04/30/2014  10:04:00       93.817      107.643      110.871       76.132       82.364       57.786     5796.094     6783.811     3339.185        2.430        0.796      142.789       46.861        0.108      340.936       15.299      871.795
04/30/2014  10:05:00      328.069      234.153       39.946       90.080       77.700       74.355     8114.349     6037.281     5528.721        9.186        0.984      403.059       44.887        0.012      340.580       14.694      871.801
04/30/2014  10:06:00      160.057       77.499       12.982      120.472      128.061       71.403    14513.614    16399.514     5098.345        3.389        1.801      177.832       50.254        0.080      340.733       14.957      871.769
04/30/2014  10:07:00      214.462      146.310       52.441      108.893       86.251       73.532    11857.780     7439.309     5406.916        4.742        1.235      259.616       31.574        0.015      340.966       15.349      871.759
04/30/2014  10:08:00      331.947      207.914       39.576      116.352       90.744       82.528    13537.720     8234.508     6810.799        9.178        1.429      391.684       36.427        0.009      340.508       14.573      871.779
04/30/2014  10:09:00      120.960       81.608       44.970      132.770       94.521       81.185    17627.768     8934.250     6590.926        2.823        1.658      145.915       57.398        0.155      340.899       15.235      871.759
04/30/2014  10:10:00      147.592       99.478       66.956      152.345      102.578       81.044    23208.852    10522.218     6568.138        3.822        2.015      177.987       61.333        0.119      340.851       15.155      871.772
04/30/2014  10:11:00      149.205      146.762       88.197      125.734       86.826       88.911    15808.997     7538.708     7905.231        4.141        1.563      209.287       63.613        0.092      340.818       15.098      871.763
04/30/2014  10:12:00      210.634       95.319       49.803      121.432      128.154       64.479    14745.684    16423.350     4157.590        4.562        1.766      231.198       45.465        0.039      340.811       15.089      871.758
04/30/2014  10:13:00      216.933      220.928      175.979      141.018      126.630      107.161    19886.072    16035.149    11483.557        8.711        2.370      309.628       92.334        0.089      340.517       14.589      871.765
04/30/2014  10:14:00      144.049       64.599      113.325      101.632       95.110       66.763    10329.059     9045.907     4457.278        3.079        1.192      157.871       59.374        0.141      340.549       14.644      871.796
04/30/2014  10:15:00      323.416      213.550       60.617      142.094      123.845       85.245    20190.580    15337.572     7266.715        9.833        2.140      387.559       68.710        0.031      340.517       14.589      871.789
04/30/2014  10:16:00      347.275      160.369       59.126      177.666      132.863      107.397    31565.339    17652.604    11534.163       10.527        3.038      382.515       53.468        0.020      340.636       14.790      871.795
04/30/2014  10:17:00      311.332      182.763       63.269      158.725       89.324       83.493    25193.644     7978.812     6971.022        8.723        2.007      361.012       68.347        0.036      340.523       14.599      871.785
04/30/2014  10:18:00      235.674      142.673       37.523      128.882      101.028       63.381    16610.646    10206.602     4017.206        5.406        1.542      275.495       36.954        0.018      340.658       14.827      871.794
04/30/2014  10:19:00      155.907      105.630       30.197       88.851       68.464       55.025     7894.476     4687.345     3027.739        2.599        0.780      188.321       35.413        0.035      340.784       15.042      871.797
04/30/2014  10:20:00      161.081       85.493       41.257       89.411       81.313       65.587     7994.307     6611.730     4301.643        2.693        0.945      182.363       40.193        0.049      340.933       15.293      871.785
04/30/2014  10:21:00      325.541      169.047       41.387      109.859      121.749       91.213    12069.011    14822.740     8319.803        8.573        1.761      366.816       44.760        0.015      340.727       14.945      871.800
04/30/2014  10:22:00      151.920      118.916       74.736      107.442       75.282       76.621    11543.834     5667.339     5870.756        3.294        1.154      192.927       51.599        0.072      340.949       15.322      871.792
04/30/2014  10:23:00      215.004       96.869       65.584      142.130       85.057       74.698    20200.823     7234.768     5579.748        4.646        1.651      235.818       68.162        0.084      340.850       15.153      871.768
04/30/2014  10:24:00      254.341      126.850       22.443      109.465       87.969       67.347    11982.686     7738.485     4535.617        5.277        1.213      284.218       44.147        0.024      340.741       14.968      871.768
04/30/2014  10:25:00      300.645      191.287       28.102      120.212       83.128       66.946    14450.982     6910.213     4481.768        7.680        1.292      356.340       42.161        0.014      340.787       15.046      871.765
04/30/2014  10:26:00      157.490       74.622       27.392       72.396       66.284       49.114     5241.195     4393.560     2412.219        2.158        0.602      174.274       29.056        0.028      341.160       15.677      871.754
04/30/2014  10:27:00      158.492       73.779       40.854      121.969      108.414       67.459    14876.546    11753.642     4550.681        3.170        1.559      174.823       36.085        0.043      341.316       15.941      871.762
04/30/2014  10:28:00      208.441      159.546       75.537      127.509       98.810      106.798    16258.610     9763.367    11405.811        5.601        1.871      262.493       64.991        0.061      341.291       15.899      871.751
04/30/2014  10:29:00      172.416      110.193       80.129      133.224       96.617       62.255    17748.756     9334.843     3875.679        3.962        1.548      204.621       49.388        0.058      340.887       15.218      871.754
04/30/2014  10:30:00      162.622      118.436       38.748      135.909       94.294       68.554    18471.292     8891.392     4699.659        3.701        1.603      201.179       51.410        0.065      341.070       15.525      871.730
04/30/2014  10:31:00      161.178      111.128       74.053      125.374       98.937       90.347    15718.544     9788.598     8162.597        3.873        1.683      195.775       86.577        0.196      340.757       14.994      871.724
04/30/2014  10:32:00      277.529      120.041       37.831      103.477      121.778       79.559    10707.591    14829.903     6329.681        6.236        1.593      302.377       42.825        0.020      340.734       14.956      871.726
04/30/2014  10:33:00      208.156      114.355       50.220      130.943       92.914       66.922    17145.997     8633.089     4478.517        4.459        1.513      237.499       56.833        0.057      340.955       15.330      871.716
04/30/2014  10:34:00      159.671      150.030       32.139      128.732       81.858       76.351    16571.860     6700.713     5829.470        3.906        1.455      219.098       54.782        0.063      341.121       15.611      871.705
04/30/2014  10:35:00       79.957       82.699       53.558       76.455       67.519       76.422     5845.324     4558.861     5840.285        1.617        0.812      115.031       39.224        0.116      341.468       16.202      871.693
04/30/2014  10:36:00      155.086       79.477       73.137      173.501      159.022      103.710    30102.587    25288.068    10755.770        5.092        3.307      174.265       87.614        0.253      341.437       16.147      871.674
04/30/2014  10:37:00      249.388      161.022       81.016      129.111      112.874      104.068    16669.548    12740.533    10830.203        6.745        2.012      296.854       77.333        0.068      341.225       15.787      871.706
04/30/2014  10:38:00      273.531      120.699       81.163      103.709       92.001       82.679    10755.455     8464.109     6835.882        6.101        1.303      298.978       66.672        0.050      341.148       15.656      871.733
04/30/2014  10:39:00      232.987       99.451       70.678      140.281      139.816       96.850    19678.654    19548.466     9379.880        5.888        2.430      253.325       83.817        0.109      341.041       15.476      871.739
04/30/2014  10:40:00      155.978      134.066      149.805      158.212      132.974      110.298    25030.916    17682.102    12165.662        5.980        2.744      205.676       91.461        0.198      340.912       15.257      871.716
04/30/2014  10:41:00      224.000      129.760       78.926      131.186      120.880      102.588    17209.785    14612.026    10524.361        5.779        2.117      258.870       77.753        0.090      341.134       15.632      871.714
04/30/2014  10:42:00      139.540      104.476       82.962      103.912       78.205       67.963    10797.687     6116.074     4619.021        2.940        1.077      174.318       37.412        0.046      341.247       15.826      871.724
04/30/2014  10:43:00       98.195       79.413       86.152      111.366      102.487       78.965    12402.447    10503.668     6235.451        2.625        1.457      126.288       69.375        0.302      341.548       16.335      871.714
04/30/2014  10:44:00       97.985      104.029      123.084      107.736       94.301       74.235    11607.077     8892.644     5510.786        3.079        1.301      142.910       55.580        0.151      341.130       15.626      871.699
04/30/2014  10:45:00      132.858       99.396       43.137       73.316       76.154       62.751     5375.304     5799.488     3937.630        2.225        0.756      165.924       48.366        0.085      341.401       16.085      871.699
04/30/2014  10:46:00       41.488       49.027       50.733       61.991       72.991       51.342     3842.908     5327.670     2636.025        0.925        0.590       64.226       27.477        0.183      341.834       16.822      871.671
04/30/2014  10:47:00      172.512      146.975       31.384      137.771       96.638       76.966    18980.818     9338.980     5923.827        4.329        1.712      226.632       63.552        0.079      341.427       16.130      871.646
04/30/2014  10:48:00      340.812      211.140       62.808      152.126       93.007      101.546    23142.342     8650.360    10311.589       10.338        2.105      400.916       62.255        0.024      341.212       15.765      871.611
04/30/2014  10:49:00      283.810      168.124      102.508      138.325      121.350      124.182    19133.818    14725.769    15421.203        8.429        2.464      329.870       83.501        0.064      341.153       15.664      871.594
04/30/2014  10:50:00      169.434      130.542       95.212      144.262      113.083      105.961    20811.495    12787.763    11227.731        4.981        2.241      213.890       97.480        0.208      341.548       16.334      871.605
04/30/2014  10:51:00      128.205       30.155       57.314      114.813      142.673       60.983    13182.072    20355.697     3718.977        2.894        1.863      131.704       61.565        0.219      341.345       15.991      871.601
04/30/2014  10:52:00      211.332       60.992       33.748      114.038      104.608       76.272    13004.699    10942.733     5817.458        3.964        1.488      219.957       67.107        0.093      341.291       15.900      871.592
04/30/2014  10:53:00      188.906      144.772      109.364      135.616       77.551       84.880    18391.799     6014.156     7204.575        5.010        1.581      238.001       68.068        0.082      341.225       15.786      871.566
04/30/2014  10:54:00      139.144      115.828       71.084      113.516       84.199       78.223    12885.859     7089.523     6118.832        3.196        1.305      181.045       68.251        0.142      341.630       16.474      871.571
04/30/2014  10:55:00      189.806      178.136       -0.084      134.430      116.415       73.927    18071.459    13552.401     5465.155        5.242        1.854      260.305       65.606        0.064      341.501       16.254      871.560
04/30/2014  10:56:00      225.679      133.467       30.982      131.186       82.986       72.531    17209.893     6886.668     5260.755        4.952        1.468      262.191       47.036        0.032      341.132       15.631      871.553
04/30/2014  10:57:00      144.624       95.007       39.223       83.651       53.249       57.069     6997.515     2835.493     3256.824        2.228        0.654      173.039       51.107        0.087      341.659       16.524      871.545
04/30/2014  10:58:00      164.481      122.207       46.658       89.422       55.872       73.268     7996.262     3121.659     5368.270        3.032        0.824      204.911       30.599        0.022      341.666       16.536      871.528
04/30/2014  10:59:00      243.447      140.972       24.857      133.186       85.828       57.270    17738.576     7366.449     3279.855        5.407        1.419      281.318       30.290        0.012      341.493       16.242      871.505
04/30/2014  11:00:00      192.066       71.757       46.059      147.896      111.450       88.702    21873.248    12421.191     7868.124        4.315        2.108      205.033       56.832        0.077      341.806       16.771      871.504
04/30/2014  11:01:00      115.595      110.513      140.201      150.064      156.200      111.907    22519.174    24398.313    12523.102        5.232        2.972      159.923      109.245        0.467      341.661       16.525      871.479
04/30/2014  11:02:00      178.519      -53.717       35.607      190.024      124.344       80.921    36109.186    15461.519     6548.273        4.706        2.906      186.425       46.131        0.061      341.524       16.296      871.479
04/30/2014  11:03:00      137.136       70.618       95.705      142.706      111.627       77.757    20364.899    12460.631     6046.144        3.590        1.944      154.250       66.137        0.184      341.679       16.555      871.488
04/30/2014  11:04:00      180.324       -4.420       97.805      153.824      211.794      114.224    23661.805    44856.726    13047.209        6.182        4.078      180.378      109.195        0.366      341.848       16.842      871.432
04/30/2014  11:05:00      277.056      143.813       87.309      149.613      115.562      102.980    22384.040    13354.581    10604.961        7.570        2.317      312.157       81.212        0.068      341.455       16.176      871.471
04/30/2014  11:06:00      167.022      122.745       52.091      138.341       88.660       63.995    19138.317     7860.602     4095.316        3.838        1.555      207.274       49.338        0.057      341.498       16.250      871.482
04/30/2014  11:07:00      155.438      124.780       68.401       92.577       58.361       68.461     8570.492     3405.990     4686.896        3.053        0.833      199.326       42.023        0.044      341.664       16.531      871.465
04/30/2014  11:08:00      224.808      137.771       62.243      108.971       72.491       90.412    11874.596     5254.880     8174.258        4.934        1.265      263.666       61.039        0.054      341.774       16.716      871.469
04/30/2014  11:09:00      310.996      165.144       56.802      145.408      101.650       94.688    21143.411    10332.666     8965.792        8.382        2.022      352.123       72.358        0.042      341.583       16.392      871.429
04/30/2014  11:10:00      124.557      105.157       90.935      152.187      101.909       89.569    23160.757    10385.426     8022.689        3.820        2.078      163.011       91.497        0.315      341.494       16.244      871.413
04/30/2014  11:11:00       78.369      111.857       38.680      113.632       80.367       66.864    12912.208     6458.785     4470.740        2.199        1.192      136.578       50.695        0.138      341.835       16.822      871.398
04/30/2014  11:12:00      126.143       70.057       35.098       84.960       65.517       49.334     7218.211     4292.461     2433.806        1.800        0.697      144.292       34.922        0.059      341.971       17.055      871.364
04/30/2014  11:13:00      268.654      140.301       67.215      127.716      106.068       90.197    16311.394    11250.400     8135.561        6.603        1.785      303.083       72.536        0.057      341.585       16.397      871.349
04/30/2014  11:14:00      243.052       99.350       38.844      112.325       78.329       61.088    12616.811     6135.436     3731.706        4.646        1.124      262.573       41.121        0.025      341.511       16.271      871.331
04/30/2014  11:15:00      282.031      169.983       53.710      118.703       92.353       73.383    14090.344     8529.085     5385.066        6.966        1.400      329.296       43.997        0.018      341.745       16.668      871.281
04/30/2014  11:16:00      206.694      104.448       88.804      160.190      135.611       99.730    25660.904    18390.278     9946.057        5.775        2.700      231.585       70.247        0.092      342.074       17.228      871.291
04/30/2014  11:17:00      265.288      173.165       58.003      151.635      113.026       85.619    22993.287    12774.772     7330.558        7.340        2.155      316.803       32.546        0.011      341.734       16.649      871.296
04/30/2014  11:18:00      255.503      139.989       45.893      123.878       82.687       63.846    15345.805     6837.085     4076.362        5.662        1.313      291.339       48.504        0.028      341.813       16.784      871.280
04/30/2014  11:19:00      271.744      195.784       44.809       81.459       81.058       74.902     6635.513     6570.365     5610.370        6.650        0.941      334.927       37.988        0.013      341.537       16.314      871.277
04/30/2014  11:20:00      103.330       92.775       43.730       98.379       64.397       73.271     9678.512     4146.939     5368.675        2.019        0.960      138.868       48.329        0.121      342.135       17.332      871.241
04/30/2014  11:21:00      273.371      222.648       33.002      187.855      131.138      113.004    35289.506    17197.168    12769.896        9.531        3.263      352.567       79.696        0.051      341.798       16.759      871.211
04/30/2014  11:22:00      197.151      174.532      140.664      164.532      115.961       97.697    27070.843    13446.944     9544.657        6.958        2.503      263.306       99.058        0.142      342.026       17.146      871.228
04/30/2014  11:23:00      109.944       72.719      112.301      116.505      174.896      102.270    13573.482    30588.492    10459.113        4.229        2.731      131.817      100.768        0.584      341.877       16.894      871.229
04/30/2014  11:24:00       67.957       81.214      125.171       83.287       93.013       56.385     6936.803     8651.435     3179.221        2.282        0.938      105.896       54.956        0.269      342.081       17.240      871.235
04/30/2014  11:25:00       81.980      -15.338       55.143       79.546      103.218       65.006     6327.572    10654.049     4225.843        1.560        1.060       83.402       63.736        0.584      341.859       16.866      871.220
04/30/2014  11:26:00      126.322      -28.496       67.249      128.850      146.564       80.287    16602.246    21481.145     6446.033        3.290        2.226      129.496       81.718        0.398      341.953       17.021      871.180
04/30/2014  11:27:00       60.021      127.093      147.971      109.108      120.209       93.592    11904.633    14450.304     8759.384        3.838        1.756      140.553       81.871        0.339      342.501       17.953      871.181
04/30/2014  11:28:00      191.224       97.741       49.261      158.043       85.597       70.271    24977.508     7326.796     4938.016        4.289        1.862      214.756       27.998        0.017      342.455       17.874      871.188
04/30/2014  11:29:00      271.600      201.241       29.063      145.330      116.667       74.031    21120.787    13611.122     5480.553        7.765        2.011      338.030       59.976        0.031      342.187       17.418      871.203
04/30/2014  11:30:00      307.013      217.111       18.046      169.179      113.703      108.759    28621.581    12928.413    11828.515        9.754        2.669      376.024       74.463        0.039      341.822       16.798      871.192
04/30/2014  11:31:00      228.742      201.705       11.103      143.157       95.089       80.697    20493.786     9041.937     6512.058        6.458        1.802      304.972       55.869        0.034      341.827       16.807      871.188
04/30/2014  11:32:00      221.919      145.441       37.702      160.816      110.313       88.131    25861.874    12168.872     7767.084        5.880        2.290      265.333       55.520        0.044      342.033       17.156      871.154
04/30/2014  11:33:00      308.301      191.550       74.007      139.256       80.423       72.992    19392.291     6467.934     5327.782        8.420        1.559      362.961       49.144        0.018      341.911       16.949      871.156
04/30/2014  11:34:00      277.085      195.796       39.904      150.755      131.410       91.453    22727.017    17268.606     8363.736        8.252        2.418      339.281       70.462        0.043      341.866       16.873      871.161
04/30/2014  11:35:00      229.394      168.794       36.596      110.973       81.688       72.845    12315.059     6672.990     5306.393        5.337        1.215      284.804       39.863        0.020      341.683       16.565      871.148
04/30/2014  11:36:00      194.833      204.129       45.663      150.821      110.084       89.826    22746.871    12118.386     8068.640        6.232        2.147      282.185       77.686        0.076      341.886       16.906      871.094
04/30/2014  11:37:00      133.494       94.866        6.117      122.279      124.327       72.216    14952.143    15457.088     5215.153        3.123        1.781      163.769       47.289        0.083      342.379       17.745      871.087
04/30/2014  11:38:00      161.608      118.960       59.745      172.633       96.434       82.862    29802.023     9299.496     6866.119        4.489        2.298      200.671       51.069        0.065      342.619       18.155      871.083
04/30/2014  11:39:00      208.444       82.925       23.954      149.324      112.093       77.506    22297.802    12564.951     6007.120        4.588        2.043      224.334       54.112        0.058      342.377       17.744      871.070
04/30/2014  11:40:00      294.669      165.631       34.788      118.697       89.500       75.770    14088.988     8010.194     5741.152        7.165        1.392      338.029       40.752        0.015      342.230       17.490      871.065
04/30/2014  11:41:00      249.567      118.399        8.399      137.864       84.919       71.387    19006.355     7211.196     5096.102        5.384        1.566      276.229       37.753        0.019      342.736       18.352      871.040
04/30/2014  11:42:00      178.756      133.348       41.351      140.816      100.879       78.838    19829.089    10176.476     6215.356        4.383        1.811      223.014       43.530        0.038      342.733       18.347      871.043
04/30/2014  11:43:00      271.345      147.551       53.092      163.438      130.844       92.700    26712.073    17120.035     8593.319        7.531        2.621      308.868       63.595        0.042      342.244       17.516      871.013
04/30/2014  11:44:00      399.945      250.602       58.498      149.244      140.971      104.586    22273.701    19872.695    10938.180       13.962        2.654      471.972       73.698        0.024      342.143       17.344      870.990
04/30/2014  11:45:00      232.298      167.311       99.219      169.398      128.512      108.484    28695.841    16515.395    11768.756        7.438        2.849      286.278       77.663        0.074      342.348       17.693      871.007
04/30/2014  11:46:00      294.686      164.845      124.341      148.564      185.368      130.213    22071.393    34361.113    16955.375       10.142        3.669      337.659       95.128        0.079      342.060       17.202      871.013
04/30/2014  11:47:00      332.834      212.597       67.252       92.648       90.811       85.630     8583.701     8246.672     7332.526        9.233        1.208      394.938       53.736        0.019      342.114       17.295      871.005
04/30/2014  11:48:00      240.882      127.579       45.384      142.628      106.977       83.676    20342.710    11444.153     7001.625        5.757        1.939      272.582       60.518        0.049      342.254       17.532      870.976
04/30/2014  11:49:00      264.284      179.501       32.306      187.109      120.207       77.154    35009.805    14449.635     5952.742        7.925        2.771      319.479       78.322        0.060      342.438       17.844      870.968
04/30/2014  11:50:00      307.027      180.034       65.150      175.248      132.212      121.586    30711.711    17479.890    14783.265        9.694        3.149      355.918       99.896        0.079      342.501       17.952      870.921
04/30/2014  11:51:00      173.472       64.270       33.403      121.163      134.591       79.058    14680.433    18114.620     6250.150        3.718        1.952      184.995       39.842        0.046      342.194       17.431      870.922
04/30/2014  11:52:00      140.538       97.154       42.366      119.168       77.466       55.657    14201.067     6000.929     3097.695        2.714        1.165      170.850       16.685        0.010      342.510       17.970      870.902
04/30/2014  11:53:00      361.657      201.710       63.513      143.019      134.564      115.575    20454.448    18107.374    13357.521       11.371        2.596      414.105       44.162        0.011      342.555       18.043      870.874
04/30/2014  11:54:00      124.057       93.652      123.226      195.502       97.193       89.056    38221.083     9446.506     7930.968        4.746        2.780      155.437       90.844        0.342      342.752       18.380      870.841
04/30/2014  11:55:00      277.765      181.913      100.289      228.403      143.589       96.350    52168.033    20617.922     9283.334       10.117        4.103      332.033      101.107        0.093      342.521       17.988      870.837
04/30/2014  11:56:00      140.136      113.427       59.591      148.819       96.117       70.096    22146.960     9238.510     4913.435        3.617        1.815      180.288       72.300        0.161      342.383       17.751      870.853
04/30/2014  11:57:00      120.774       99.835       80.529      107.748       62.157       58.709    11609.534     3863.522     3446.754        2.498        0.946      156.695       45.671        0.085      342.578       18.082      870.840
04/30/2014  11:58:00      145.522      120.576       71.022       95.769       71.159       80.930     9171.706     5063.558     6549.643        3.077        1.039      188.985       45.746        0.059      342.724       18.332      870.819
04/30/2014  11:59:00      274.921      198.802       47.417      148.721      120.050      101.669    22117.882    14411.918    10336.522        8.210        2.343      339.269       82.361        0.059      342.462       17.887      870.798
04/30/2014  12:00:00      253.466      144.210       57.585      157.841      103.964       73.534    24913.734    10808.471     5407.308        6.474        2.056      291.619       56.727        0.038      342.324       17.651      870.801
04/30/2014  12:01:00       88.031       90.979      134.801      137.240      139.229      109.112    18834.754    19384.852    11905.390        4.215        2.506      126.596      104.111        0.676      342.500       17.952      870.762
04/30/2014  12:02:00      155.085      107.112       98.228      159.848      124.758       91.239    25551.261    15564.485     8324.473        4.730        2.472      188.479       73.003        0.150      342.506       17.960      870.764
04/30/2014  12:03:00       65.205      139.534      164.564      115.452      128.047       87.171    13329.110    16396.161     7598.821        4.406        1.866      154.018       73.114        0.225      342.501       17.953      870.744
04/30/2014  12:04:00      129.166      -26.149       74.441      102.217      139.000       86.722    10448.270    19321.025     7520.631        3.009        1.864      131.786       96.334        0.534      342.250       17.525      870.722
04/30/2014  12:05:00      119.069       70.274       55.919      105.989       74.931       66.060    11233.584     5614.694     4363.891        2.172        1.061      138.260       55.775        0.163      342.466       17.894      870.732
04/30/2014  12:06:00      265.108      215.064       25.814      136.099       89.928       92.223    18522.894     8086.960     8505.099        7.615        1.756      341.372       56.604        0.027      342.363       17.716      870.688
04/30/2014  12:07:00      293.667      178.724       32.507      122.293       89.153       80.264    14955.517     7948.314     6442.388        7.429        1.467      343.777       23.054        0.004      342.408       17.794      870.680
04/30/2014  12:08:00      187.663      192.468      106.520      173.550       95.002       86.481    30119.663     9025.406     7479.031        6.511        2.331      268.815      101.746        0.143      342.303       17.617      870.675
04/30/2014  12:09:00      291.344      153.737       81.021      188.618      129.833      100.295    35576.612    16856.624    10059.063        8.877        3.125      329.418       74.543        0.051      342.290       17.592      870.646
04/30/2014  12:10:00      359.595      234.128       61.316      129.028      102.585      103.264    16648.270    10523.705    10663.390       11.285        1.892      429.097       57.122        0.018      342.560       18.053      870.622
04/30/2014  12:11:00      196.252      148.816       34.304      148.139      113.251       84.893    21945.271    12825.679     7206.843        5.190        2.099      246.294       40.990        0.028      343.038       18.865      870.645
04/30/2014  12:12:00      365.502      232.030       42.686      187.964      134.498       71.634    35330.533    18089.679     5131.458       12.389        2.928      432.931       63.440        0.021      342.343       17.684      870.646
04/30/2014  12:13:00      191.343      129.872       16.629      156.326      106.395       90.276    24437.934    11319.912     8149.756        4.882        2.195      231.255       72.854        0.099      342.617       18.150      870.646
04/30/2014  12:14:00      299.951      182.532       28.469       94.845       96.326       76.527     8995.608     9278.639     5856.348        7.411        1.207      351.125       29.901        0.007      342.189       17.423      870.640
04/30/2014  12:15:00      153.853      133.246        0.741       99.284       76.328       73.462     9857.242     5825.940     5396.647        3.125        1.054      203.532       34.098        0.028      342.304       17.619      870.632
04/30/2014  12:16:00       69.544      -28.904       24.321       98.578      122.304       53.490     9717.641    14958.176     2861.199        1.689        1.377       75.312       33.448        0.197      342.331       17.666      870.601
04/30/2014  12:17:00      139.630       19.010       50.894      101.716      174.368       79.930    10346.050    30404.326     6388.880        3.478        2.357      140.918       90.114        0.409      342.784       18.434      870.537
04/30/2014  12:18:00       76.733       63.836       87.017       67.057      101.075       56.617     4496.576    10216.158     3205.492        1.772        0.896       99.815       46.751        0.219      342.942       18.703      870.513
04/30/2014  12:19:00      359.413      207.873       84.583      131.952      112.773      100.550    17411.215    12717.639    10110.350       10.988        2.012      415.198       50.572        0.015      342.475       17.907      870.540
04/30/2014  12:20:00      340.366      242.704       73.692      186.540      143.343      110.416    34797.265    20547.205    12191.794       12.385        3.377      418.037       82.279        0.039      342.757       18.386      870.532
04/30/2014  12:21:00      182.611      226.444      199.768      154.161      128.182      116.983    23765.480    16430.624    13684.970        8.920        2.694      290.901      100.953        0.120      342.390       17.763      870.529
04/30/2014  12:22:00      120.784      148.353      175.850      119.491      113.354       89.287    14278.058    12849.114     7972.134        5.130        1.755      191.305       71.048        0.138      342.352       17.698      870.508
04/30/2014  12:23:00      153.023      149.576      105.479      142.595       97.921       87.387    20333.219     9588.522     7636.428        4.723        1.878      213.984       74.170        0.120      342.470       17.901      870.510
04/30/2014  12:24:00      323.884      194.143       70.863      118.172       98.314       90.912    13964.634     9665.662     8264.903        8.975        1.595      377.614       54.779        0.021      342.574       18.074      870.480
04/30/2014  12:25:00      271.695      236.591       24.053      162.495      110.477      104.423    26404.742    12205.221    10904.074        8.993        2.476      360.269       64.099        0.032      342.691       18.274      870.460
04/30/2014  12:26:00      172.421      118.998       32.774      171.125      119.857       80.932    29283.779    14365.637     6550.029        4.757        2.510      209.498       65.105        0.097      343.058       18.901      870.452
04/30/2014  12:27:00      205.690      173.268        2.714      110.768      126.172       79.647    12269.523    15919.306     6343.577        5.343        1.727      268.943       77.282        0.083      342.696       18.283      870.485
04/30/2014  12:28:00      142.030      158.660       19.006      115.240      112.400       72.323    13280.218    12633.686     5230.642        3.842        1.557      212.945       64.445        0.092      342.566       18.062      870.465
04/30/2014  12:29:00      117.050       25.499       65.315      140.092      119.121       83.927    19625.641    14189.730     7043.743        2.973        2.043      119.795       58.321        0.237      342.917       18.660      870.460
04/30/2014  12:30:00      144.089       -4.564       49.743      115.840      169.047       69.690    13418.905    28576.791     4856.678        3.505        2.343      144.161       69.323        0.231      343.092       18.959      870.430
04/30/2014  12:31:00       95.381       72.664       73.376      170.387      126.398       74.096    29031.656    15976.332     5490.144        3.512        2.525      119.906       76.069        0.402      343.118       19.003      870.422
04/30/2014  12:32:00      288.357      192.104      105.096      168.284      129.280      122.879    28319.545    16713.336    15099.186        9.560        3.007      346.488       81.310        0.055      342.612       18.140      870.393
04/30/2014  12:33:00      396.180      234.145       61.919      173.584      162.369      125.336    30131.315    26363.598    15709.083       14.390        3.610      460.198       73.669        0.026      342.718       18.320      870.371
04/30/2014  12:34:00      324.472      188.841       65.967      156.118      163.312      100.927    24372.772    26670.747    10186.161       10.325        3.061      375.423       68.659        0.033      342.758       18.387      870.399
04/30/2014  12:35:00      321.233      194.470       38.600      147.052      115.746       82.874    21624.206    13397.232     6868.107        9.219        2.094      375.512       49.484        0.017      342.502       17.953      870.379
04/30/2014  12:36:00      145.490      102.772       65.324      105.269       75.459       70.935    11081.625     5694.020     5031.735        2.890        1.090      178.127       42.890        0.058      342.691       18.276      870.370
04/30/2014  12:37:00      280.593      136.199       54.550      140.891      149.378       88.448    19850.155    22313.930     7823.099        7.511        2.499      311.902       59.872        0.037      342.941       18.700      870.350
04/30/2014  12:38:00      329.823      178.048       54.470      200.725      126.028      117.019    40290.575    15882.982    13693.444       10.665        3.493      374.813       64.807        0.030      343.078       18.934      870.310
04/30/2014  12:39:00      217.936      144.073       50.904      149.522      119.342      102.346    22356.684    14242.502    10474.729        5.895        2.354      261.253       68.343        0.068      343.059       18.901      870.358
04/30/2014  12:40:00      383.993      272.338       76.294      178.694      115.486      114.079    31931.489    13337.038    13013.957       14.285        2.914      470.763       22.430        0.002      342.678       18.253      870.329
04/30/2014  12:41:00      341.683      214.117       82.193      206.992      147.584       97.045    42845.736    21781.018     9417.643       12.168        3.702      403.229       23.609        0.003      342.881       18.598      870.332
04/30/2014  12:42:00      102.120       62.068       84.852      158.273      172.164      118.330    25050.395    29640.372    14001.884        4.507        3.435      119.504      103.009        0.743      343.143       19.045      870.337
04/30/2014  12:43:00      122.177      160.406      123.880      156.446      112.622      127.921    24475.337    12683.662    16363.884        5.475        2.676      201.637      112.376        0.311      343.113       18.992      870.316
04/30/2014  12:44:00      353.366      227.623       38.363      198.831      125.967      106.405    39533.960    15867.637    11322.044       12.242        3.336      420.333       55.461        0.017      342.758       18.390      870.331
04/30/2014  12:45:00      263.852      189.511       53.674      127.172      106.147       94.527    16172.753    11267.249     8935.407        7.239        1.819      324.857       54.268        0.028      342.921       18.666      870.337
04/30/2014  12:46:00      228.895      185.491       91.432      135.614       95.588       78.683    18391.142     9137.069     6191.008        6.443        1.686      294.618       76.378        0.067      342.699       18.288      870.344
04/30/2014  12:47:00      223.241      105.435       72.822      130.380       94.938       79.816    16998.865     9013.267     6370.565        4.931        1.619      246.887       36.639        0.022      342.611       18.138      870.351
04/30/2014  12:48:00      302.364      193.822       90.986      203.612      114.990      126.449    41457.981    13222.615    15989.308       10.396        3.533      359.153      114.422        0.101      342.544       18.024      870.336
04/30/2014  12:49:00      267.690      155.038       77.412      124.174      105.819       96.357    15419.277    11197.694     9284.584        6.879        1.795      309.346       65.195        0.044      342.602       18.124      870.339
04/30/2014  12:50:00      286.010      198.155       57.306      116.662       68.706       81.161    13610.024     4720.500     6587.067        7.463        1.246      347.947       37.876        0.012      342.643       18.193      870.316
04/30/2014  12:51:00      197.090      121.224      125.974      150.556      136.438      106.982    22666.964    18615.374    11445.065        6.106        2.636      231.387       97.885        0.179      343.189       19.121      870.295
04/30/2014  12:52:00      198.825      156.990       83.479      109.276      129.202      110.727    11941.198    16693.058    12260.365        5.601        2.045      253.332       94.269        0.138      342.448       17.862      870.279
04/30/2014  12:53:00      264.683      175.381       74.359      175.598      119.997       92.670    30834.625    14399.215     8587.656        8.007        2.691      317.515       81.437        0.066      342.788       18.441      870.242
04/30/2014  12:54:00      361.973      136.142       65.211      184.812      155.551      125.674    34155.322    24196.220    15793.987       11.396        3.707      386.729      101.854        0.069      343.108       18.984      870.217
04/30/2014  12:55:00      344.253      160.503       57.842      177.245      128.563      103.812    31415.710    16528.379    10776.828       10.316        2.936      379.831       71.981        0.036      342.941       18.699      870.232
04/30/2014  12:56:00      319.606      211.813       77.305      138.605      104.778      101.965    19211.266    10978.434    10396.895        9.678        2.029      383.422       62.765        0.027      342.921       18.666      870.222
04/30/2014  12:57:00      204.142      133.972      110.984      138.779      115.799       99.157    19259.481    13409.316     9832.199        5.721        2.125      244.177       79.852        0.107      342.901       18.632      870.217
04/30/2014  12:58:00      353.236      199.728       55.160      153.850      114.429       94.866    23669.767    13094.024     8999.640       10.673        2.288      405.792       23.616        0.003      343.028       18.848      870.229
04/30/2014  12:59:00      366.849      197.575       77.705      122.473      109.425       97.554    14999.738    11973.784     9516.826       10.806        1.825      416.671       60.875        0.021      342.939       18.696      870.212
04/30/2014  13:00:00      281.206      198.004       28.841      183.340      128.233      100.205    33613.672    16443.648    10040.959        8.959        3.005      343.922       59.599        0.030      343.088       18.951      870.149
04/30/2014  13:01:00      288.156      183.720       38.165      175.170      100.923       86.851    30684.667    10185.500     7543.083        8.332        2.421      341.741       43.383        0.016      343.360       19.413      870.136
04/30/2014  13:02:00      439.696      274.600      100.064      198.617      157.581      121.594    39448.670    24831.730    14785.185       17.889        3.953      518.400       78.981        0.023      343.048       18.881      870.116
04/30/2014  13:03:00      400.127      188.233       45.376      199.046      130.972      117.298    39619.128    17153.637    13758.752       13.405        3.527      442.191       97.408        0.049      342.898       18.626      870.150
04/30/2014  13:04:00      426.381      289.274       31.889      145.087      100.920       87.851    21050.302    10184.775     7717.713       15.272        1.948      515.248       29.914        0.003      342.517       17.978      870.186
04/30/2014  13:05:00      274.048      135.802       79.437      187.935      145.612       91.547    35319.717    21202.884     8380.820        8.237        3.245      305.850       56.413        0.034      342.984       18.771      870.192
04/30/2014  13:06:00      220.060      149.618      100.130      160.656      128.002       87.737    25810.447    16384.490     7697.787        6.536        2.495      266.105       67.723        0.065      343.133       19.027      870.145
04/30/2014  13:07:00      359.875      178.033       67.664      182.261      168.422      124.728    33219.117    28366.107    15557.036       12.145        3.857      401.504      106.224        0.070      342.914       18.655      870.114
04/30/2014  13:08:00      423.296      264.377       70.894      126.351      104.527       90.425    15964.618    10925.829     8176.768       14.458        1.753      499.074       59.165        0.014      342.825       18.503      870.137
04/30/2014  13:09:00      292.612      221.516       29.509      143.971      111.607       81.559    20727.593    12456.180     6651.922        8.769        1.992      367.003       43.024        0.014      343.059       18.900      870.105
04/30/2014  13:10:00      299.500      215.888       30.423      150.926      117.320      108.652    22778.641    13763.993    11805.176        9.278        2.417      369.199       75.499        0.042      342.998       18.798      870.093
04/30/2014  13:11:00      189.351      186.385       -6.741      140.163      110.357      100.685    19645.540    12178.757    10137.518        5.629        2.098      265.694       78.083        0.086      342.995       18.792      870.072
04/30/2014  13:12:00      229.681      170.225       49.284      158.448      126.896       93.684    25105.777    16102.661     8776.715        6.706        2.499      285.884       32.122        0.013      343.361       19.415      870.050
04/30/2014  13:13:00      260.547      177.706       42.972      177.658      113.585       98.462    31562.476    12901.507     9694.719        7.772        2.708      315.379       51.939        0.027      343.320       19.345      870.051
04/30/2014  13:14:00      290.943      181.835       36.063      150.121      124.565       79.610    22536.246    15516.359     6337.694        8.169        2.220      343.092       35.369        0.011      342.928       18.678      870.062
04/30/2014  13:15:00      179.289      144.308       51.491       97.357       77.411       65.207     9478.433     5992.417     4251.917        3.767        0.986      230.151       44.716        0.038      342.854       18.553      870.051
04/30/2014  13:16:00      289.188      159.673       81.355      141.301      126.669      102.072    19966.081    16045.034    10418.662        8.108        2.321      330.341       69.802        0.045      343.202       19.145      870.055
04/30/2014  13:17:00      114.835      185.755      169.543      124.677      124.057      100.330    15544.373    15390.253    10066.080        5.871        2.050      218.385       84.231        0.149      343.108       18.986      870.063
04/30/2014  13:18:00      126.188      124.355       99.635      150.113       99.134       92.979    22533.927     9827.605     8645.112        4.115        2.050      177.166       93.735        0.280      343.278       19.275      870.083
04/30/2014  13:19:00      286.505      173.990       44.994       99.788       89.257       61.510     9957.726     7966.885     3783.491        6.804        1.085      335.198       46.175        0.019      342.807       18.472      870.097
04/30/2014  13:20:00      219.436      167.730       26.561      123.662       91.675       89.289    15292.268     8404.238     7972.612        5.432        1.583      276.199       54.943        0.040      343.030       18.852      870.088
04/30/2014  13:21:00      194.557      124.275       85.540      126.678       73.639       69.738    16047.341     5422.725     4863.325        4.347        1.317      230.860       51.244        0.049      343.354       19.403      870.092
04/30/2014  13:22:00      219.410      153.132       46.979      170.982      115.475       85.320    29234.896    13334.422     7279.557        6.181        2.492      267.563       47.953        0.032      343.153       19.063      870.090
04/30/2014  13:23:00      155.803       89.665       25.631      107.008       76.995       56.832    11450.818     5928.265     3229.933        2.679        1.030      179.762       41.009        0.052      343.248       19.223      870.070
04/30/2014  13:24:00      324.974      238.761       46.882      170.767      135.675       89.463    29161.345    18407.719     8003.554       11.018        2.779      403.256       69.573        0.030      343.243       19.216      870.058
04/30/2014  13:25:00      337.586      219.182       64.165      177.486      141.291      137.708    31501.442    19963.119    18963.475       11.826        3.521      402.498       85.326        0.045      343.315       19.335      870.037
04/30/2014  13:26:00      465.670      285.852       68.621      164.547      125.173      109.342    27075.710    15668.207    11955.683       17.897        2.735      546.407       77.559        0.020      343.094       18.961      870.031
04/30/2014  13:27:00      269.529      161.841       37.243      101.399       98.658       68.918    10281.733     9733.413     4749.759        6.249        1.238      314.386       37.325        0.014      343.316       19.339      870.054
04/30/2014  13:28:00      123.651      145.242      137.749      127.805      110.414       77.426    16334.187    12191.162     5994.822        4.493        1.726      190.748       64.193        0.113      343.143       19.044      870.028
04/30/2014  13:29:00       94.094       96.877       99.828       88.244       98.185       78.123     7787.051     9640.251     6103.195        2.586        1.177      135.051       64.495        0.228      343.169       19.089      870.006
04/30/2014  13:30:00      134.796       61.076       11.871      112.288       74.338       65.739    12608.660     5526.121     4321.642        2.224        1.123      147.987       44.055        0.089      343.694       19.984      870.007
04/30/2014  13:31:00      427.848      276.106       33.279      170.548      138.399       86.755    29086.694    19154.216     7526.377       15.807        2.788      509.204       36.473        0.005      343.159       19.072      869.981
04/30/2014  13:32:00      140.924      107.765       35.023      153.078       93.378       67.763    23432.980     8719.519     4591.890        3.471        1.837      177.406       37.071        0.044      343.643       19.897      869.970
04/30/2014  13:33:00      163.238      122.220       50.212      131.029       92.588       71.409    17168.629     8572.582     5099.239        3.747        1.542      203.923       53.046        0.068      343.877       20.296      869.987
04/30/2014  13:34:00      241.103      178.558       26.538      121.383       98.491       94.666    14733.828     9700.475     8961.650        6.205        1.670      300.023       57.970        0.037      343.008       18.814      869.948
04/30/2014  13:35:00      207.873       99.614       43.979      159.208      144.949      109.928    25347.064    21010.208    12084.219        5.674        2.922      230.509       60.826        0.070      343.586       19.800      869.939
04/30/2014  13:36:00      340.555      218.684       68.808      132.940      105.628       89.758    17673.005    11157.364     8056.579       10.270        1.844      404.723       34.535        0.007      342.982       18.769      869.975
04/30/2014  13:37:00      117.802        8.345       57.387       88.982      145.663       85.819     7917.828    21217.650     7364.871        2.686        1.825      118.097       73.190        0.384      342.953       18.722      870.005
04/30/2014  13:38:00       81.500      -73.295       22.335       76.608      157.638       63.346     5868.799    24849.620     4012.773        2.362        1.737      109.610       86.806        0.627      343.288       19.293      869.975
04/30/2014  13:39:00      183.514      109.487       29.830      113.237       88.048       85.622    12822.676     7752.432     7331.174        3.722        1.395      213.694       65.145        0.093      343.674       19.951      870.000
04/30/2014  13:40:00      231.447      155.923       79.908      175.129      141.227      108.059    30670.193    19944.953    11676.768        7.327        3.115      279.069       73.052        0.069      343.567       19.767      869.986
04/30/2014  13:41:00       80.971       88.594       71.939      118.864      112.289       79.286    14128.720    12608.793     6286.329        2.630        1.651      120.022       70.967        0.350      343.678       19.956      870.000
04/30/2014  13:42:00       76.000       84.229       74.627       95.084       82.988       86.932     9041.016     6887.080     7557.122        2.096        1.174      113.448       65.001        0.328      343.561       19.758      869.996
04/30/2014  13:43:00      136.762       53.901       29.122       73.118       55.902       47.106     5346.238     3125.062     2219.021        1.657        0.535      147.000       27.772        0.036      343.659       19.927      869.984
04/30/2014  13:44:00      217.810      161.240       20.397      129.724      103.679       83.390    16828.320    10749.418     6953.901        5.419        1.727      270.998       49.041        0.033      343.347       19.393      869.980
04/30/2014  13:45:00      226.399      221.284       10.649      168.194      150.290      118.794    28289.244    22587.132    14112.002        8.265        3.249      316.580       92.925        0.086      343.467       19.595      869.917
04/30/2014  13:46:00      392.228      199.377       60.508      206.710      163.615      103.543    42729.152    26769.866    10721.210       13.872        4.011      439.993       83.518        0.036      343.532       19.707      869.912
04/30/2014  13:47:00      278.309      190.613      126.554      139.811      133.911       92.564    19546.990    17932.122     8568.135        8.792        2.302      337.326       68.525        0.041      343.807       20.175      869.901
04/30/2014  13:48:00      311.384      152.265       66.132      152.240      145.049       92.807    23176.869    21039.169     8613.162        8.866        2.641      346.619       75.308        0.047      343.400       19.483      869.888
04/30/2014  13:49:00      245.669      225.911      224.013      208.562      169.908      152.194    43498.136    28868.683    23163.153       12.853        4.776      333.750      135.203        0.164      343.157       19.068      869.897
04/30/2014  13:50:00      297.964      211.139      109.823      191.561      122.396      120.891    36695.663    14980.754    14614.666       10.584        3.315      365.188      103.712        0.081      343.259       19.242      869.903
04/30/2014  13:51:00      353.032      208.639       60.790      141.641      122.202       94.982    20062.287    14933.432     9021.538       10.793        2.201      410.075       67.179        0.027      343.577       19.783      869.909
04/30/2014  13:52:00      197.427      137.741       87.263      131.213       96.608       95.571    17216.862     9333.194     9133.830        5.062        1.784      240.728       84.498        0.123      343.521       19.688      869.939
04/30/2014  13:53:00      154.922       65.488       25.057       89.640       74.047       58.783     8035.320     5482.936     3455.457        2.294        0.849      168.195       40.584        0.058      343.556       19.750      869.952
04/30/2014  13:54:00      152.994      112.182       19.066       77.894       68.278       58.861     6067.505     4661.922     3464.601        2.527        0.710      189.716       45.936        0.059      343.531       19.706      869.940
04/30/2014  13:55:00       53.344      133.250       -3.404      125.513      154.103       72.920    15753.535    23747.736     5317.254        3.271        2.241      143.531       61.245        0.182      343.230       19.192      869.916
04/30/2014  13:56:00      264.703      157.292       16.871      160.964      101.152       78.286    25909.525    10231.704     6128.652        6.867        2.113      307.909       39.098        0.016      343.448       19.562      869.875
04/30/2014  13:57:00      117.776       77.636       26.910      123.199       85.804       68.917    15178.103     7362.353     4749.591        2.395        1.365      141.062       38.010        0.073      343.577       19.785      869.862
04/30/2014  13:58:00      156.299       99.755       35.041      112.366       89.652       73.092    12626.024     8037.427     5342.390        3.080        1.300      185.420       50.252        0.073      343.681       19.962      869.861
04/30/2014  13:59:00      111.305       81.064       25.618      106.295       68.201       54.011    11298.676     4651.401     2917.156        1.924        0.943      137.695       12.582        0.008      343.866       20.278      869.851
04/30/2014  14:00:00      169.986      160.413       19.117       98.834       94.599       85.575     9768.188     8948.899     7323.120        4.051        1.302      233.726       55.659        0.057      343.913       20.358      869.833
04/30/2014  14:01:00      291.330      224.892       66.317      189.069      135.189      120.220    35747.089    18275.989    14452.923       10.415        3.424      368.034       67.711        0.034      343.831       20.218      869.813
04/30/2014  14:02:00      263.721      146.862       80.810      166.695       98.725       89.281    27787.128     9746.704     7971.068        7.157        2.275      301.856       76.918        0.065      343.446       19.560      869.817
04/30/2014  14:03:00      219.799      192.831       86.975      133.032       88.322       87.985    17697.600     7800.715     7741.382        6.314        1.662      292.396       84.986        0.084      343.819       20.195      869.833
04/30/2014  14:04:00      191.777      135.879      106.924      142.160      124.393       89.366    20209.508    15473.551     7986.193        5.516        2.183      235.035       54.991        0.055      343.495       19.646      869.834
04/30/2014  14:05:00      237.770      171.169       22.673       99.699       65.816       51.623     9939.814     4331.728     2664.911        5.164        0.847      292.973       34.272        0.014      343.335       19.369      869.845
04/30/2014  14:06:00      106.684       69.325       41.748       85.964       79.055       68.510     7389.800     6249.771     4693.599        1.813        0.917      127.230       44.097        0.120      343.691       19.980      869.832
04/30/2014  14:07:00       81.340      105.025       97.201       86.002       88.824       72.237     7396.309     7889.676     5218.242        2.380        1.025      132.840       62.780        0.223      343.687       19.973      869.807
04/30/2014  14:08:00      240.740      175.364      107.627      156.898       80.447      106.694    24617.122     6471.720    11383.641        7.137        2.124      297.840      106.617        0.128      343.484       19.624      869.788
04/30/2014  14:09:00      290.030      214.462      148.832      132.833      105.708      100.126    17644.526    11174.168    10025.120        9.555        1.942      360.709       82.385        0.052      343.311       19.330      869.762
04/30/2014  14:10:00      178.558      218.592      193.905      143.459      128.905      108.743    20580.425    16616.440    11825.053        8.313        2.451      282.250       97.560        0.119      343.540       19.720      869.765
04/30/2014  14:11:00      131.600       94.938       51.725       77.754       71.721       54.455     6045.683     5143.966     2965.353        2.158        0.708      162.271       29.053        0.032      343.509       19.669      869.744
04/30/2014  14:12:00      151.830       88.294       52.479       86.193       80.401       79.320     7429.219     6464.365     6291.658        2.689        1.009      175.637       64.828        0.136      343.463       19.590      869.702
04/30/2014  14:13:00       90.266       96.449       97.093      110.842       67.215       55.347    12285.939     4517.833     3063.237        2.337        0.993      132.100       43.102        0.106      343.519       19.686      869.659
04/30/2014  14:14:00      144.084      170.271      114.117      173.534      120.796      103.283    30114.170    14591.761    10667.311        5.906        2.769      223.052       99.875        0.200      343.932       20.390      869.643
04/30/2014  14:15:00      241.752      187.833       14.541      146.028      100.388       85.309    21324.167    10077.834     7277.579        6.630        1.934      306.146       53.429        0.030      343.804       20.170      869.639
04/30/2014  14:16:00      338.016      223.896       41.549      180.191      110.891      102.017    32468.923    12296.714    10407.426       11.063        2.759      405.443       56.246        0.019      343.895       20.326      869.627
04/30/2014  14:17:00      178.257      162.747      134.918      175.840      153.296      133.250    30919.540    23499.512    17755.608        7.431        3.609      241.375       91.588        0.144      343.876       20.293      869.650
04/30/2014  14:18:00      194.926      115.280       88.739      156.836      135.066      107.596    24597.381    18242.710    11576.916        5.678        2.721      226.464       83.984        0.138      343.654       19.914      869.653
04/30/2014  14:19:00      212.738      121.494       56.544      164.562      122.796       97.094    27080.791    15078.949     9427.276        5.739        2.579      244.986       72.580        0.088      343.844       20.240      869.650
04/30/2014  14:20:00      253.448      156.875       29.466      139.844      101.767       59.740    19556.423    10356.584     3568.852        6.159        1.674      298.070       28.533        0.009      343.743       20.067      869.660
04/30/2014  14:21:00      212.790      168.430      126.739      191.881      125.589      133.910    36818.220    15772.690    17931.958        8.010        3.526      271.382      115.842        0.182      343.881       20.302      869.628
04/30/2014  14:22:00      218.926      171.042      117.211      211.334      172.056      162.330    44662.013    29603.102    26351.183        9.575        5.031      277.820      143.651        0.267      343.876       20.294      869.649
04/30/2014  14:23:00      127.431       55.443       79.391      142.882      160.099       98.413    20415.221    25631.563     9685.166        4.066        2.787      138.969       88.835        0.409      343.719       20.025      869.664
04/30/2014  14:24:00       96.976     -107.071       35.740       80.284      100.455       61.263     6445.522    10091.288     3753.179        2.121        1.014      144.460       47.866        0.110      343.927       20.381      869.616
04/30/2014  14:25:00       69.882      -25.958       32.434      103.983       77.749       53.713    10812.427     6044.868     2885.089        1.317        0.987       74.547       39.876        0.286      343.932       20.393      869.583
04/30/2014  14:26:00      141.735       -2.416       42.373       91.094       84.218       59.136     8298.094     7092.723     3497.018        2.039        0.944      141.756       53.378        0.142      343.452       19.572      869.571
04/30/2014  14:27:00      195.036      131.168       49.506      106.591       94.102       74.515    11361.697     8855.160     5552.465        4.173        1.288      235.041       37.158        0.025      344.042       20.575      869.573
04/30/2014  14:28:00      304.008      210.284       95.502      145.654      104.058       95.269    21215.181    10827.965     9076.198        9.343        2.056      369.649       69.161        0.035      343.998       20.501      869.550
04/30/2014  14:29:00      251.474      114.558       76.951      168.627      119.832      136.613    28435.082    14359.752    18663.159        7.186        3.073      276.338       92.586        0.112      343.893       20.322      869.556
04/30/2014  14:30:00       69.003       48.243      122.348      139.919      126.134       93.065    19577.406    15909.778     8661.122        3.309        2.207       84.195       78.896        0.878      344.020       20.541      869.552
04/30/2014  14:31:00       81.368      125.124      150.006      118.380      128.509      121.690    14013.740    16514.478    14808.338        4.505        2.267      149.254      108.066        0.524      343.919       20.369      869.558
04/30/2014  14:32:00      193.548       86.436       17.253      141.530      112.727       76.671    20030.825    12707.478     5878.471        4.192        1.931      211.972       32.960        0.024      343.873       20.288      869.527
04/30/2014  14:33:00      252.422      186.799      151.243      197.099      142.750      110.281    38848.196    20377.585    12161.791        9.642        3.569      314.023       83.143        0.070      344.013       20.527      869.504
04/30/2014  14:34:00      443.441      199.337       64.045      178.424      145.777      109.772    31835.122    21250.839    12049.883       15.279        3.257      486.184       67.601        0.019      343.849       20.246      869.511
04/30/2014  14:35:00      265.896      190.832      129.937      205.958      188.727      148.391    42418.782    35617.712    22020.003       11.201        5.003      327.288      133.451        0.166      343.672       19.947      869.490
04/30/2014  14:36:00      165.914      146.522      125.845      145.769      106.258      107.715    21248.607    11290.787    11602.466        5.448        2.207      221.350       80.258        0.131      343.701       19.995      869.548
04/30/2014  14:37:00       40.769       69.621       92.424       64.365       59.895       57.014     4142.902     3587.452     3250.648        1.301        0.549       80.680       45.052        0.312      344.038       20.572      869.538
04/30/2014  14:38:00      121.771       11.980       54.878      135.932      160.918       87.270    18477.512    25894.474     7615.971        3.498        2.599      122.359       81.109        0.439      344.229       20.898      869.500
04/30/2014  14:39:00      269.784      174.393       81.810      154.805      107.168      105.682    23964.716    11485.044    11168.601        7.824        2.331      321.242       74.498        0.054      344.118       20.707      869.506
04/30/2014  14:40:00      110.710      115.973       19.639       79.128       92.960       66.794     6261.210     8641.563     4461.398        2.272        0.968      160.332       57.048        0.127      343.670       19.943      869.524
04/30/2014  14:41:00      118.755       70.621       26.198       77.628       65.240       43.542     6026.088     4256.313     1895.886        1.597        0.609      138.167       28.314        0.042      343.893       20.324      869.514
04/30/2014  14:42:00      154.770       40.974      113.611      166.504      115.432      103.247    27723.569    13324.483    10660.033        4.511        2.585      160.102       96.821        0.366      344.090       20.660      869.515
04/30/2014  14:43:00      137.900     -188.564        6.325      106.559      139.087       85.286    11354.855    19345.260     7273.754        4.629        1.899      233.608       75.668        0.105      344.324       21.060      869.468
04/30/2014  14:44:00      126.958       -3.567       49.393       75.343      164.557       83.061     5676.603    27078.865     6899.053        2.910        1.983      127.008       99.958        0.619      343.986       20.484      869.493
04/30/2014  14:45:00      363.849      205.010       32.963      179.687      123.775       99.158    32287.555    15320.283     9832.294       11.646        2.872      417.631       89.947        0.046      344.400       21.189      869.473
04/30/2014  14:46:00      168.346      102.670      117.445      162.697      155.596      112.261    26470.234    24210.252    12602.573        5.797        3.164      197.184      102.443        0.270      344.274       20.973      869.506
04/30/2014  14:47:00       67.021       72.699       61.101       75.544       71.759       62.701     5706.945     5149.386     3931.373        1.415        0.739       98.879       46.564        0.222      344.014       20.531      869.511
04/30/2014  14:48:00      248.732      148.831       19.540       56.518       58.748       52.036     3194.313     3451.335     2707.735        4.687        0.468      289.859       29.221        0.010      343.813       20.184      869.485
04/30/2014  14:49:00      142.253       71.484       37.939      149.025       97.270       51.817    22208.503     9461.394     2684.974        3.056        1.718      159.204       53.438        0.113      343.883       20.307      869.465
04/30/2014  14:50:00      147.370       92.952        4.980      100.306       73.776       48.870    10061.236     5442.911     2388.245        2.413        0.895      174.235       34.475        0.039      344.063       20.613      869.454
04/30/2014  14:51:00      153.267       81.759       22.351       74.053       60.173       50.975     5483.817     3620.755     2598.487        2.119        0.585      173.710       22.199        0.016      343.964       20.446      869.431
04/30/2014  14:52:00      189.761       69.092      143.564      150.447      226.088      136.209    22634.420    51115.570    18552.969        7.683        4.615      201.948      146.951        0.530      343.754       20.084      869.427
04/30/2014  14:53:00      232.644       99.855       70.397      133.380      147.380       87.020    17790.293    21720.890     7572.439        5.806        2.354      253.168       74.791        0.087      344.185       20.821      869.391
04/30/2014  14:54:00      261.329      175.337      101.359      182.501      110.820      109.249    33306.696    12281.011    11935.340        8.340        2.876      314.700      106.199        0.114      343.837       20.227      869.459
04/30/2014  14:55:00       59.645       -4.085       49.919       63.216       88.365       58.508     3996.266     7808.457     3423.216        1.064        0.761       59.785       59.810        1.001      343.894       20.327      869.426
04/30/2014  14:56:00        3.163       36.484       46.662       25.467       31.285       32.374      648.547      978.742     1048.105        0.310        0.134       36.621       10.901        0.089      343.906       20.348      869.382
04/30/2014  14:57:00       81.499       87.440       88.966       80.389       70.910       68.195     6462.430     5028.162     4650.497        1.917        0.807      119.531       51.760        0.188      343.639       19.890      869.365
04/30/2014  14:58:00      171.905      109.173       86.868      117.505       97.770       80.747    13807.492     9559.061     6520.088        3.945        1.494      203.642       65.154        0.102      344.212       20.868      869.355
04/30/2014  14:59:00      104.514        7.569       76.797      123.098      159.985       96.078    15153.099    25595.294     9231.041        3.342        2.499      104.788      100.656        0.923      344.721       21.738      869.365
04/30/2014  15:00:00      156.870       36.346      111.527      160.698      146.931      102.420    25823.852    21588.634    10489.920        4.812        2.895      161.025       89.325        0.308      344.324       21.061      869.369
04/30/2014  15:01:00      194.035       24.830       91.825      120.375       95.699       80.280    14490.033     9158.356     6444.807        3.839        1.505      195.618       89.325        0.209      343.837       20.225      869.383
04/30/2014  15:02:00      118.594     -179.709      -13.673       82.107      115.543       59.432     6741.543    13350.188     3532.151        3.508        1.181      215.313       55.759        0.067      344.236       20.909      869.343
04/30/2014  15:03:00       68.720       53.516       51.873       91.744      131.027       65.469     8417.024    17168.094     4286.222        2.007        1.494       87.100       47.003        0.291      344.249       20.932      869.345
04/30/2014  15:04:00      255.665      152.185       23.771      189.540      106.637       72.393    35925.476    11371.509     5240.763        7.080        2.627      297.531       52.096        0.031      344.160       20.778      869.355
04/30/2014  15:05:00       61.624       54.586       53.386       52.214       52.805       52.482     2726.312     2788.420     2754.401        0.895        0.413       82.323       27.312        0.110      344.087       20.656      869.349
04/30/2014  15:06:00      241.153      138.250       45.900      117.814       98.247       89.161    13880.121     9652.522     7949.767        5.542        1.574      277.971       54.844        0.039      344.125       20.718      869.348
04/30/2014  15:07:00      385.665      283.818       -8.014      153.102      123.381       96.512    23440.103    15222.870     9314.594       13.866        2.399      478.843       58.682        0.015      344.044       20.580      869.301
04/30/2014  15:08:00      113.298       86.353       18.909      110.002       80.596       70.081    12100.505     6495.759     4911.372        2.207        1.175      142.455       30.392        0.046      344.553       21.452      869.279
04/30/2014  15:09:00      228.559      147.015       38.827      120.769       91.474       74.706    14585.058     8367.569     5580.983        5.194        1.427      271.758       30.728        0.013      344.534       21.419      869.270
04/30/2014  15:10:00      245.786      161.146       96.705      170.793      116.403      109.558    29170.217    13549.665    12002.993        7.522        2.736      293.903       87.538        0.089      344.440       21.257      869.282
04/30/2014  15:11:00      325.665      199.302      127.026      207.152      170.885      149.403    42911.860    29201.632    22321.212       12.816        4.722      381.810      126.013        0.109      344.231       20.901      869.262
04/30/2014  15:12:00      241.576      203.977       91.562      173.105      123.260       90.703    29965.460    15193.113     8226.999        8.086        2.669      316.174       91.350        0.083      344.178       20.810      869.248
04/30/2014  15:13:00      147.341      142.940      127.008      152.983      116.264       90.643    23403.799    13517.372     8216.148        5.170        2.257      205.283       64.133        0.098      344.340       21.087      869.246
04/30/2014  15:14:00       85.502       39.511       87.237       92.645       93.577       76.294     8583.156     8756.746     5820.758        1.982        1.158       94.190       63.967        0.461      344.331       21.073      869.254
04/30/2014  15:15:00       70.421      -13.754       70.764      111.301      107.178       64.295    12387.858    11487.045     4133.784        1.908        1.400       71.751       60.550        0.712      344.407       21.203      869.222
04/30/2014  15:16:00       97.065      -55.818       31.699       84.804      139.201       48.735     7191.690    19376.859     2375.075        2.124        1.447      111.970       51.040        0.208      344.252       20.937      869.194
04/30/2014  15:17:00      126.216       69.977       86.101      132.262      108.222       93.205    17493.294    11712.060     8687.189        3.306        1.895      144.317       65.120        0.204      344.353       21.111      869.132
04/30/2014  15:18:00      128.669       87.880       82.633      138.201       87.981       83.678    19099.528     7740.580     7001.929        3.247        1.692      155.815       66.550        0.182      344.698       21.698      869.152
04/30/2014  15:19:00      122.422       99.093       -0.025      125.272       93.894       62.416    15693.158     8816.065     3895.739        2.660        1.420      157.501       57.903        0.135      344.562       21.466      869.192
04/30/2014  15:20:00       74.002      144.812      -19.276       82.638       79.410       46.199     6829.059     6305.929     2134.359        2.104        0.763      162.625       37.278        0.053      344.362       21.126      869.186
04/30/2014  15:21:00       88.875       38.325       16.045       38.857       35.996       35.969     1509.889     1295.685     1293.774        0.686        0.205       96.786       18.179        0.035      344.292       21.008      869.167
04/30/2014  15:22:00       38.310       28.647       62.134       77.585       84.804       63.343     6019.498     7191.676     4012.398        1.168        0.861       47.836       64.129        1.797      344.249       20.934      869.150
04/30/2014  15:23:00      232.007      109.363       47.374      144.547       95.886       63.207    20893.899     9194.217     3995.065        5.105        1.704      256.490       48.983        0.036      344.254       20.939      869.142
04/30/2014  15:24:00      181.158       91.468       49.964      135.286       96.514       75.950    18302.172     9314.938     5768.431        3.853        1.669      202.940       33.294        0.027      344.607       21.544      869.124
04/30/2014  15:25:00      161.275      117.394       49.771      121.795      103.530       83.718    14834.075    10718.508     7008.690        3.741        1.628      199.477       69.787        0.122      344.652       21.620      869.122
04/30/2014  15:26:00      244.794      156.440       49.281      128.704       92.122       69.077    16564.805     8486.448     4771.690        5.832        1.491      290.513       58.254        0.040      344.423       21.229      869.133
04/30/2014  15:27:00      177.040      107.714       50.806      122.317       89.706       65.966    14961.396     8047.244     4351.554        3.644        1.368      207.233       45.925        0.049      344.336       21.080      869.117
04/30/2014  15:28:00      171.093      129.858       33.825      119.352       75.886       70.782    14244.927     5758.619     5010.077        3.614        1.251      214.793       32.600        0.023      344.451       21.277      869.087
04/30/2014  15:29:00       80.262      127.290       15.253       81.809       80.116       58.037     6692.638     6418.624     3368.270        1.968        0.824      150.482       34.987        0.054      344.499       21.359      869.023
04/30/2014  15:30:00      104.242       44.457       10.198      105.819       76.646       54.740    11197.585     5874.586     2996.462        1.650        1.003      113.326       43.627        0.148      344.725       21.746      868.988
04/30/2014  15:31:00      210.574      149.886      141.085      147.178      147.262      128.434    21661.231    21686.036    16495.193        7.327        2.992      258.471      119.824        0.215      344.547       21.439      868.963
04/30/2014  15:32:00      210.870      158.459      145.962      196.496      143.485      109.865    38610.774    20587.850    12070.412        8.106        3.563      263.772      119.243        0.204      344.785       21.848      868.985
04/30/2014  15:33:00      186.753     -120.446       54.045      150.601      172.574      104.975    22680.633    29781.711    11019.697        5.788        3.174      222.225      123.202        0.307      344.529       21.409      869.022
04/30/2014  15:34:00      122.968     -157.835      -30.270       55.028       67.873       52.421     3028.054     4606.756     2747.965        2.566        0.519      200.082       39.975        0.040      344.257       20.946      869.008
04/30/2014  15:35:00       28.993      -66.620       16.109       39.124       71.503       29.716     1530.726     5112.730      883.013        0.653        0.376       72.655       34.483        0.225      344.332       21.076      869.010
04/30/2014  15:36:00       48.006      -70.150       -9.619       33.073       72.174       36.995     1093.810     5209.019     1368.632        0.749        0.384       85.004       28.830        0.115      344.604       21.541      868.990
04/30/2014  15:37:00       95.764       50.680      -11.938       63.525       53.059       41.629     4035.404     2815.240     1732.959        1.023        0.429      108.348       27.751        0.066      344.282       20.989      868.958
04/30/2014  15:38:00      126.502      147.395        7.787       68.136       53.015       51.823     4642.573     2810.639     2685.577        2.396        0.507      194.237       34.281        0.031      344.324       21.059      868.938
04/30/2014  15:39:00      201.664      179.232       76.506      130.074       90.575       74.856    16919.224     8203.865     5603.473        5.468        1.536      269.801       58.467        0.047      344.543       21.432      868.927
04/30/2014  15:40:00      278.636      134.220       38.870      167.572      119.840       66.292    28080.286    14361.695     4394.591        7.199        2.342      309.278       29.371        0.009      344.766       21.815      868.887
04/30/2014  15:41:00      206.827       90.542       57.456      121.609       84.787       74.127    14788.754     7188.903     5494.845        4.087        1.374      225.777       55.578        0.061      345.093       22.374      868.866
04/30/2014  15:42:00      118.463      126.139      110.010      131.288      100.534       96.947    17236.565    10106.993     9398.670        3.939        1.837      173.045       81.135        0.220      345.022       22.251      868.860
04/30/2014  15:43:00      108.031       55.212      115.203      113.861      137.244      103.698    12964.365    18835.921    10753.333        3.526        2.128      121.322      100.673        0.689      344.931       22.098      868.852
04/30/2014  15:44:00       77.304       12.552      109.306      139.763      119.339       74.965    19533.808    14241.721     5619.793        2.873        1.970       78.317       73.343        0.877      344.839       21.942      868.822
04/30/2014  15:45:00       55.775       42.852       47.390       94.620       97.856       62.935     8952.968     9575.887     3960.834        1.484        1.124       70.336       31.977        0.207      344.953       22.137      868.837
04/30/2014  15:46:00      168.883       73.523       92.750      154.026      117.255       80.482    23723.928    13748.835     6477.286        4.323        2.198      184.194       71.348        0.150      344.846       21.952      868.838
04/30/2014  15:47:00      181.759      131.438       66.143      125.939       97.184      111.714    15860.540     9444.787    12479.921        4.623        1.889      224.304       49.580        0.049      344.960       22.147      868.845
04/30/2014  15:48:00      224.668      172.141       89.507      169.358      116.014      105.109    28682.033    13459.268    11047.926        7.064        2.659      283.034       91.594        0.105      344.761       21.806      868.842
04/30/2014  15:49:00      326.458      140.844       64.360      173.727      165.351      134.142    30181.000    27341.069    17993.987       10.302        3.776      355.544       92.141        0.067      344.474       21.316      868.843
04/30/2014  15:50:00      202.219      112.797       18.491      111.470       81.557       67.053    12425.636     6651.579     4496.050        3.876        1.179      231.550       31.272        0.018      344.519       21.392      868.877
04/30/2014  15:51:00      132.375      104.010       70.896      107.261       62.586       48.103    11504.986     3916.947     2313.864        2.555        0.887      168.349       31.715        0.035      344.552       21.449      868.860
04/30/2014  15:52:00      192.965      120.844       66.984      163.449      114.165       80.925    26715.655    13033.575     6548.839        5.130        2.315      227.682       57.205        0.063      344.550       21.445      868.848
04/30/2014  15:53:00      131.387       88.895       47.700       57.553       65.797       60.357     3312.348     4329.280     3642.988        1.936        0.564      158.634       36.682        0.053      344.372       21.141      868.835
04/30/2014  15:54:00       23.170       61.975       12.266       43.065       41.937       27.894     1854.622     1758.691      778.048        0.446        0.220       66.165       15.017        0.052      344.503       21.368      868.816
04/30/2014  15:55:00      172.483       97.053       39.514      125.538       76.450       60.846    15759.887     5844.585     3702.216        3.301        1.265      197.913       34.365        0.030      344.676       21.663      868.796
04/30/2014  15:56:00      116.586      102.194       60.612       88.221       78.936       56.800     7782.904     6230.845     3226.231        2.247        0.862      155.035       34.214        0.049      344.622       21.570      868.753
04/30/2014  15:57:00      186.305      127.116       77.954       93.797       89.295       86.177     8797.815     7973.682     7426.526        4.057        1.210      225.539       42.830        0.036      345.020       22.250      868.742
04/30/2014  15:58:00      357.628      245.272       39.721      163.143      119.644       88.612    26615.741    14314.738     7852.025       11.920        2.439      433.654       51.439        0.014      344.629       21.578      868.740
04/30/2014  15:59:00      299.046      248.960       26.837      157.983      102.407       87.588    24958.484    10487.201     7671.646        9.761        2.156      389.114       62.363        0.026      344.493       21.347      868.740
04/30/2014  16:00:00       93.891       51.610       46.442      117.513       77.900       51.200    13809.304     6068.362     2621.465        1.806        1.125      107.141       28.977        0.073      344.609       21.549      868.728
04/30/2014  16:01:00       33.771      -87.529        8.697       32.019       53.837       35.112     1025.222     2898.443     1232.865        0.702        0.258       93.818       32.026        0.117      344.368       21.137      868.698
04/30/2014  16:02:00       59.781       10.636       23.191       54.773       62.380       31.524     3000.114     3891.266      993.742        0.605        0.394       60.720       12.397        0.042      344.447       21.272      868.675
04/30/2014  16:03:00       46.791      -24.976       51.339       54.451       72.790       48.560     2964.895     5298.421     2358.044        0.803        0.531       53.040       33.379        0.396      344.692       21.691      868.662
04/30/2014  16:04:00      101.873       87.640      121.217       91.884      100.546       72.967     8442.756    10109.573     5324.124        2.831        1.194      134.384       66.565        0.245      344.266       20.960      868.646
04/30/2014  16:05:00       96.980      103.719       86.248       93.223       80.851       66.884     8690.514     6536.939     4473.533        2.365        0.985      141.996       53.876        0.144      344.143       20.751      868.620
04/30/2014  16:06:00       83.952       35.042        9.442       71.756       67.266       47.165     5148.983     4524.652     2224.535        1.013        0.595       90.972       40.209        0.195      344.569       21.481      868.604
04/30/2014  16:07:00       47.478       34.638       37.105       58.367       53.157       44.312     3406.726     2825.631     1963.539        0.651        0.410       58.770       35.973        0.375      344.727       21.753      868.591
04/30/2014  16:08:00      222.693      142.268       63.006      134.700      107.917       77.128    18144.182    11646.088     5948.688        5.476        1.787      264.258       53.739        0.041      344.751       21.789      868.564
04/30/2014  16:09:00      279.434      178.758       18.850      149.717      113.007       87.042    22415.059    12770.581     7576.395        7.657        2.138      331.719       47.903        0.021      344.644       21.605      868.561
04/30/2014  16:10:00      181.209      120.519       53.967      195.084      102.483       65.154    38057.763    10502.719     4244.995        5.153        2.640      217.627       44.733        0.042      344.451       21.277      868.551
04/30/2014  16:11:00      188.595       95.479       31.283      125.753       77.022       59.455    15813.740     5932.430     3534.952        3.547        1.264      211.387       36.368        0.030      344.709       21.717      868.545
04/30/2014  16:12:00      279.658      105.586       39.075      178.772      123.519       92.757    31959.581    15257.024     8603.781        7.334        2.791      298.926       74.859        0.063      344.767       21.815      868.526
04/30/2014  16:13:00      418.724      279.210       47.359      115.314       97.339       87.088    13297.333     9474.842     7584.276       14.294        1.518      503.277       42.211        0.007      344.393       21.176      868.529
04/30/2014  16:14:00      205.650      147.572       27.033       93.902       73.003       64.986     8817.495     5329.446     4223.177        4.158        0.919      253.120       38.661        0.023      344.593       21.518      868.525
04/30/2014  16:15:00      128.165       51.223       32.929      118.446       92.950       52.964    14029.434     8639.645     2805.194        2.280        1.274      138.022       48.181        0.122      344.836       21.936      868.528
04/30/2014  16:16:00      125.717       15.089       24.510      127.383       93.206       55.541    16226.312     8687.365     3084.763        2.231        1.400      126.619       35.252        0.078      344.503       21.367      868.501
04/30/2014  16:17:00      247.909      157.277       43.383      117.573       87.872       71.490    13823.344     7721.409     5110.758        5.736        1.333      293.590       54.497        0.034      344.510       21.376      868.502
04/30/2014  16:18:00      189.687      115.032       39.382      116.306       97.788       66.103    13527.032     9562.564     4369.578        3.911        1.373      221.841       16.647        0.006      344.656       21.628      868.479
04/30/2014  16:19:00      183.089      144.582       28.937      125.440       82.568       75.113    15735.085     6817.453     5641.919        4.172        1.410      233.293       56.643        0.059      344.757       21.800      868.460
04/30/2014  16:20:00      222.365      126.314       73.696      133.178      102.928       74.057    17736.457    10594.157     5484.505        5.232        1.691      255.737       54.272        0.045      344.858       21.971      868.453
04/30/2014  16:21:00      181.947      106.034       44.654      139.406      109.203       92.532    19434.020    11925.301     8562.186        4.312        1.996      210.589       57.276        0.074      344.853       21.964      868.446
04/30/2014  16:22:00      244.235      194.980       11.641      144.718      109.261      115.134    20943.260    11937.950    13255.920        7.196        2.307      312.519       77.205        0.061      344.844       21.950      868.447
04/30/2014  16:23:00      324.322      200.214       46.691      122.144       97.980       82.007    14919.270     9600.085     6725.072        8.934        1.562      381.144       40.809        0.011      344.783       21.843      868.432
04/30/2014  16:24:00      244.852      198.027      101.430      165.352      126.466       91.215    27341.260    15993.527     8320.212        8.054        2.583      314.908       92.280        0.086      344.749       21.784      868.434
04/30/2014  16:25:00      232.314      145.226       69.262      114.264       97.957       95.969    13056.180     9595.560     9210.075        5.585        1.593      273.971       54.572        0.040      345.016       22.242      868.454
04/30/2014  16:26:00      128.478       11.330       72.572      142.163      155.361       95.049    20210.297    24137.023     9034.394        3.763        2.669      128.977       93.017        0.520      344.997       22.211      868.473
04/30/2014  16:27:00       84.017       26.977       93.460       79.748       79.200       59.730     6359.737     6272.610     3567.728        1.636        0.810       88.242       45.031        0.260      344.972       22.168      868.492
04/30/2014  16:28:00      189.024       91.048       65.203      117.442       76.716       71.504    13792.577     5885.371     5112.753        3.653        1.240      209.809       55.650        0.070      344.510       21.376      868.511
04/30/2014  16:29:00      143.388      108.761       56.453       46.032       49.111       51.569     2118.984     2411.899     2659.409        2.138        0.360      179.970       22.838        0.016      344.565       21.472      868.480
04/30/2014  16:30:00       97.138       14.012       73.682       75.957      102.614       61.756     5769.460    10529.580     3813.763        1.758        1.006       98.144       72.025        0.539      344.775       21.832      868.443
04/30/2014  16:31:00       41.264       45.155       52.197       50.488       78.921       53.034     2549.083     6228.478     2812.625        0.903        0.580       61.170       54.228        0.786      344.615       21.560      868.433
04/30/2014  16:32:00       24.347       -9.066        9.996       52.400       68.000       31.750     2745.785     4624.017     1008.040        0.457        0.419       25.980       32.593        1.574      344.545       21.439      868.399
04/30/2014  16:33:00      311.653      204.125       86.855      126.603       98.729       86.842    16028.402     9747.353     7541.508        8.982        1.666      372.552       34.868        0.009      344.939       22.109      868.397
04/30/2014  16:34:00      194.750      131.381       98.368      126.829       97.431       86.093    16085.473     9492.726     7411.954        4.892        1.650      234.922       42.212        0.032      344.965       22.156      868.361
04/30/2014  16:35:00      203.457      119.217       81.282      180.484      121.072       96.795    32574.641    14658.446     9369.259        5.940        2.830      235.812       88.272        0.140      344.766       21.816      868.348
04/30/2014  16:36:00      307.381      162.818       72.991      125.187      156.327       89.642    15671.712    24438.122     8035.768        8.722        2.407      347.840       70.821        0.041      344.695       21.691      868.363
04/30/2014  16:37:00       61.738       12.345       35.239       62.035       78.237       58.009     3848.362     6121.013     3365.016        0.927        0.667       62.961       54.120        0.739      344.465       21.303      868.345
04/30/2014  16:38:00      223.256      160.723       44.255      115.263       74.467       70.153    13285.537     5545.343     4921.476        5.069        1.188      275.091       44.546        0.026      344.747       21.782      868.336
04/30/2014  16:39:00      233.998      136.133       38.832      138.814       99.433       83.414    19269.298     9886.952     6957.853        5.545        1.806      270.716       39.999        0.022      344.977       22.177      868.330
04/30/2014  16:40:00      258.645       94.356       71.657      165.820      115.592       99.914    27496.217    13361.621     9982.769        6.588        2.542      275.318       84.279        0.094      344.763       21.809      868.318
04/30/2014  16:41:00      148.851      114.693       38.140      108.312       90.558       60.212    11731.573     8200.781     3625.483        3.016        1.178      187.912       34.812        0.034      344.806       21.884      868.334
04/30/2014  16:42:00      237.851      128.668       47.033      127.499      115.637       72.317    16256.053    13372.006     5229.719        5.509        1.743      270.423       39.555        0.021      344.893       22.031      868.323
04/30/2014  16:43:00      136.755       97.483       33.874      103.545       74.631       64.362    10721.647     5569.814     4142.453        2.489        1.022      167.944       49.331        0.086      344.843       21.949      868.304
04/30/2014  16:44:00      167.828       82.585       23.338      121.511       71.322       58.431    14764.920     5086.760     3414.197        2.939        1.163      187.047       31.828        0.029      344.982       22.185      868.283
04/30/2014  16:45:00       74.266       95.088       12.184      103.411       75.336       52.320    10693.911     5675.504     2737.377        1.690        0.955      120.654       34.786        0.083      344.941       22.116      868.291
04/30/2014  16:46:00      139.011      100.423       16.268       99.025       69.992       60.564     9805.976     4898.902     3667.962        2.402        0.919      171.490       41.964        0.060      344.876       22.004      868.288
04/30/2014  16:47:00       94.707       43.477        0.539       52.855       52.639       36.170     2793.605     2770.906     1308.276        0.887        0.344      104.210       28.118        0.073      344.825       21.918      868.274
04/30/2014  16:48:00       71.872        0.570       33.344       81.473       88.357       47.525     6637.903     7806.967     2258.591        1.149        0.835       71.874       39.690        0.305      344.666       21.645      868.266
04/30/2014  16:49:00      117.201       -0.180       74.203      111.242      118.174       76.565    12374.872    13965.194     5862.152        2.572        1.610      117.201       77.676        0.439      344.842       21.947      868.248
04/30/2014  16:50:00       58.622       32.929       30.252       87.615       71.244       38.505     7676.434     5075.679     1482.637        0.983        0.712       67.237       40.799        0.368      344.908       22.061      868.272
04/30/2014  16:51:00      141.882       65.816       21.206       95.206       64.879       58.145     9064.172     4209.267     3380.849        2.078        0.833      156.404       35.452        0.051      345.191       22.543      868.267
04/30/2014  16:52:00      154.466      143.034       65.162      125.269       82.802       68.380    15692.240     6856.225     4675.876        3.789        1.361      210.519       61.364        0.085      345.050       22.300      868.272
04/30/2014  16:53:00      153.247       83.020        9.813       86.898       55.209       50.865     7551.306     3048.062     2587.297        2.183        0.659      174.290       28.811        0.027      344.703       21.709      868.258
04/30/2014  16:54:00      188.219       99.580       38.226      156.528      102.440       63.798    24500.933    10493.884     4070.124        4.293        1.953      212.938       61.385        0.083      344.831       21.924      868.219
04/30/2014  16:55:00      207.977      138.845       38.629      148.561      110.231       77.294    22070.299    12150.803     5974.307        5.210        2.010      250.065       28.094        0.013      344.978       22.178      868.191
04/30/2014  16:56:00      366.378      180.685       73.648      184.031      132.368      105.166    33867.405    17521.327    11059.898       11.736        3.122      408.509       96.115        0.055      344.717       21.730      868.183
04/30/2014  16:57:00      127.212      101.007       76.858      114.100      101.448       96.649    13018.773    10291.792     9341.070        3.247        1.633      162.436       39.638        0.060      344.681       21.668      868.196
04/30/2014  16:58:00      202.834      136.313       22.845      124.331       83.217       71.650    15458.257     6925.009     5133.742        4.388        1.376      244.382       29.099        0.014      344.920       22.078      868.218
04/30/2014  16:59:00      281.466      134.441       33.833      123.425       98.188       66.895    15233.738     9640.839     4474.875        6.389        1.467      311.926       34.524        0.012      344.861       21.976      868.182
04/30/2014  17:00:00      279.059      209.836       97.929      190.570      120.952      116.586    36316.752    14629.461    13592.254        9.800        3.227      349.149       97.837        0.079      344.664       21.639      868.187
04/30/2014  17:01:00      348.631      193.023       56.761      130.914      121.877       99.211    17138.568    14854.108     9842.891       10.192        2.092      398.499       47.560        0.014      344.800       21.872      868.185
04/30/2014  17:02:00      263.131      110.045       63.616      173.203      135.414       75.135    29999.127    18336.998     5645.292        6.968        2.699      285.216       81.317        0.081      344.740       21.770      868.181
04/30/2014  17:03:00      196.028      141.936      115.978       99.253      119.406       86.814     9851.106    14257.799     7536.669        5.183        1.582      242.018       71.938        0.088      344.465       21.300      868.180
04/30/2014  17:04:00      120.354       80.099      102.638      115.436      117.338       85.306    13325.457    13768.322     7277.125        3.290        1.719      144.572       76.556        0.280      344.677       21.662      868.156
04/30/2014  17:05:00      241.878      183.755       96.985      160.876      146.977      123.472    25880.982    21602.344    15245.308        8.219        3.136      303.761       94.865        0.098      344.579       21.494      868.151
04/30/2014  17:06:00      293.383      186.433       42.669      104.003       79.757       56.980    10816.709     6361.157     3246.712        7.153        1.021      347.608       22.918        0.004      344.809       21.886      868.166
04/30/2014  17:07:00      135.938       94.093       19.974       99.622       79.627       55.756     9924.505     6340.472     3108.714        2.355        0.969      165.326       29.786        0.032      344.915       22.070      868.151
04/30/2014  17:08:00      241.243      185.850       28.974      115.402       74.812       74.604    13317.698     5596.773     5565.705        5.902        1.224      304.530       33.227        0.012      344.987       22.192      868.135
04/30/2014  17:09:00      280.457      208.055       28.804      154.108      107.533       78.512    23749.132    11563.417     6164.106        8.212        2.074      349.203       48.593        0.019      344.934       22.101      868.108
04/30/2014  17:10:00      257.267      129.788       34.600      141.001       95.810       75.129    19881.199     9179.461     5644.340        5.946        1.735      288.151       31.991        0.012      345.052       22.304      868.096
04/30/2014  17:11:00      201.111      111.446       34.897      100.686      113.624       73.752    10137.643    12910.377     5439.409        4.128        1.424      229.926       43.332        0.036      344.957       22.142      868.084
04/30/2014  17:12:00      232.735      159.636       42.329       96.776       83.143       68.574     9365.666     6912.818     4702.396        5.121        1.049      282.221       31.691        0.013      344.970       22.163      868.079
04/30/2014  17:13:00      118.150       51.832       50.156       72.682       71.222       48.272     5282.731     5072.517     2330.170        1.592        0.634      129.019       24.293        0.035      344.913       22.068      868.080
04/30/2014  17:14:00      249.139      140.779       35.195      145.941      118.599       68.725    21298.797    14065.819     4723.177        6.160        2.004      286.163       38.862        0.018      344.716       21.731      868.075
04/30/2014  17:15:00      201.520      187.991        2.225      156.786      114.563       96.043    24581.788    13124.619     9224.298        6.143        2.347      275.592       70.246        0.065      344.764       21.811      868.070
04/30/2014  17:16:00      162.048      120.269       25.300      119.538       98.031       58.171    14289.359     9610.097     3383.902        3.432        1.364      201.803       33.538        0.028      344.951       22.131      868.060
04/30/2014  17:17:00      198.643      122.453       69.219      111.353       88.665       70.477    12399.410     7861.438     4967.062        4.223        1.261      233.353       65.097        0.078      344.657       21.628      868.061
04/30/2014  17:18:00      173.119      143.809      156.956      138.130      109.633       89.822    19079.846    12019.422     8067.977        5.722        1.958      225.058       89.522        0.158      344.458       21.289      868.066
04/30/2014  17:19:00      143.926       65.203       76.229      112.138      100.814       82.270    12574.999    10163.458     6768.379        3.014        1.475      158.007       39.184        0.061      344.705       21.712      868.051
04/30/2014  17:20:00      143.612      112.002       71.877       95.129       70.164       73.304     9049.528     4922.979     5373.422        2.884        0.967      182.123       35.341        0.038      344.806       21.884      868.010
04/30/2014  17:21:00       50.567      -21.387       14.783       56.628       65.546       41.388     3206.781     4296.329     1713.005        0.622        0.461       54.904       36.165        0.434      344.398       21.190      867.988
04/30/2014  17:22:00      194.612      133.761       32.073      144.191      142.885       60.009    20791.154    20416.223     3601.107        5.079        2.240      236.148       34.283        0.021      344.975       22.172      867.990
04/30/2014  17:23:00      352.213      215.902       44.556      140.603      112.067      111.997    19769.306    12559.015    12543.391       10.875        2.244      413.119       57.242        0.019      344.969       22.161      867.957
04/30/2014  17:24:00      285.388      179.854       24.034      144.665      103.395       78.278    20927.914    10690.579     6127.497        7.605        1.887      337.333       66.848        0.039      344.819       21.905      867.963
04/30/2014  17:25:00      152.134      137.784      125.908      127.252      116.949       90.736    16193.033    13677.102     8233.066        4.803        1.905      205.254       79.098        0.149      344.761       21.807      867.965
04/30/2014  17:26:00      181.475      127.449       96.005      138.201      103.645       83.700    19099.384    10742.345     7005.666        4.761        1.842      221.758       77.531        0.122      344.475       21.317      867.940
04/30/2014  17:27:00      183.941       93.698       96.851      118.805       95.427       91.307    14114.725     9106.267     8336.933        4.177        1.578      206.430       68.555        0.110      344.493       21.346      867.931
04/30/2014  17:28:00      153.392       48.403       38.844       86.031       51.246       48.803     7401.369     2626.198     2381.694        1.989        0.620      160.848       43.211        0.072      344.929       22.097      867.932
04/30/2014  17:29:00      185.313      122.915       39.465      125.923       91.306       68.052    15856.510     8336.771     4631.081        3.991        1.441      222.371       17.946        0.007      344.862       21.981      867.911
04/30/2014  17:30:00      267.878      180.226       36.937      102.530       72.704       64.433    10512.310     5285.812     4151.547        6.277        0.997      322.862       43.383        0.018      345.022       22.253      867.888
04/30/2014  17:31:00      164.129       72.611       36.930      143.214      102.527       72.234    20510.119    10511.723     5217.762        3.490        1.812      179.474       59.373        0.109      344.851       21.962      867.897
04/30/2014  17:32:00      257.695      168.863      125.621      137.844      119.437      101.803    19001.037    14265.096    10363.764        7.716        2.181      308.093       79.747        0.067      344.859       21.975      867.887
04/30/2014  17:33:00      230.758       87.110       50.789      149.471       98.617       80.175    22341.589     9725.401     6427.973        5.095        1.925      246.652       65.166        0.070      345.002       22.218      867.897
04/30/2014  17:34:00      202.650       77.547       17.488      126.725       73.401       66.689    16059.338     5387.737     4447.405        3.664        1.295      216.981       45.948        0.045      345.042       22.289      867.895
04/30/2014  17:35:00      221.773      114.671       95.926      166.016      123.063      104.025    27561.214    15144.455    10821.202        6.252        2.676      249.665       98.242        0.155      344.811       21.891      867.897
04/30/2014  17:36:00      146.891      102.021       62.840      107.856       75.039       70.043    11632.998     5630.926     4906.013        2.905        1.108      178.844       64.301        0.129      344.763       21.810      867.912
04/30/2014  17:37:00       73.588      -14.518        1.805       61.406       95.082       43.254     3770.721     9040.611     1870.950        1.015        0.734       75.006       35.765        0.227      344.723       21.744      867.896
04/30/2014  17:38:00      180.050      137.719       27.730       94.008       56.778       51.259     8837.578     3223.761     2627.533        3.342        0.734      226.681       36.368        0.026      344.848       21.957      867.873
04/30/2014  17:39:00      145.641      180.520      -12.280       94.131      102.693       75.365     8860.689    10545.935     5679.834        3.951        1.254      231.945       71.179        0.094      344.918       22.073      867.849
04/30/2014  17:40:00      124.876       85.701       16.514       93.989       56.073       47.391     8833.950     3144.214     2245.943        1.871        0.711      151.455       28.952        0.037      344.943       22.119      867.836
04/30/2014  17:41:00      136.516       84.203       19.634       98.931       74.423       57.209     9787.283     5538.830     3272.905        2.235        0.930      160.396       32.917        0.042      344.995       22.210      867.789
04/30/2014  17:42:00      177.783       71.678       71.733      145.951      100.506       86.426    21301.618    10101.426     7469.461        4.037        1.944      191.689       84.412        0.194      344.760       21.806      867.767
04/30/2014  17:43:00      102.111       99.247       71.173      119.870       83.496       56.092    14368.934     6971.548     3146.367        2.491        1.224      142.396       36.443        0.065      344.957       22.144      867.784
04/30/2014  17:44:00      243.834      140.771       72.794      147.674      101.010       74.797    21807.471    10203.073     5594.550        6.108        1.880      281.552       60.439        0.046      344.879       22.008      867.776
04/30/2014  17:45:00      240.500      157.872      119.246      175.262      156.710      113.801    30716.876    24557.984    12950.665        8.259        3.411      287.687       95.067        0.109      344.687       21.680      867.777
04/30/2014  17:46:00      301.010       96.729       48.615      157.736      106.963      102.883    24880.795    11441.055    10584.893        7.461        2.345      316.170       81.278        0.066      344.712       21.721      867.781
04/30/2014  17:47:00       77.066       48.104       45.488       83.956       60.172       50.402     7048.640     3620.623     2540.316        1.176        0.660       90.847       33.451        0.136      344.515       21.386      867.789
04/30/2014  17:48:00      240.500      107.890       73.562      146.711       84.543       78.754    21524.020     7147.562     6202.146        5.488        1.744      263.591       78.748        0.089      344.587       21.508      867.769
04/30/2014  17:49:00       82.785      -29.234       28.484      106.677       64.629       56.211    11380.035     4176.889     3159.640        1.361        0.936       87.795       46.282        0.278      344.344       21.096      867.756
04/30/2014  17:50:00      221.043       88.273       64.125      160.503      131.462       93.021    25761.303    17282.215     8652.848        5.622        2.585      238.017       54.282        0.052      344.664       21.641      867.734
04/30/2014  17:51:00      245.907      156.559       71.760      106.482       86.169       77.222    11338.433     7425.181     5963.180        5.742        1.236      291.515       38.825        0.018      344.759       21.802      867.741
04/30/2014  17:52:00      226.106      164.632       55.492      112.084       68.312       78.160    12562.745     4666.495     6108.979        5.232        1.167      279.692       30.968        0.012      344.994       22.205      867.753
04/30/2014  17:53:00      237.449      170.440       33.594      137.756      101.974       92.774    18976.730    10398.773     8606.926        6.226        1.899      292.287       60.354        0.043      344.821       21.910      867.730
04/30/2014  17:54:00      245.322      130.568       47.306      181.053      123.859       73.872    32780.248    15341.031     5457.115        6.651        2.679      277.904       24.574        0.008      344.873       21.999      867.717
04/30/2014  17:55:00      356.246      229.115       42.815      137.836       97.661       69.337    18998.818     9537.637     4807.631       10.728        1.667      423.563       18.525        0.002      344.875       22.001      867.718
04/30/2014  17:56:00      304.879      173.341       65.175      103.712       86.943       75.871    10756.129     7559.039     5756.398        7.565        1.204      350.712       17.366        0.002      344.843       21.945      867.690
04/30/2014  17:57:00      236.506      178.525       36.272      129.326      101.243       69.013    16725.333    10250.162     4762.775        6.042        1.587      296.321       36.353        0.015      344.802       21.876      867.678
04/30/2014  17:58:00      200.531      135.075       90.536      126.211       81.502       80.728    15929.170     6642.526     6516.981        4.787        1.454      241.781       52.196        0.047      344.632       21.585      867.678
04/30/2014  17:59:00      119.557       76.738       69.237       83.376       94.029       66.679     6951.481     8841.448     4446.045        2.260        1.012      142.065       51.181        0.130      344.496       21.353      867.667
04/30/2014  18:00:00      205.633      124.457       99.012      137.615       99.537       99.798    18938.013     9907.714     9959.738        5.318        1.940      240.363       70.900        0.087      344.577       21.489      867.685
04/30/2014  18:01:00      145.081       71.628       83.906       91.771       64.232       68.873     8421.995     4125.689     4743.529        2.525        0.865      161.799       46.100        0.081      344.482       21.332      867.694
04/30/2014  18:02:00      124.292       50.246       18.876       52.677       59.109       38.330     2774.883     3493.859     1469.214        1.303        0.387      134.064       17.190        0.016      344.589       21.514      867.688
04/30/2014  18:03:00       59.039       26.513       27.905       81.849       67.927       42.844     6699.336     4614.069     1835.645        0.906        0.657       64.719       31.624        0.239      344.668       21.649      867.671
04/30/2014  18:04:00       55.654      100.430       62.271      103.358       73.593       74.089    10682.803     5415.872     5489.166        1.932        1.079      114.820       61.105        0.283      344.699       21.704      867.664
04/30/2014  18:05:00      194.910      137.774       55.410      106.388       91.032       70.290    11318.456     8286.872     4940.614        4.229        1.227      238.688       53.872        0.051      344.789       21.853      867.672
04/30/2014  18:06:00      260.937      158.638       90.723      136.477      104.435      104.693    18626.096    10906.591    10960.680        7.098        2.025      305.376       73.120        0.057      344.690       21.684      867.652
04/30/2014  18:07:00      366.014      196.881       72.042      166.425      131.018      107.868    27697.286    17165.778    11635.513       11.720        2.825      415.606       68.844        0.027      344.687       21.678      867.653
04/30/2014  18:08:00      365.705      225.032       28.508      144.645      141.191       87.376    20922.302    19934.910     7634.595       11.683        2.425      429.395       58.637        0.019      344.743       21.774      867.649
04/30/2014  18:09:00      257.803      106.582       47.300      128.435      114.638       84.534    16495.461    13141.791     7146.033        5.841        1.839      278.966       27.037        0.009      344.755       21.795      867.653
04/30/2014  18:10:00      266.553      178.573       84.249      141.383      104.921       84.744    19989.288    11008.455     7181.533        7.410        1.909      320.840       54.958        0.029      344.749       21.785      867.648
04/30/2014  18:11:00      163.168      103.362       53.402      144.200      110.806       70.543    20793.542    12277.919     4976.312        3.910        1.902      193.151       56.856        0.087      344.509       21.375      867.640
04/30/2014  18:12:00      281.970      156.774       60.755      104.755       89.724       83.221    10973.686     8050.421     6925.744        6.686        1.297      322.622       53.552        0.028      344.661       21.633      867.624
04/30/2014  18:13:00      312.870      190.481       87.702      140.925      118.293       96.493    19859.928    13993.259     9310.937        9.250        2.158      366.293       78.148        0.046      344.686       21.678      867.613
04/30/2014  18:14:00      289.001      188.454       81.863      124.856      114.485       92.929    15589.002    13106.882     8635.816        8.153        1.867      345.017       48.232        0.020      344.643       21.603      867.605
04/30/2014  18:15:00      195.554      133.227       81.000      139.002       94.046       97.073    19321.530     8844.743     9423.237        5.006        1.879      236.624       52.550        0.049      344.690       21.684      867.611
04/30/2014  18:16:00      310.972      165.886       57.159      142.400      104.748       94.861    20277.673    10972.143     8998.666        8.386        2.012      352.451       59.184        0.028      344.742       21.771      867.599
04/30/2014  18:17:00      200.912      118.846       65.222      128.820       92.726       83.311    16594.689     8598.165     6940.790        4.543        1.607      233.431       69.504        0.089      344.607       21.541      867.597
04/30/2014  18:18:00      243.278      137.220       24.488      142.345      110.476       78.812    20262.162    12205.038     6211.336        5.864        1.934      279.309       45.433        0.026      344.765       21.814      867.588
04/30/2014  18:19:00      318.962      161.833       66.284      152.551      109.062       84.288    23271.921    11894.575     7104.469        8.729        2.114      357.669       46.766        0.017      344.730       21.754      867.584
04/30/2014  18:20:00      191.000      146.287       74.797      148.846      118.842       84.040    22155.204    14123.442     7062.805        5.340        2.167      240.585       56.045        0.054      344.551       21.447      867.586
04/30/2014  18:21:00      213.976      138.090       33.825      129.961       94.416       72.448    16889.926     8914.310     5248.756        4.852        1.553      254.666       46.610        0.033      344.684       21.673      867.586
04/30/2014  18:22:00      279.876      180.124       35.425      116.112      101.259       73.707    13481.955    10253.396     5432.787        7.059        1.458      332.829       48.830        0.022      344.684       21.673      867.596
04/30/2014  18:23:00      174.337      105.584       20.638      130.505       77.836       69.969    17031.442     6058.460     4895.665        3.497        1.399      203.817       44.190        0.047      344.718       21.732      867.604
04/30/2014  18:24:00      286.200      199.432       35.321      109.631       91.137       68.038    12018.866     8305.863     4629.195        7.394        1.248      348.832       35.118        0.010      344.707       21.712      867.599
04/30/2014  18:25:00      205.428       99.053       37.519      117.501       87.134       61.572    13806.457     7592.285     3791.109        3.930        1.259      228.062       60.333        0.070      344.480       21.327      867.599
04/30/2014  18:26:00      257.278      201.881       79.265      104.330       75.981       66.609    10884.820     5773.164     4436.757        6.716        1.055      327.029       52.511        0.026      344.658       21.629      867.589
04/30/2014  18:27:00      319.697      169.847       81.697      112.950       88.209       78.418    12757.764     7780.777     6149.326        8.220        1.334      362.014       53.394        0.022      344.536       21.420      867.568
04/30/2014  18:28:00      177.410      151.880       83.417      109.679       76.749       69.211    12029.466     5890.482     4790.212        4.210        1.136      233.542       61.801        0.070      344.488       21.339      867.547
04/30/2014  18:29:00      268.926      158.735       62.911       91.477       85.970       69.215     8368.118     7390.783     4790.775        6.101        1.027      312.279       44.997        0.021      344.565       21.469      867.536
04/30/2014  18:30:00      116.448       71.767       19.311       92.970       72.384       43.250     8643.446     5239.444     1870.533        1.742        0.788      136.787       25.365        0.034      344.591       21.517      867.552
04/30/2014  18:31:00      160.863      132.312       32.224      100.250       72.818       60.743    10050.016     5302.436     3689.691        3.173        0.952      208.287       43.787        0.044      344.679       21.665      867.544
04/30/2014  18:32:00      176.553      134.491       32.842       94.191       71.104       59.981     8871.953     5055.729     3597.702        3.393        0.876      221.943       36.264        0.027      344.636       21.591      867.539
04/30/2014  18:33:00      146.553      101.688       21.549       90.823       56.667       45.603     8248.778     3211.106     2079.664        2.291        0.677      178.376       14.256        0.006      344.720       21.736      867.531
04/30/2014  18:34:00      168.809      124.956       39.886       89.949       62.030       56.942     8090.821     3847.730     3242.373        3.044        0.759      210.025        3.693        0.000      344.445       21.266      867.527
04/30/2014  18:35:00      189.812       97.144       56.692       90.131       63.898       63.486     8123.593     4082.900     4030.455        3.246        0.812      213.227       36.476        0.029      344.569       21.478      867.525
04/30/2014  18:36:00       61.714        9.404       14.683       49.415       58.972       40.164     2441.833     3477.725     1613.133        0.582        0.377       62.426       26.954        0.186      344.098       20.676      867.524
04/30/2014  18:37:00      124.962      111.789       57.541       77.870       42.243       49.684     6063.701     1784.461     2468.527        2.087        0.516      167.667       46.810        0.078      344.415       21.216      867.499
04/30/2014  18:38:00       75.505       76.617      100.097       76.440       69.388       50.331     5843.127     4814.628     2533.187        1.739        0.660      107.569       39.080        0.132      344.239       20.915      867.491
04/30/2014  18:39:00      217.469       77.857       65.802       95.993      101.106       63.537     9214.611    10222.476     4036.958        4.057        1.174      230.985       56.587        0.060      344.356       21.113      867.482
04/30/2014  18:40:00      243.241      123.287       35.444      153.971      104.775       94.889    23706.971    10977.767     9003.975        5.965        2.184      272.701       73.425        0.072      344.575       21.487      867.479
04/30/2014  18:41:00      210.326      105.151       72.012      135.209      100.027       80.745    18281.413    10005.480     6519.794        4.764        1.740      235.147       68.618        0.085      344.428       21.237      867.463
04/30/2014  18:42:00      164.290       69.667       56.374      125.647       68.502       56.401    15787.188     4692.534     3181.116        2.934        1.183      178.451       51.540        0.083      344.445       21.267      867.448
04/30/2014  18:43:00      163.742      109.536       28.884       89.741       68.176       51.103     8053.483     4647.925     2611.513        2.748        0.766      197.001       26.543        0.018      344.383       21.160      867.452
04/30/2014  18:44:00      238.883      161.695       52.459      157.921      114.944       84.858    24939.168    13212.033     7200.900        6.565        2.268      288.462       64.296        0.050      344.524       21.401      867.436
04/30/2014  18:45:00      281.860      155.559       30.165      147.848      108.697       74.349    21859.009    11814.939     5527.843        7.187        1.960      321.937       66.445        0.043      344.496       21.353      867.423
04/30/2014  18:46:00      256.252      174.089      110.824      211.672      121.032      106.910    44804.963    14648.773    11429.739        8.955        3.544      309.793      117.938        0.145      344.275       20.976      867.411
04/30/2014  18:47:00      255.077      141.140       33.661      113.807       97.343       75.739    12952.132     9475.571     5736.451        5.714        1.408      291.521       44.098        0.023      344.466       21.302      867.435
04/30/2014  18:48:00      168.407      140.630       43.782      142.951      104.264       79.604    20434.936    10871.034     6336.762        4.384        1.882      219.403       45.355        0.043      344.416       21.216      867.442
04/30/2014  18:49:00      204.453      121.097       21.774       94.313       72.721       64.247     8894.903     5288.358     4127.735        3.762        0.916      237.625       20.149        0.007      344.455       21.282      867.441
04/30/2014  18:50:00      266.104      151.030       36.491      111.837       95.653       61.939    12507.511     9149.523     3836.462        6.022        1.275      305.976       30.404        0.010      344.447       21.269      867.433
04/30/2014  18:51:00      220.576      167.117       26.485      136.709       88.586       71.008    18689.405     7847.421     5042.160        5.442        1.579      276.734       46.465        0.028      344.465       21.301      867.429
04/30/2014  18:52:00      263.640      190.168       31.079      150.189       95.391       86.362    22556.754     9099.444     7458.433        7.287        1.956      325.069       58.799        0.033      344.487       21.337      867.409
04/30/2014  18:53:00      281.753      160.200       36.770      149.772      113.316       76.757    22431.627    12840.488     5891.604        7.377        2.058      324.113       28.901        0.008      344.448       21.270      867.410
04/30/2014  18:54:00      168.492      125.957       51.597      132.088       81.371       70.859    17447.235     6621.208     5021.036        3.800        1.454      210.368       46.436        0.049      344.461       21.292      867.399
04/30/2014  18:55:00      244.803      162.156       22.968      144.152      104.225       92.861    20779.852    10862.859     8623.131        6.350        2.013      293.638       62.751        0.046      344.472       21.312      867.392
04/30/2014  18:56:00      322.158      166.371       58.325      136.654       96.906       80.714    18674.406     9390.692     6514.724        8.472        1.729      362.581       43.378        0.014      344.391       21.173      867.393
04/30/2014  18:57:00      194.376      130.237       94.068      122.382       99.979       93.601    14977.368     9995.745     8761.061        4.866        1.687      233.973       68.026        0.085      344.108       20.689      867.394
04/30/2014  18:58:00      180.887      102.512       25.859       92.947       86.166       58.778     8639.194     7424.651     3454.877        3.170        0.976      207.916       28.498        0.019      344.359       21.119      867.399
04/30/2014  18:59:00      185.533       76.202       45.180      113.804       91.457       73.151    12951.248     8364.430     5351.007        3.446        1.333      200.573       55.428        0.076      344.273       20.973      867.395
04/30/2014  19:00:00      176.003       93.045      116.431      127.886      109.220       69.094    16354.952    11928.958     4773.975        4.312        1.653      199.084       47.251        0.056      344.293       21.005      867.386
04/30/2014  19:01:00      130.308       90.073       40.738      113.422       77.112       64.314    12864.616     5946.276     4136.266        2.485        1.147      158.409       57.194        0.130      344.171       20.797      867.386
04/30/2014  19:02:00      128.985      104.531       75.086      112.398       67.689       70.159    12633.223     4581.789     4922.281        2.767        1.107      166.023       51.467        0.096      344.005       20.515      867.398
04/30/2014  19:03:00      131.815       70.763       57.706      107.051       81.291       53.967    11459.931     6608.223     2912.405        2.334        1.049      149.608       36.620        0.060      343.875       20.295      867.404
04/30/2014  19:04:00      196.141      120.313       56.695       73.540       62.341       61.800     5408.132     3886.402     3819.238        3.463        0.656      230.101       38.944        0.029      344.328       21.065      867.393
04/30/2014  19:05:00      256.081      120.484       71.461      107.119      108.172       65.973    11474.523    11701.159     4352.465        5.636        1.376      283.008       46.179        0.027      344.393       21.174      867.385
04/30/2014  19:06:00      213.887      115.008       35.313       98.409       74.452       52.197     9684.289     5543.118     2724.568        3.908        0.898      242.846       32.469        0.018      344.332       21.072      867.376
04/30/2014  19:07:00      246.155      173.831       41.701       98.016       81.845       49.924     9607.209     6698.666     2492.406        5.567        0.940      301.346       23.508        0.006      344.331       21.072      867.385
04/30/2014  19:08:00      201.700      131.208       37.017       65.139       56.047       61.110     4243.083     3141.230     3734.396        3.519        0.556      240.621       43.935        0.033      344.371       21.138      867.390
04/30/2014  19:09:00      143.021       98.031       29.808       59.079       53.473       47.769     3490.286     2859.318     2281.882        1.979        0.432      173.393       30.793        0.032      344.223       20.888      867.401
04/30/2014  19:10:00      205.269      154.976       42.232      120.008       80.051       66.627    14401.980     6408.155     4439.107        4.659        1.262      257.203       10.772        0.002      344.290       21.001      867.404
04/30/2014  19:11:00      261.788      117.879       33.659      164.899      107.938       89.976    27191.692    11650.530     8095.612        6.524        2.347      287.103       60.958        0.045      344.219       20.879      867.399
04/30/2014  19:12:00      281.529      161.379       51.373      167.442       83.023       81.257    28036.804     6892.782     6602.652        7.473        2.077      324.503       75.974        0.055      344.269       20.965      867.406
04/30/2014  19:13:00      184.747      112.340       63.178      126.175      101.172       79.509    15920.021    10235.690     6321.729        4.160        1.624      216.221       56.328        0.068      344.120       20.711      867.415
04/30/2014  19:14:00      316.902      192.553       44.440      150.703      101.946       69.649    22711.444    10392.893     4850.956        8.871        1.898      370.815       40.797        0.012      344.265       20.959      867.437
04/30/2014  19:15:00      156.943      116.051       60.268      109.837       96.389       86.724    12064.127     9290.849     7520.990        3.530        1.444      195.190       70.921        0.132      343.941       20.405      867.429
04/30/2014  19:16:00      151.744      131.611       75.870      110.754       96.633      100.128    12266.424     9338.028    10025.524        3.886        1.581      200.867       86.601        0.186      344.035       20.566      867.441
04/30/2014  19:17:00      185.449      126.617       41.978      114.021       89.306       64.525    13000.753     7975.582     4163.458        3.866        1.257      224.551       46.126        0.042      343.945       20.413      867.444
04/30/2014  19:18:00      173.177      125.817       99.277      118.983       91.496       93.556    14156.880     8371.525     8752.658        4.347        1.564      214.057       78.674        0.135      343.966       20.447      867.457
04/30/2014  19:19:00      217.947      138.201       95.385      113.799       94.793       79.995    12950.112     8985.689     6399.269        5.201        1.417      258.070       60.464        0.055      344.029       20.554      867.454
04/30/2014  19:20:00       61.252       71.599       81.398       96.716       74.124       48.633     9354.048     5494.385     2365.154        1.636        0.861       94.224       50.229        0.284      343.730       20.046      867.453
04/30/2014  19:21:00      181.654      113.629       68.212       95.352       71.267       51.832     9092.015     5078.946     2686.583        3.371        0.843      214.266       29.325        0.019      343.674       19.949      867.482
04/30/2014  19:22:00       93.677       78.474       22.312       71.261       58.845       44.781     5078.180     3462.723     2005.345        1.299        0.527      122.202       27.658        0.051      343.971       20.459      867.487
04/30/2014  19:23:00      120.689       59.720       21.559       70.941       54.594       41.034     5032.593     2980.477     1683.793        1.415        0.485      134.656       16.885        0.016      343.814       20.190      867.492
04/30/2014  19:24:00      284.780      169.173       75.450      132.731      105.949       83.255    17617.510    11225.269     6931.454        7.559        1.789      331.239       69.197        0.044      344.022       20.543      867.486
04/30/2014  19:25:00      183.264      115.216       39.898       86.065       81.967       72.871     7407.128     6718.523     5310.196        3.394        0.972      216.472       38.446        0.032      343.966       20.449      867.495
04/30/2014  19:26:00      145.485       82.755       37.957       85.319       79.231       63.687     7279.360     6277.528     4056.064        2.353        0.881      167.375       37.631        0.051      343.915       20.361      867.495
04/30/2014  19:27:00      212.387      125.077       35.126      129.741       97.964       73.487    16832.747     9597.027     5400.298        4.690        1.592      246.480       26.073        0.011      344.016       20.532      867.501
04/30/2014  19:28:00      188.600       96.357       50.995      133.518      102.212       73.325    17826.994    10447.259     5376.568        4.055        1.683      211.789       53.656        0.064      343.918       20.365      867.505
04/30/2014  19:29:00      137.036       75.537       43.256       67.828       63.805       55.926     4600.598     4071.068     3127.733        1.908        0.590      156.476       38.895        0.062      343.789       20.146      867.528
04/30/2014  19:30:00      187.335      127.461       54.760       91.273       72.392       69.448     8330.840     5240.556     4823.023        3.636        0.920      226.585       55.785        0.061      343.856       20.259      867.534
04/30/2014  19:31:00      258.047      123.506       38.655      145.844      100.347       73.452    21270.531    10069.545     5395.143        6.003        1.837      286.080       40.583        0.020      343.953       20.424      867.522
04/30/2014  19:32:00      277.537      175.000       64.075      135.499      105.587       96.236    18359.937    11148.656     9261.457        7.526        1.939      328.103       39.971        0.015      344.002       20.509      867.525
04/30/2014  19:33:00      165.606      130.473       87.389       82.141       76.339       57.112     6747.217     5827.656     3261.770        3.396        0.792      210.828       36.392        0.030      343.791       20.149      867.525
04/30/2014  19:34:00      101.916       80.199       72.705       96.307       64.951       52.031     9275.033     4218.693     2707.259        1.915        0.810      129.687       32.919        0.064      343.674       19.951      867.537
04/30/2014  19:35:00      158.551      148.847      108.400      107.431       76.971       74.252    11541.336     5924.605     5513.313        4.101        1.149      217.472       58.943        0.073      343.752       20.081      867.543
04/30/2014  19:36:00      179.042      114.696      105.417      155.312       84.958       69.924    24121.676     7217.802     4889.398        4.627        1.811      212.629       60.433        0.081      343.577       19.783      867.549
04/30/2014  19:37:00      242.760      134.027       56.952       88.599       86.066       62.050     7849.867     7407.340     3850.240        4.962        0.955      277.301       31.820        0.013      343.881       20.302      867.546
04/30/2014  19:38:00      167.339      108.762       57.470       73.950       66.733       52.788     5468.568     4453.347     2786.547        2.792        0.635      199.578       28.777        0.021      343.824       20.205      867.544
04/30/2014  19:39:00      179.870      106.391       51.975      118.211       84.311       64.866    13973.928     7108.373     4207.635        3.583        1.264      208.979       21.918        0.011      343.767       20.108      867.543
04/30/2014  19:40:00      197.246      113.345       62.270       90.269       73.371       67.178     8148.412     5383.338     4512.856        3.683        0.902      227.493       53.260        0.055      343.659       19.924      867.535
04/30/2014  19:41:00      128.432       95.138       77.651       85.254       69.159       56.781     7268.213     4782.933     3224.129        2.342        0.764      159.832       45.774        0.082      343.637       19.889      867.546
04/30/2014  19:42:00      187.429      117.194       80.291       92.895       72.404       77.384     8629.505     5242.332     5988.317        3.758        0.993      221.052       57.277        0.067      343.540       19.721      867.529
04/30/2014  19:43:00      129.537       74.485       38.592       69.008       60.960       59.694     4762.135     3716.175     3563.403        1.793        0.602      149.425       27.669        0.034      343.633       19.881      867.531
04/30/2014  19:44:00      148.661       97.069       43.478      105.494       73.928       72.710    11129.077     5465.363     5286.701        2.764        1.094      177.546       45.749        0.066      343.528       19.699      867.527
04/30/2014  19:45:00      106.920       72.483       43.807       60.299       55.210       40.493     3636.001     3048.104     1639.697        1.346        0.416      129.173       25.704        0.040      343.353       19.404      867.535
04/30/2014  19:46:00      130.108       60.257       29.493       67.563       63.078       43.479     4564.743     3978.784     1890.387        1.593        0.522      143.384       34.696        0.059      343.130       19.023      867.531
04/30/2014  19:47:00      115.291       94.639       45.868       61.009       52.119       40.629     3722.095     2716.362     1650.734        1.622        0.404      149.159       22.809        0.023      343.374       19.439      867.529
04/30/2014  19:48:00       99.106       61.463       42.456       87.154       58.657       39.254     7595.775     3440.656     1540.885        1.399        0.629      116.617       25.577        0.048      343.167       19.089      867.530
04/30/2014  19:49:00       58.808       64.575       69.774       59.676       33.467       29.199     3561.274     1120.049      852.563        0.901        0.277       87.341       27.912        0.102      343.082       18.942      867.531
04/30/2014  19:50:00      135.599       81.564       37.660       33.435       37.519       47.773     1117.883     1407.688     2282.233        1.563        0.240      158.239       21.361        0.018      343.048       18.885      867.526
04/30/2014  19:51:00      110.438       76.009       38.384       33.592       27.713       40.281     1128.396      767.996     1622.524        1.148        0.176      134.067       16.314        0.015      343.236       19.206      867.529
04/30/2014  19:52:00      157.275       83.846       42.902       56.423       37.950       43.906     3183.549     1440.165     1927.749        2.008        0.328      178.229       22.545        0.016      343.207       19.156      867.539
04/30/2014  19:53:00      131.628       91.535       36.179       56.336       50.703       44.578     3173.720     2570.840     1987.212        1.737        0.387      160.326       28.468        0.032      343.156       19.068      867.539
04/30/2014  19:54:00      114.680      103.648       57.433       68.428       51.322       44.968     4682.441     2633.953     2022.090        1.826        0.467      154.578       28.946        0.035      343.025       18.845      867.533
04/30/2014  19:55:00      137.412       89.276       42.958       62.933       57.385       54.940     3960.540     3293.055     3018.382        1.948        0.514      163.866       28.573        0.030      343.532       19.709      867.538
04/30/2014  19:56:00       99.110       82.831       43.483       68.528       45.190       39.755     4696.135     2042.149     1580.423        1.344        0.416      129.166       35.730        0.077      343.263       19.250      867.530
04/30/2014  19:57:00      121.626       51.360       27.095       48.997       35.618       39.647     2400.722     1268.621     1571.852        1.170        0.262      132.025       21.217        0.026      342.994       18.794      867.535
04/30/2014  19:58:00       80.454       27.172       31.716       49.802       40.176       32.164     2480.199     1614.136     1034.506        0.667        0.256       84.918       23.670        0.078      342.956       18.729      867.538
04/30/2014  19:59:00      120.843       76.560       46.075       42.408       44.594       35.236     1798.472     1988.626     1241.584        1.381        0.251      143.054       22.980        0.026      343.199       19.141      867.532
04/30/2014  20:00:00      119.808       58.998       30.187       36.843       45.244       35.702     1357.424     2047.053     1274.615        1.171        0.234      133.547       19.774        0.022      343.031       18.857      867.541
04/30/2014  20:01:00       84.019       71.134       52.932       61.394       59.694       48.094     3769.197     3563.360     2313.071        1.228        0.482      110.088       31.053        0.080      343.210       19.160      867.548
04/30/2014  20:02:00      114.179       58.987       40.271       63.186       39.070       34.865     3992.534     1526.487     1215.582        1.244        0.337      128.516       20.181        0.025      342.943       18.707      867.548
04/30/2014  20:03:00      132.457       81.223       25.411       27.120       28.447       30.941      735.483      809.234      957.342        1.364        0.125      155.377       17.222        0.012      343.042       18.876      867.559
04/30/2014  20:04:00       96.197       54.642       27.210       32.188       28.990       32.116     1036.078      840.420     1031.414        0.794        0.145      110.632       16.154        0.021      343.052       18.893      867.561
04/30/2014  20:05:00      101.063       59.275       15.653       40.589       30.046       25.009     1647.486      902.766      625.462        0.857        0.159      117.163       12.228        0.011      343.216       19.171      867.566
04/30/2014  20:06:00       96.692       58.980       28.399       37.284       25.180       25.415     1390.105      634.040      645.938        0.815        0.134      113.261       21.719        0.037      343.371       19.437      867.568
04/30/2014  20:07:00       83.178       63.191       13.817       55.431       25.201       22.127     3072.612      635.084      489.616        0.765        0.210      104.459       14.521        0.019      343.276       19.273      867.571
04/30/2014  20:08:00       56.531       45.569        6.536       42.525       27.531       25.477     1808.396      757.970      649.068        0.426        0.161       72.610       13.066        0.032      342.740       18.361      867.570
04/30/2014  20:09:00       65.788       53.351        3.089       31.998       22.494       26.417     1023.873      505.977      697.840        0.471        0.111       84.701        7.595        0.008      342.780       18.429      867.574
04/30/2014  20:10:00       85.684       46.193       15.592       42.952       29.746       28.542     1844.868      884.825      814.666        0.663        0.177       97.342       17.039        0.031      343.089       18.956      867.585
04/30/2014  20:11:00       66.141       49.107       18.628       34.060       24.385       25.467     1160.098      594.628      648.581        0.477        0.120       82.378       14.510        0.031      342.982       18.774      867.588
04/30/2014  20:12:00       51.242       47.155        3.685       34.517       20.577       24.394     1191.394      423.424      595.072        0.354        0.110       69.637       15.153        0.047      342.965       18.744      867.597
04/30/2014  20:13:00       77.969       53.827       21.871       29.124       24.251       24.000      848.202      588.132      576.006        0.573        0.101       94.745       17.004        0.032      342.732       18.348      867.609
04/30/2014  20:14:00       66.706       47.096       18.870       33.136       30.400       20.902     1097.976      924.168      436.887        0.474        0.123       81.656        9.574        0.014      342.460       17.886      867.619
04/30/2014  20:15:00       77.932       48.673       20.036       35.822       29.380       25.734     1283.201      863.187      662.256        0.583        0.140       91.883        8.996        0.010      342.531       18.006      867.629
04/30/2014  20:16:00       69.025       58.531        9.628       31.680       36.035       31.886     1003.601     1298.530     1016.703        0.580        0.166       90.501       19.610        0.047      342.348       17.694      867.637
04/30/2014  20:17:00       81.524       46.732        0.207       29.317       23.722       26.898      859.485      562.728      723.498        0.549        0.107       93.968        7.985        0.007      342.250       17.530      867.644
04/30/2014  20:18:00       45.275       40.355        6.136       36.267       23.862       23.856     1315.323      569.404      569.125        0.308        0.123       60.650       13.832        0.052      342.300       17.614      867.649
04/30/2014  20:19:00       65.075       48.919       18.371       26.463       20.253       18.664      700.278      410.201      348.340        0.421        0.073       81.411       11.905        0.021      342.828       18.511      867.652
04/30/2014  20:20:00       64.675       55.480       20.004       36.041       22.576       25.965     1298.933      509.657      674.160        0.507        0.124       85.211       19.191        0.051      342.991       18.787      867.653
04/30/2014  20:21:00       98.616       67.018       31.394       45.098       31.941       31.756     2033.843     1020.236     1008.453        0.963        0.203      119.233       17.674        0.022      342.814       18.488      867.667
04/30/2014  20:22:00       96.053       55.957       27.618       38.624       35.201       34.230     1491.851     1239.118     1171.699        0.851        0.195      111.163       21.288        0.037      342.361       17.716      867.674
04/30/2014  20:23:00       82.522       62.924       32.268       28.741       32.965       32.340      826.027     1086.670     1045.846        0.738        0.148      103.775       10.818        0.011      342.285       17.587      867.680
04/30/2014  20:24:00       74.445       51.626       25.553       37.670       32.394       33.423     1419.013     1049.386     1117.097        0.622        0.179       90.594       18.578        0.042      342.387       17.761      867.692
04/30/2014  20:25:00       57.655       49.434       18.287       29.117       37.685       33.973      847.798     1420.192     1154.145        0.476        0.171       75.946       16.460        0.047      342.087       17.251      867.706
04/30/2014  20:26:00       63.258       65.402       29.717       36.748       32.208       32.114     1350.444     1037.327     1031.302        0.629        0.171       90.989       19.228        0.045      342.091       17.258      867.708
04/30/2014  20:27:00       96.788       64.008       32.435       24.104       24.228       31.196      580.983      587.002      973.166        0.833        0.107      116.039       14.931        0.017      342.417       17.812      867.719
04/30/2014  20:28:00       87.645       62.962        8.549       31.184       25.728       29.464      972.461      661.939      868.153        0.711        0.125      107.916       18.206        0.028      342.358       17.712      867.715
04/30/2014  20:29:00       94.453       49.263       19.884       32.006       25.646       27.412     1024.407      657.722      751.432        0.709        0.122      106.528       18.531        0.030      342.389       17.763      867.720
04/30/2014  20:30:00       96.131       49.445       21.835       29.949       26.758       23.751      896.925      715.991      564.089        0.717        0.109      108.102       15.242        0.020      342.679       18.257      867.736
04/30/2014  20:31:00       87.385       60.879       23.952       22.726       20.901       27.087      516.450      436.839      733.710        0.680        0.084      106.501       11.061        0.011      342.834       18.523      867.746
04/30/2014  20:32:00       56.341       37.801        5.248       32.492       23.918       25.647     1055.729      572.068      657.786        0.346        0.114       67.847       14.447        0.045      342.250       17.529      867.766
04/30/2014  20:33:00       66.494       52.786       17.390       33.379       25.120       29.104     1114.186      631.033      847.021        0.505        0.130       84.899        9.159        0.012      342.363       17.720      867.775
04/30/2014  20:34:00       25.791       26.335       -1.275       23.112       23.704       24.943      534.150      561.860      622.171        0.154        0.086       36.860        7.798        0.045      342.189       17.424      867.788
04/30/2014  20:35:00       42.850       20.851        0.679       31.345       28.264       22.862      982.496      798.856      522.679        0.229        0.115       47.654       10.108        0.045      341.916       16.962      867.800
04/30/2014  20:36:00       16.340       11.563      -12.528       23.237       23.125       16.810      539.956      534.743      282.573        0.096        0.068       20.017       12.869        0.413      341.876       16.893      867.819
04/30/2014  20:37:00       32.130       29.148       -5.481       27.130       24.783       19.999      736.048      614.191      399.968        0.183        0.088       43.381        4.843        0.012      342.372       17.736      867.841
04/30/2014  20:38:00       37.794       59.305      -18.429       30.173       30.523       26.609      910.417      931.625      708.054        0.392        0.128       70.324       16.369        0.054      342.166       17.385      867.849
04/30/2014  20:39:00       26.600       20.648      -11.257       23.765       31.301       23.546      564.753      979.774      554.406        0.168        0.105       33.674       14.770        0.192      342.256       17.540      867.856
04/30/2014  20:40:00      -14.179      -10.039       -3.886       31.463       15.450        8.027      989.900      238.701       64.432        0.080        0.065       17.373       10.847        0.390      342.703       18.298      867.870
04/30/2014  20:41:00      -42.351      -20.632        3.790        9.781        8.594        7.629       95.665       73.856       58.200        0.123        0.011       47.110        6.380        0.018      343.000       18.803      867.879
04/30/2014  20:42:00      -70.512       -6.406       -5.366       16.703       14.784        8.981      278.989      218.573       80.663        0.281        0.029       70.803        3.532        0.002      342.547       18.032      867.895
04/30/2014  20:43:00      -86.492      -26.643       -8.109       23.355       18.208       14.322      545.468      331.531      205.122        0.467        0.054       90.503       13.169        0.021      342.403       17.790      867.895
04/30/2014  20:44:00     -117.507      -27.846      -14.914       19.442       17.462       16.427      377.982      304.920      269.839        0.788        0.048      120.762       11.622        0.009      342.480       17.920      867.905
04/30/2014  20:45:00      -83.125       -3.509       -3.611       36.026       20.880       10.793     1297.844      435.967      116.495        0.439        0.093       83.199       12.306        0.022      342.469       17.901      867.910
04/30/2014  20:46:00      -63.057       -8.755       -6.433       22.185       12.499       10.438      492.167      156.217      108.947        0.243        0.038       63.662       10.156        0.025      342.479       17.918      867.913
04/30/2014  20:47:00      -53.894      -28.313       -3.785        9.048       14.944        9.509       81.860      223.317       90.418        0.206        0.020       60.879        2.178        0.001      342.617       18.152      867.915
04/30/2014  20:48:00      -49.224        4.081       -6.765       11.387       11.096        8.432      129.667      123.124       71.107        0.140        0.016       49.393        6.290        0.016      342.781       18.430      867.920
04/30/2014  20:49:00      -61.513      -16.736       -5.850       17.493       15.360        7.591      306.011      235.918       57.625        0.235        0.030       63.749        5.366        0.007      342.693       18.283      867.913
04/30/2014  20:50:00      -21.042      -12.852        1.716       37.688       17.149       16.103     1420.392      294.073      259.302        0.129        0.099       24.657       12.295        0.249      342.261       17.547      867.929
04/30/2014  20:51:00     -117.088      -26.279      -14.074       28.973       23.157       13.971      839.431      536.256      195.187        0.808        0.079      120.001       10.544        0.008      342.155       17.367      867.923
04/30/2014  20:52:00     -115.170        0.653      -11.301       36.703       24.865       18.104     1347.080      618.251      327.759        0.784        0.115      115.172       13.887        0.015      342.023       17.142      867.933
04/30/2014  20:53:00      -95.468        9.199       -9.059       49.069       22.460       20.728     2407.810      504.448      429.669        0.631        0.167       95.910       26.379        0.076      341.838       16.829      867.936
04/30/2014  20:54:00      -31.131        4.313       -2.900       20.886       16.115       10.579      436.205      259.678      111.924        0.090        0.040       31.429       12.247        0.152      341.813       16.787      867.952
04/30/2014  20:55:00      -39.923       -2.890       -1.981       12.016       15.766       11.064      144.389      248.564      122.403        0.106        0.026       40.028        5.790        0.021      342.114       17.297      867.962
04/30/2014  20:56:00      -62.907      -25.520       -2.265       19.648       15.682        9.284      386.041      245.919       86.195        0.267        0.036       67.886        7.240        0.011      341.976       17.062      867.963
04/30/2014  20:57:00      -60.073      -42.923      -10.675       21.325       15.419       11.137      454.773      237.758      124.037        0.319        0.041       73.832        8.254        0.012      341.988       17.083      867.964
04/30/2014  20:58:00      -48.876      -25.567       -9.949       18.731       14.595       16.422      350.863      213.027      269.690        0.199        0.042       55.159        6.624        0.014      341.831       16.818      867.958
04/30/2014  20:59:00      -58.582       -3.991        5.071       29.408       34.921       23.678      864.804     1219.456      560.639        0.306        0.132       58.717       20.928        0.127      341.777       16.726      867.960
04/30/2014  21:00:00      -63.402       -7.004      -14.583       28.701       30.337       17.120      823.728      920.338      293.085        0.316        0.102       63.788       12.994        0.041      341.919       16.966      867.952
04/30/2014  21:01:00     -102.952      -15.627      -12.333       24.489       38.547       20.448      599.725     1485.866      418.131        0.675        0.125      104.131       11.349        0.012      341.841       16.832      867.944
04/30/2014  21:02:00      -54.279      -46.606       -4.942       65.037       33.208       23.470     4229.800     1102.741      550.837        0.551        0.294       71.543       22.325        0.097      341.615       16.451      867.959
04/30/2014  21:03:00      -50.156      -26.663       -7.411       68.733       31.513       17.046     4724.176      993.094      290.581        0.464        0.300       56.802       14.397        0.064      341.512       16.276      867.982
04/30/2014  21:04:00     -151.260       -0.527      -10.614       33.090       40.059       23.178     1094.974     1604.740      537.212        1.311        0.162      151.261       16.372        0.012      341.552       16.344      867.990
04/30/2014  21:05:00     -120.891       23.319      -22.007       31.525       24.280       16.372      993.847      589.515      268.028        0.875        0.093      123.119       11.772        0.009      341.518       16.285      868.006
04/30/2014  21:06:00     -129.550       38.812      -13.554       35.530       26.070       17.590     1262.364      679.626      309.413        1.036        0.113      135.239       10.314        0.006      341.446       16.164      868.012
04/30/2014  21:07:00     -117.133       16.227      -14.406       39.192       38.805       22.456     1535.975     1505.856      504.290        0.887        0.177      118.252       22.519        0.036      341.389       16.067      868.027
04/30/2014  21:08:00      -97.591        0.966       -6.580       34.604       24.008       17.480     1197.467      576.378      305.560        0.582        0.104       97.596       13.289        0.019      341.494       16.246      868.050
04/30/2014  21:09:00      -80.236       -9.204        2.529       43.168       23.994       17.196     1863.438      575.690      295.706        0.463        0.137       80.762       15.804        0.038      341.483       16.225      868.062
04/30/2014  21:10:00     -111.688       -7.229       -7.892       30.793       27.141       17.235      948.181      736.661      297.048        0.728        0.099      111.921       16.590        0.022      341.448       16.168      868.087
04/30/2014  21:11:00     -112.403        0.243      -10.393       32.581       19.251       16.041     1061.504      370.603      257.314        0.722        0.084      112.404       14.171        0.016      341.381       16.054      868.101
04/30/2014  21:12:00     -114.145       -2.559      -10.859       35.458       24.298       16.202     1257.260      590.385      262.509        0.763        0.106      114.174       18.379        0.026      341.427       16.131      868.104
04/30/2014  21:13:00     -107.129      -40.817       -7.627       16.236       22.842        9.868      263.595      521.753       97.375        0.704        0.044      114.641        8.786        0.006      341.390       16.069      868.125
04/30/2014  21:14:00      -95.032      -40.012       -3.645       43.129       27.499       19.314     1860.139      756.184      373.026        0.682        0.149      103.111       16.904        0.027      341.241       15.817      868.133
04/30/2014  21:15:00      -91.184      -47.313       -2.729       26.733       24.173       17.261      714.635      584.329      297.928        0.608        0.080      102.728       15.563        0.023      341.237       15.810      868.147
04/30/2014  21:16:00     -114.251      -33.531       -8.493       25.254       25.034       14.319      637.756      626.713      205.024        0.786        0.073      119.070       11.553        0.009      341.183       15.719      868.154
04/30/2014  21:17:00     -115.077      -34.831       -8.600       32.864       32.882       24.158     1080.052     1081.252      583.589        0.864        0.137      120.233       20.688        0.030      341.200       15.747      868.157
04/30/2014  21:18:00     -122.743      -24.963       -8.812       27.270       27.862       18.907      743.662      776.294      357.482        0.882        0.094      125.256       15.487        0.015      341.116       15.604      868.168
04/30/2014  21:19:00     -113.632      -41.473       -4.369       39.281       31.128       18.149     1543.030      968.931      329.385        0.875        0.142      120.964       13.006        0.012      341.030       15.460      868.170
04/30/2014  21:20:00     -101.929      -56.263      -16.094       30.451       31.708       24.803      927.242     1005.385      615.182        0.818        0.127      116.426       18.854        0.026      341.061       15.512      868.179
04/30/2014  21:21:00     -106.049      -41.860      -11.308       34.313       32.257       22.596     1177.359     1040.486      510.594        0.793        0.136      114.012       17.516        0.024      340.983       15.380      868.194
04/30/2014  21:22:00      -79.975      -23.891       -2.917       32.024       28.867       18.730     1025.506      833.327      350.800        0.459        0.110       83.467       13.762        0.027      340.975       15.366      868.202
04/30/2014  21:23:00     -105.659      -49.101      -11.697       38.264       37.717       18.304     1464.127     1422.595      335.044        0.847        0.161      116.511       14.446        0.015      341.062       15.513      868.218
04/30/2014  21:24:00      -17.231      -34.493       21.313       30.502       42.588       18.049      930.364     1813.718      325.750        0.250        0.153       38.558        7.973        0.043      340.769       15.018      868.233
04/30/2014  21:25:00      -45.295       -6.460       11.296       43.004       29.135       18.732     1849.380      848.821      350.905        0.263        0.152       45.753       18.630        0.166      340.694       14.891      868.241
04/30/2014  21:26:00     -106.002      -32.236       -6.484       38.324       39.226       21.977     1468.750     1538.687      482.984        0.790        0.175      110.796       11.735        0.011      340.845       15.146      868.250
04/30/2014  21:27:00      -63.349      -11.443        1.898       51.608       41.877       22.802     2663.426     1753.682      519.917        0.454        0.247       64.374       18.782        0.085      340.681       14.868      868.242
04/30/2014  21:28:00      -88.313      -16.076        5.663       38.832       37.022       20.573     1507.904     1370.624      423.252        0.570        0.165       89.764       17.224        0.037      340.772       15.024      868.248
04/30/2014  21:29:00      -95.702      -35.148       -0.306       26.515       29.367       21.257      703.071      862.408      451.880        0.621        0.101      101.952       13.078        0.016      340.883       15.211      868.268
04/30/2014  21:30:00      -95.528      -40.365      -17.059       23.576       21.271       19.434      555.843      452.447      377.685        0.622        0.069      103.706        8.986        0.008      341.074       15.534      868.269
04/30/2014  21:31:00     -103.305      -34.136      -10.576       22.635       21.143       15.764      512.346      447.039      248.508        0.658        0.060      108.798        9.000        0.007      340.845       15.148      868.275
04/30/2014  21:32:00      -96.143      -38.528       -9.393       25.965       23.961       17.820      674.194      574.147      317.545        0.619        0.078      103.576       14.532        0.020      340.802       15.074      868.278
04/30/2014  21:33:00     -100.419      -16.850      -10.431       32.813       22.923       17.288     1076.698      525.467      298.867        0.619        0.095      101.823       17.229        0.029      340.939       15.307      868.293
04/30/2014  21:34:00      -90.570       -6.349      -15.489       28.714       22.815       16.810      824.494      520.534      282.588        0.506        0.081       90.792       14.922        0.027      340.904       15.247      868.302
04/30/2014  21:35:00      -94.692      -24.966       -0.472       24.902       29.018       20.397      620.128      842.064      416.044        0.573        0.094       97.928       11.378        0.013      340.820       15.104      868.298
04/30/2014  21:36:00     -131.266      -22.632       -6.657       34.108       39.590       16.274     1163.380     1567.375      264.849        1.039        0.150      133.203       11.610        0.008      340.742       14.972      868.307
04/30/2014  21:37:00      -78.178        0.672      -10.975       34.370       33.487       19.772     1181.273     1121.349      390.912        0.446        0.135       78.180       17.151        0.048      340.722       14.940      868.308
04/30/2014  21:38:00      -98.557       -3.067       -4.122       54.026       28.085       20.302     2918.855      788.764      412.180        0.693        0.206       98.604       18.444        0.035      340.638       14.798      868.317
04/30/2014  21:39:00     -116.145      -40.884       -9.671       35.000       31.812       21.234     1224.987     1012.028      450.876        0.897        0.134      123.131       17.607        0.020      340.717       14.931      868.319
04/30/2014  21:40:00     -126.646      -55.444       -6.595       36.771       33.943       20.533     1352.108     1152.152      421.606        1.104        0.146      138.251        7.448        0.003      340.648       14.816      868.320
04/30/2014  21:41:00     -116.794      -26.797       -3.596       44.279       48.507       22.266     1960.640     2352.948      495.763        0.959        0.240      119.828       20.442        0.029      340.594       14.723      868.324
04/30/2014  21:42:00      -44.002      -12.422        1.030       35.337       33.516       24.825     1248.688     1123.317      616.296        0.254        0.149       45.721       17.208        0.142      340.640       14.801      868.323
04/30/2014  21:43:00     -115.697      -42.741       -9.683       44.710       40.621       22.942     1999.021     1650.078      526.348        0.974        0.209      123.339       18.890        0.023      340.682       14.871      868.328
04/30/2014  21:44:00     -122.090       -7.651      -19.208       34.569       32.992       19.070     1195.042     1088.478      363.656        0.899        0.132      122.330       13.925        0.013      340.622       14.768      868.321
04/30/2014  21:45:00     -106.941      -29.570      -15.740       32.191       31.051       20.774     1036.256      964.172      431.540        0.749        0.122      110.954       15.026        0.018      340.495       14.556      868.318
04/30/2014  21:46:00      -89.849      -34.901      -11.837       20.477       24.608       15.859      419.321      605.535      251.492        0.535        0.064       96.389       12.205        0.016      340.481       14.531      868.324
04/30/2014  21:47:00     -129.284      -16.047      -13.950       20.274       20.302       16.038      411.049      412.165      257.203        0.912        0.054      130.276       10.087        0.006      340.638       14.798      868.336
04/30/2014  21:48:00     -114.534      -26.368      -27.472       29.197       28.798       17.455      852.477      829.302      304.679        0.828        0.099      117.530        7.435        0.004      340.704       14.908      868.349
04/30/2014  21:49:00     -129.411      -39.036      -25.051       25.859       28.405       18.343      668.711      806.836      336.453        1.035        0.091      135.170       10.482        0.006      340.505       14.572      868.349
04/30/2014  21:50:00     -116.363      -28.113        2.275       52.004       46.882       25.737     2704.408     2197.924      662.408        0.995        0.278      119.711       21.203        0.031      340.337       14.288      868.352
04/30/2014  21:51:00     -117.933      -40.052        0.442       37.567       42.098       19.852     1411.249     1772.258      394.117        0.954        0.179      124.549       14.345        0.013      340.391       14.379      868.357
04/30/2014  21:52:00      -76.284      -12.713       -0.888       47.872       36.105       21.306     2291.714     1303.571      453.960        0.501        0.202       77.336       21.253        0.076      340.298       14.223      868.349
04/30/2014  21:53:00      -83.063      -10.228       -3.856       39.878       40.115       20.766     1590.291     1609.252      431.247        0.532        0.182       83.691       15.446        0.034      340.286       14.201      868.359
04/30/2014  21:54:00     -103.512      -16.690       -1.818       42.812       40.009       21.795     1832.865     1600.749      475.022        0.745        0.195      104.848       16.980        0.026      340.320       14.258      868.362
04/30/2014  21:55:00     -101.581      -20.518      -11.165       48.541       41.063       22.861     2356.276     1686.159      522.623        0.771        0.228      103.633       17.214        0.028      340.269       14.173      868.364
04/30/2014  21:56:00     -106.786      -40.784       -7.669       41.931       47.685       26.621     1758.249     2273.814      708.700        0.893        0.237      114.309       17.028        0.022      340.309       14.241      868.373
04/30/2014  21:57:00     -122.225      -25.024       -5.723       46.653       36.857       23.319     2176.496     1358.427      543.781        0.984        0.204      124.760       18.693        0.022      340.277       14.185      868.372
04/30/2014  21:58:00     -121.594      -30.955      -10.983       32.299       33.919       26.173     1043.213     1150.519      685.035        0.937        0.144      125.472       21.260        0.029      340.270       14.174      868.382
04/30/2014  21:59:00      -84.542      -36.694        4.637       62.109       61.807       27.167     3857.511     3820.050      738.040        0.846        0.421       92.162       25.889        0.079      340.097       13.882      868.396
04/30/2014  22:00:00     -115.222      -56.762      -13.600       53.055       50.699       29.859     2814.861     2570.420      891.548        1.148        0.314      128.445       23.456        0.033      340.047       13.797      868.403
04/30/2014  22:01:00      -70.170      -53.477       -5.068       57.561       39.328       31.593     3313.311     1546.716      998.125        0.683        0.293       88.225       31.347        0.126      340.023       13.757      868.415
04/30/2014  22:02:00      -34.019       -5.898       21.744       61.884       29.819       30.637     3829.634      889.163      938.612        0.366        0.283       34.526       32.677        0.896      339.971       13.670      868.415
04/30/2014  22:03:00     -113.783      -65.437      -10.972       50.301       36.080       24.649     2530.211     1301.779      607.552        1.089        0.222      131.258       21.196        0.026      339.974       13.674      868.428
04/30/2014  22:04:00     -132.150      -69.369      -16.084       41.277       45.384       27.024     1703.787     2059.716      730.294        1.351        0.225      149.250       13.070        0.008      339.989       13.700      868.435
04/30/2014  22:05:00     -135.909      -66.596      -12.152       54.039       45.030       28.550     2920.262     2027.734      815.100        1.441        0.288      151.349       24.829        0.027      339.972       13.672      868.433
04/30/2014  22:06:00     -156.819      -35.749      -15.530       62.768       40.382       28.235     3939.778     1630.737      797.217        1.624        0.318      160.842       28.649        0.032      339.978       13.681      868.437
04/30/2014  22:07:00     -137.554        1.379        0.105       60.019       49.650       32.127     3602.254     2465.139     1032.135        1.301        0.355      137.561       28.869        0.044      339.819       13.414      868.438
04/30/2014  22:08:00     -166.371      -32.367       -8.225       64.210       41.458       28.764     4122.913     1718.737      827.375        1.773        0.333      169.491       32.806        0.037      339.854       13.471      868.449
04/30/2014  22:09:00     -202.256      -62.462       -9.868       55.571       56.405       30.776     3088.183     3181.524      947.168        2.606        0.361      211.682       28.298        0.018      339.873       13.502      868.449
04/30/2014  22:10:00     -128.291      -79.197       -2.346       71.330       48.919       32.281     5087.997     2393.021     1042.065        1.563        0.426      150.768       38.540        0.065      339.834       13.436      868.436
04/30/2014  22:11:00     -169.614      -55.504       -8.816       61.312       62.022       36.147     3759.207     3846.717     1306.608        2.042        0.446      178.465       34.693        0.038      339.904       13.556      868.442
04/30/2014  22:12:00     -149.698      -27.783       -5.334       66.379       57.067       39.167     4406.220     3256.642     1534.062        1.620        0.460      152.254       38.853        0.065      339.757       13.308      868.430
04/30/2014  22:13:00     -161.982       -6.400      -10.060       66.021       48.705       35.922     4358.780     2372.209     1290.373        1.720        0.401      162.108       31.082        0.037      339.787       13.358      868.438
04/30/2014  22:14:00     -186.872        0.625      -17.688       71.747       46.254       32.724     5147.617     2139.440     1070.879        2.179        0.418      186.873       31.918        0.029      339.836       13.441      868.425
04/30/2014  22:15:00     -192.216       26.989      -14.709       54.443       43.577       39.017     2963.997     1898.987     1522.321        2.214        0.319      194.101       36.093        0.035      339.777       13.341      868.423
04/30/2014  22:16:00     -176.965        7.095       -8.415       59.425       44.978       33.617     3531.355     2022.977     1130.109        1.906        0.334      177.107       29.958        0.029      339.822       13.417      868.411
04/30/2014  22:17:00     -122.069       -8.064       -6.581       69.257       39.339       32.243     4796.569     1547.553     1039.615        1.119        0.369      122.335       34.586        0.080      339.727       13.257      868.416
04/30/2014  22:18:00     -170.157       17.366      -11.158       48.190       40.218       29.841     2322.278     1617.475      890.500        1.710        0.242      171.041       26.342        0.024      339.656       13.137      868.410
04/30/2014  22:19:00     -165.384        1.814      -13.807       37.913       48.207       28.271     1437.415     2323.902      799.232        1.605        0.228      165.394       22.032        0.018      339.715       13.238      868.420
04/30/2014  22:20:00     -193.700       10.329      -15.478       57.633       37.927       33.672     3321.585     1438.432     1133.785        2.188        0.295      193.975       32.044        0.027      339.664       13.150      868.418
04/30/2014  22:21:00     -128.109       10.141       -4.924       52.818       38.563       23.897     2789.717     1487.071      571.077        1.069        0.242      128.510       15.216        0.014      339.678       13.177      868.425
04/30/2014  22:22:00     -180.298       28.684       -6.237       46.826       45.325       33.308     2192.702     2054.320     1109.416        1.936        0.268      182.565       26.229        0.021      339.683       13.184      868.425
04/30/2014  22:23:00     -115.931       35.831       -5.945       60.259       48.793       39.915     3631.126     2380.724     1593.183        1.118        0.380      121.342       33.240        0.075      339.741       13.283      868.425
04/30/2014  22:24:00      -87.609       23.578       -6.822       50.187       43.055       30.907     2518.701     1853.724      955.259        0.680        0.266       90.726       22.514        0.062      339.764       13.321      868.426
04/30/2014  22:25:00     -155.888       42.473      -16.654       59.342       38.317       26.504     3521.430     1468.228      702.448        1.604        0.285      161.571       18.303        0.013      339.839       13.446      868.430
04/30/2014  22:26:00     -130.638       31.329      -11.747       49.326       39.851       25.054     2433.020     1588.079      627.707        1.142        0.232      134.342        9.806        0.005      339.928       13.598      868.436
04/30/2014  22:27:00     -110.107       12.321       -1.650       48.195       40.773       27.753     2322.779     1662.399      770.214        0.852        0.238      110.794       26.376        0.057      339.930       13.601      868.442
04/30/2014  22:28:00      -82.116       -1.333        5.036       71.761       53.026       33.385     5149.614     2811.803     1114.526        0.792        0.454       82.126       41.058        0.250      339.896       13.544      868.462
04/30/2014  22:29:00     -137.987      -33.066      -12.288       53.536       44.434       22.355     2866.121     1974.370      499.738        1.281        0.267      141.894       20.288        0.020      339.931       13.601      868.462
04/30/2014  22:30:00     -139.150      -69.412       -5.859       35.600       45.918       23.814     1267.331     2108.418      567.130        1.408        0.197      155.501       15.899        0.010      339.815       13.406      868.469
04/30/2014  22:31:00     -155.780      -41.701      -16.614       33.614       36.074       19.793     1129.932     1301.366      391.757        1.455        0.141      161.265       13.194        0.007      339.819       13.414      868.464
04/30/2014  22:32:00     -144.511      -33.749      -15.569       48.609       35.286       21.439     2362.854     1245.115      459.637        1.317        0.203      148.399       18.170        0.015      339.819       13.413      868.469
04/30/2014  22:33:00      -85.827      -38.578       -3.161       55.417       43.935       26.458     3071.056     1930.251      700.044        0.728        0.285       94.099       24.899        0.070      339.728       13.262      868.463
04/30/2014  22:34:00     -109.854      -27.073      -11.499       45.530       30.390       22.881     2072.988      923.529      523.543        0.823        0.176      113.141       22.738        0.040      339.835       13.442      868.456
04/30/2014  22:35:00      -84.688      -40.249       -9.268       37.348       38.008       25.361     1394.861     1444.628      643.173        0.618        0.174       93.766       16.681        0.032      339.772       13.334      868.464
04/30/2014  22:36:00     -120.494      -57.987       -9.588       39.235       33.862       17.396     1539.406     1146.654      302.636        1.048        0.149      133.721       13.989        0.011      339.718       13.244      868.459
04/30/2014  22:37:00      -83.874      -54.662        1.848       68.336       35.651       28.644     4669.826     1270.998      820.493        0.839        0.338      100.114       36.316        0.132      339.674       13.169      868.449
04/30/2014  22:38:00     -106.260      -64.289        3.067       38.880       41.211       23.869     1511.660     1698.338      569.727        0.961        0.189      124.194       17.377        0.020      339.650       13.130      868.447
04/30/2014  22:39:00     -147.688      -62.011       -6.178       37.743       41.521       18.795     1424.547     1724.019      353.251        1.460        0.175      160.178       14.517        0.008      339.684       13.187      868.438
04/30/2014  22:40:00     -113.743      -42.890       -8.665       68.401       33.947       28.907     4678.728     1152.430      835.613        1.076        0.333      121.561       30.655        0.064      339.710       13.230      868.433
04/30/2014  22:41:00     -141.639      -67.288       -3.015       33.740       33.208       23.393     1138.368     1102.768      547.245        1.369        0.139      156.810       17.824        0.013      339.600       13.045      868.450
04/30/2014  22:42:00     -134.788      -46.878      -11.494       50.366       35.799       29.417     2536.702     1281.594      865.370        1.259        0.234      142.708        6.364        0.002      339.571       12.995      868.450
04/30/2014  22:43:00     -148.511      -45.852       -8.390       39.376       41.619       24.840     1550.483     1732.165      617.028        1.406        0.195      155.428       22.474        0.021      339.653       13.134      868.449
04/30/2014  22:44:00     -168.300      -21.880      -12.787       53.447       30.749       22.876     2856.577      945.503      523.316        1.665        0.216      169.716       25.347        0.022      339.578       13.005      868.466
04/30/2014  22:45:00     -186.980      -45.184       -9.866       40.965       39.251       24.481     1678.118     1540.628      599.302        2.046        0.191      192.362       23.175        0.015      339.493       12.862      868.472
04/30/2014  22:46:00     -147.950      -39.545       -4.816       63.931       36.807       26.855     4087.175     1354.758      721.183        1.482        0.308      153.144       31.481        0.042      339.445       12.783      868.480
04/30/2014  22:47:00     -153.670      -53.312       -3.681       42.605       41.036       26.337     1815.226     1683.944      693.659        1.533        0.210      162.655       22.204        0.019      339.478       12.838      868.487
04/30/2014  22:48:00     -184.477      -46.574      -11.905       43.770       35.312       24.185     1915.838     1246.908      584.899        2.004        0.187      190.265       23.631        0.015      339.444       12.780      868.507
04/30/2014  22:49:00     -154.927      -29.117      -10.130       45.974       39.112       24.670     2113.618     1529.745      608.622        1.460        0.213      157.639       26.114        0.027      339.415       12.733      868.516
04/30/2014  22:50:00     -186.797      -39.960      -13.982       50.881       32.312       23.385     2588.828     1044.085      546.846        2.043        0.209      191.024       23.682        0.015      339.386       12.682      868.522
04/30/2014  22:51:00     -155.397      -61.608      -11.068       46.185       44.620       26.702     2133.080     1990.926      712.977        1.645        0.242      167.164       24.806        0.022      339.399       12.705      868.529
04/30/2014  22:52:00     -149.591      -89.374       -6.994       37.923       35.638       30.109     1438.171     1270.092      906.550        1.701        0.181      174.256       23.104        0.018      339.335       12.596      868.545
04/30/2014  22:53:00      -99.895      -79.321        1.523       50.900       42.096       32.315     2590.802     1772.114     1044.287        1.084        0.270      127.557       24.672        0.037      339.411       12.725      868.545
04/30/2014  22:54:00      -50.330      -64.014        3.928       72.585       49.280       41.207     5268.648     2428.519     1698.027        0.802        0.470       81.431       46.472        0.326      339.369       12.655      868.543
04/30/2014  22:55:00      -86.517      -61.475       -3.560       75.188       34.875       29.110     5653.287     1216.245      847.402        0.950        0.386      106.134       37.168        0.123      339.383       12.677      868.559
04/30/2014  22:56:00     -163.789      -45.990      -17.329       24.049       23.220       21.654      578.341      539.165      468.877        1.541        0.079      170.123       14.692        0.007      339.362       12.643      868.567
04/30/2014  22:57:00     -152.916      -54.808      -13.134       30.348       24.009       15.850      920.971      576.445      251.222        1.415        0.087      162.441        9.052        0.003      339.373       12.662      868.564
04/30/2014  22:58:00     -159.522      -82.644      -17.544       29.457       17.747       18.629      867.737      314.944      347.034        1.706        0.076      179.659       14.717        0.007      339.360       12.640      868.563
04/30/2014  22:59:00     -176.409      -50.494      -20.045       21.405       19.065       18.293      458.183      363.467      334.632        1.761        0.058      183.493        7.269        0.002      339.383       12.679      868.579
04/30/2014  23:00:00     -150.231      -39.666      -11.409       31.892       29.006       18.193     1017.111      841.332      330.988        1.323        0.109      155.380       16.143        0.011      339.431       12.758      868.584
04/30/2014  23:01:00     -125.723      -34.285       -9.184       31.469       27.035       25.170      990.311      730.908      633.536        0.971        0.118      130.314       23.498        0.033      339.439       12.771      868.579
04/30/2014  23:02:00     -124.686      -40.290       -7.602       33.117       26.291       16.098     1096.760      691.194      259.147        0.964        0.102      131.034       12.399        0.009      339.413       12.728      868.570
04/30/2014  23:03:00     -101.641      -12.178       -2.860       24.431       33.115       15.072      596.856     1096.599      227.152        0.620        0.096      102.368       10.297        0.010      339.399       12.704      868.567
04/30/2014  23:04:00     -116.342      -31.271       -8.594       27.891       26.678       15.379      777.905      711.719      236.527        0.816        0.086      120.471       15.855        0.017      339.399       12.705      868.564
04/30/2014  23:05:00     -110.781      -39.940      -14.288       18.261       18.125       11.714      333.462      328.516      137.213        0.744        0.040      117.761        9.825        0.007      339.271       12.490      868.562
04/30/2014  23:06:00     -119.952      -23.087      -19.062       20.079       23.961       13.642      403.152      574.122      186.092        0.822        0.058      122.153        8.494        0.005      339.291       12.524      868.558
04/30/2014  23:07:00     -115.385      -49.137      -17.070       18.918       27.461       19.065      357.894      754.131      363.460        0.875        0.074      125.412        8.107        0.004      339.224       12.410      868.554
04/30/2014  23:08:00     -147.725      -29.554      -16.675       20.530       25.930       17.560      421.469      672.389      308.368        1.219        0.070      150.652       14.131        0.009      339.180       12.335      868.542
04/30/2014  23:09:00     -124.271      -43.912      -16.109       39.283       29.097       21.871     1543.124      846.657      478.361        1.025        0.143      131.802       23.660        0.032      339.203       12.374      868.540
04/30/2014  23:10:00     -106.619      -52.697      -21.831       25.352       27.952       22.360      642.729      781.326      499.991        0.827        0.096      118.930       14.708        0.015      339.175       12.329      868.541
04/30/2014  23:11:00     -114.382      -36.779      -17.543       17.188       22.550       11.172      295.438      508.520      124.813        0.784        0.046      120.150        5.946        0.002      339.192       12.357      868.553
04/30/2014  23:12:00     -111.094      -47.993       -9.427       30.377       21.872       17.463      922.773      478.386      304.958        0.822        0.085      121.017       14.721        0.015      339.123       12.240      868.557
04/30/2014  23:13:00     -132.029      -19.246      -15.757       25.529       20.678       14.352      651.737      427.583      205.971        0.967        0.064      133.424       11.356        0.007      339.097       12.196      868.557
04/30/2014  23:14:00     -123.451      -43.120      -12.186       23.033       18.832       15.069      530.535      354.641      227.077        0.918        0.056      130.765        9.548        0.005      339.137       12.264      868.550
04/30/2014  23:15:00     -109.966      -60.485      -14.410       18.845       27.551       19.881      355.118      759.033      395.268        0.873        0.075      125.503        7.552        0.004      339.113       12.223      868.552
04/30/2014  23:16:00      -98.033      -65.842       -5.143       23.041       33.522       20.702      530.868     1123.728      428.570        0.803        0.104      118.092       13.261        0.013      339.094       12.193      868.569
04/30/2014  23:17:00      -97.560      -53.795      -11.820       33.557       21.877       21.056     1126.060      478.588      443.368        0.730        0.102      111.408       19.853        0.032      339.127       12.248      868.590
04/30/2014  23:18:00     -109.140      -42.093      -15.594       42.992       24.433       21.363     1848.280      596.974      456.387        0.841        0.145      116.976       22.556        0.037      339.120       12.237      868.593
04/30/2014  23:19:00     -120.394      -34.539      -24.146       24.090       31.718       22.279      580.329     1006.029      496.338        0.918        0.104      125.251       11.544        0.008      339.132       12.255      868.601
04/30/2014  23:20:00     -100.400      -59.064      -17.396       34.892       30.451       24.798     1217.485      927.267      614.935        0.831        0.138      116.485       17.864        0.024      339.083       12.174      868.613
04/30/2014  23:21:00      -63.916      -67.236      -21.620       39.888       31.827       26.832     1591.051     1012.935      719.967        0.620        0.166       92.768       24.670        0.071      339.079       12.165      868.634
04/30/2014  23:22:00      -94.398      -59.103      -25.251       47.571       39.182       34.252     2262.955     1535.222     1173.171        0.901        0.249      111.374       23.291        0.044      339.078       12.164      868.635
04/30/2014  23:23:00     -101.242      -54.268      -20.685       37.844       34.774       23.753     1432.188     1209.216      564.197        0.841        0.160      114.869       22.350        0.038      339.098       12.199      868.633
04/30/2014  23:24:00     -114.275      -74.584      -14.801       31.000       26.094       18.783      960.993      680.900      352.794        1.042        0.100      136.460        6.350        0.002      339.026       12.077      868.635
04/30/2014  23:25:00     -123.263      -67.946      -16.153       24.264       22.244       15.366      588.735      494.815      236.101        1.070        0.066      140.750        8.618        0.004      338.930       11.917      868.626
04/30/2014  23:26:00     -135.390      -33.677      -25.035       35.540       30.944       17.054     1263.093      957.550      290.836        1.130        0.126      139.516       15.098        0.012      338.973       11.988      868.625
04/30/2014  23:27:00      -99.904      -41.446      -21.413       36.047       23.588       20.285     1299.385      556.372      411.484        0.721        0.113      108.160       15.846        0.021      339.001       12.035      868.633
04/30/2014  23:28:00      -87.976      -44.530       -9.876       33.779       29.210       20.068     1141.052      853.231      402.722        0.611        0.120       98.604        5.434        0.003      338.984       12.005      868.656
04/30/2014  23:29:00      -56.199      -37.389       -3.994       32.368       31.590       21.359     1047.684      997.909      456.204        0.354        0.125       67.500       17.647        0.068      338.981       12.003      868.674
04/30/2014  23:30:00     -116.422      -42.537      -16.081       38.923       20.095       18.380     1515.007      403.789      337.842        0.894        0.113      123.950       17.859        0.021      338.969       11.982      868.669
04/30/2014  23:31:00     -131.048      -24.026      -22.032       29.865       26.695       17.390      891.940      712.642      302.397        1.007        0.095      133.232       15.337        0.013      338.909       11.881      868.660
04/30/2014  23:32:00     -110.237      -30.068      -19.145       17.111       21.580       14.817      292.778      465.678      219.532        0.720        0.049      114.264       10.612        0.009      338.888       11.846      868.654
04/30/2014  23:33:00      -93.750      -34.176      -23.558       25.909       32.986       24.020      671.253     1088.052      576.959        0.642        0.117       99.785       19.983        0.040      338.942       11.937      868.645
04/30/2014  23:34:00      -77.430      -40.681      -14.091       26.101       40.349       25.833      681.251     1628.063      667.321        0.541        0.149       87.466       19.821        0.051      338.965       11.974      868.633
04/30/2014  23:35:00      -35.167      -28.506       -6.392       23.571       20.823       20.012      555.576      433.615      400.497        0.174        0.069       45.269       14.716        0.106      339.048       12.114      868.628
04/30/2014  23:36:00      -91.279      -45.629      -24.437       28.847       25.368       16.427      832.142      643.522      269.840        0.638        0.087      102.049       10.991        0.012      339.018       12.065      868.617
04/30/2014  23:37:00     -119.453      -32.514      -20.345       13.326       16.275       14.614      177.583      264.863      213.559        0.820        0.033      123.799        9.886        0.006      338.851       11.784      868.602
04/30/2014  23:38:00      -96.813      -39.258      -12.573       18.138       22.593       14.092      328.976      510.440      198.578        0.605        0.052      104.470       11.252        0.012      338.848       11.778      868.591
04/30/2014  23:39:00      -78.423      -44.554      -22.416       24.195       22.459       21.010      585.422      504.427      441.435        0.508        0.077       90.196       14.873        0.027      338.826       11.741      868.598
04/30/2014  23:40:00      -82.393      -55.556      -18.475       18.803       20.823       15.064      353.555      433.607      226.922        0.562        0.051       99.373        6.814        0.005      338.832       11.752      868.598
04/30/2014  23:41:00      -97.066      -18.714      -17.248       14.070       10.646       10.069      197.956      113.339      101.394        0.524        0.021       98.853        7.484        0.006      338.792       11.685      868.608
04/30/2014  23:42:00      -98.132      -18.983      -17.991        9.942       13.079       10.197       98.851      171.051      103.986        0.534        0.019       99.951        4.132        0.002      338.813       11.719      868.622
04/30/2014  23:43:00      -94.251      -38.499      -21.840       13.364       16.662       10.133      178.588      277.608      102.675        0.570        0.028      101.810        7.362        0.005      338.796       11.691      868.625
04/30/2014  23:44:00      -92.441      -38.582      -13.816       17.187       17.671       12.491      295.380      312.256      156.019        0.549        0.038      100.169        6.561        0.004      338.737       11.591      868.634
04/30/2014  23:45:00      -92.227      -67.413      -12.587       21.938       24.617       15.403      481.293      605.995      237.257        0.727        0.066      114.238       11.890        0.011      338.825       11.739      868.648
04/30/2014  23:46:00     -145.285      -55.554      -17.205       20.760       19.589       14.182      430.990      383.710      201.133        1.275        0.051      155.544       11.138        0.005      338.737       11.593      868.639
04/30/2014  23:47:00      -95.555      -61.548       -9.742       32.802       19.226       20.030     1075.953      369.638      401.188        0.743        0.092      113.661       20.478        0.032      338.787       11.676      868.646
04/30/2014  23:48:00      -98.227      -43.586      -13.685       14.518       14.475       10.407      210.783      209.513      108.303        0.613        0.026      107.463        4.481        0.002      338.795       11.689      868.659
04/30/2014  23:49:00     -124.803      -64.382      -16.615       31.348       24.123       13.790      982.715      581.922      190.151        1.088        0.088      140.431        7.199        0.003      338.821       11.733      868.660
04/30/2014  23:50:00     -124.996      -86.198        0.125       41.232       28.397       21.372     1700.091      806.371      456.757        1.301        0.148      151.836       18.082        0.014      338.723       11.568      868.655
04/30/2014  23:51:00     -160.915      -74.043       -6.208       29.105       27.824       17.317      847.093      774.156      299.863        1.667        0.096      177.132       12.225        0.005      338.725       11.570      868.635
04/30/2014  23:52:00     -129.960      -46.249       -9.198       36.402       18.265       15.078     1325.096      333.613      227.358        1.050        0.094      137.944       10.035        0.005      338.740       11.596      868.629
04/30/2014  23:53:00     -108.913      -60.705       -4.295       23.042       19.161       18.517      530.934      367.134      342.898        0.840        0.062      124.688       13.340        0.011      338.695       11.522      868.634
04/30/2014  23:54:00     -114.139      -55.827       -5.596       21.073       15.849       13.847      444.084      251.177      191.752        0.853        0.044      127.061        4.828        0.001      338.649       11.444      868.634
04/30/2014  23:55:00     -128.246      -17.580      -11.074       24.426       17.264       16.005      596.614      298.062      256.145        0.901        0.058      129.445       13.426        0.011      338.652       11.450      868.633
04/30/2014  23:56:00     -119.322      -23.892       -5.716       36.889       25.072       21.840     1360.767      628.618      476.967        0.865        0.123      121.691       20.894        0.029      338.598       11.358      868.632
04/30/2014  23:57:00      -99.503      -40.251        0.822       33.799       24.099       17.365     1142.385      580.786      301.550        0.677        0.101      107.336       18.912        0.031      338.519       11.226      868.633
04/30/2014  23:58:00      -98.225      -24.703       -7.930       14.906       17.511       12.056      222.177      306.623      145.349        0.550        0.034      101.284        9.509        0.009      338.694       11.519      868.644
04/30/2014  23:59:00      -17.244      -20.763        0.999       20.091       16.709       11.934      403.652      279.202      142.425        0.078        0.041       26.990        6.511        0.058      338.642       11.432      868.650
